Wetterdaten: Freitag, 19.07.2019
Datum Zeit Temp. A. Pool Temp. Temp. 5cm Feuchte A. Luftdruck Regen Wind Richtung Richtung Sonnenschein ET UV Solar Taupunkt Windchill Windben Empfang
19.07.2019 00:00 18,4 C 24,4 C 15,0 C 65 % 1011,8 hPa 0,0 l/m 4,4 km/h (1 Bft) SW 226 0 min 0,000 mm 0,0 UV-I 0 W/m 11,7 C 18,4 C 6,4 km/h (2 Bft) 100,00 %
19.07.2019 00:02 18,3 C 24,4 C 15,0 C 66 % 1011,8 hPa 0,0 l/m 3,2 km/h (1 Bft) SW 226 0 min 0,000 mm 0,0 UV-I 0 W/m 11,8 C 18,3 C 3,2 km/h (1 Bft) 93,48 %
19.07.2019 00:04 18,2 C 24,4 C 15,6 C 66 % 1011,8 hPa 0,0 l/m 4,1 km/h (1 Bft) SW 223 0 min 0,000 mm 0,0 UV-I 0 W/m 11,7 C 18,2 C 6,4 km/h (2 Bft) 94,29 %
19.07.2019 00:06 18,1 C 24,4 C 15,6 C 67 % 1011,8 hPa 0,0 l/m 4,5 km/h (1 Bft) SW 223 0 min 0,000 mm 0,0 UV-I 0 W/m 11,9 C 18,1 C 6,4 km/h (2 Bft) 98,00 %
19.07.2019 00:08 18,0 C 24,4 C 15,6 C 68 % 1011,8 hPa 0,0 l/m 4,9 km/h (1 Bft) SW 221 0 min 0,000 mm 0,0 UV-I 0 W/m 12,0 C 18,0 C 6,4 km/h (2 Bft) 95,74 %
19.07.2019 00:10 17,9 C 24,4 C 15,6 C 68 % 1011,8 hPa 0,0 l/m 4,8 km/h (1 Bft) SW 221 0 min 0,000 mm 0,0 UV-I 0 W/m 11,9 C 17,9 C 6,4 km/h (2 Bft) 98,00 %
19.07.2019 00:12 17,8 C 24,4 C 15,6 C 68 % 1011,8 hPa 0,0 l/m 4,8 km/h (1 Bft) SW 219 0 min 0,000 mm 0,0 UV-I 0 W/m 11,8 C 17,8 C 6,4 km/h (2 Bft) 97,87 %
19.07.2019 00:14 17,8 C 24,4 C 15,6 C 68 % 1011,9 hPa 0,0 l/m 5,1 km/h (1 Bft) SW 221 0 min 0,000 mm 0,0 UV-I 0 W/m 11,8 C 17,8 C 8,0 km/h (2 Bft) 97,87 %
19.07.2019 00:16 17,8 C 24,4 C 15,6 C 68 % 1011,9 hPa 0,0 l/m 7,1 km/h (2 Bft) SW 221 0 min 0,000 mm 0,0 UV-I 0 W/m 11,8 C 17,5 C 8,0 km/h (2 Bft) 97,87 %
19.07.2019 00:18 17,8 C 24,4 C 15,6 C 68 % 1011,9 hPa 0,0 l/m 5,9 km/h (2 Bft) SW 219 0 min 0,000 mm 0,0 UV-I 0 W/m 11,8 C 17,8 C 8,0 km/h (2 Bft) 100,00 %
19.07.2019 00:20 17,8 C 24,4 C 15,6 C 69 % 1011,9 hPa 0,0 l/m 6,0 km/h (2 Bft) S-SW 213 0 min 0,000 mm 0,0 UV-I 0 W/m 12,0 C 17,8 C 8,0 km/h (2 Bft) 100,00 %
19.07.2019 00:22 17,8 C 24,4 C 15,6 C 68 % 1012,0 hPa 0,0 l/m 5,4 km/h (1 Bft) SW 222 0 min 0,000 mm 0,0 UV-I 0 W/m 11,8 C 17,8 C 8,0 km/h (2 Bft) 100,00 %
19.07.2019 00:24 17,7 C 24,4 C 15,6 C 68 % 1012,0 hPa 0,0 l/m 5,8 km/h (2 Bft) SW 216 0 min 0,000 mm 0,0 UV-I 0 W/m 11,7 C 17,7 C 8,0 km/h (2 Bft) 100,00 %
19.07.2019 00:26 17,7 C 24,4 C 15,6 C 68 % 1011,9 hPa 0,0 l/m 6,2 km/h (2 Bft) W-SW 238 0 min 0,000 mm 0,0 UV-I 0 W/m 11,7 C 17,7 C 8,0 km/h (2 Bft) 100,00 %
19.07.2019 00:28 17,7 C 24,4 C 15,6 C 68 % 1011,9 hPa 0,0 l/m 6,4 km/h (2 Bft) SW 227 0 min 0,000 mm 0,0 UV-I 0 W/m 11,7 C 17,7 C 8,0 km/h (2 Bft) 100,00 %
19.07.2019 00:30 17,7 C 24,4 C 15,6 C 68 % 1012,0 hPa 0,0 l/m 6,6 km/h (2 Bft) SW 221 0 min 0,000 mm 0,0 UV-I 0 W/m 11,7 C 17,6 C 8,0 km/h (2 Bft) 100,00 %
19.07.2019 00:32 17,7 C 24,4 C 15,6 C 68 % 1011,9 hPa 0,0 l/m 7,3 km/h (2 Bft) SW 218 0 min 0,000 mm 0,0 UV-I 0 W/m 11,7 C 17,3 C 9,7 km/h (2 Bft) 100,00 %
19.07.2019 00:34 17,7 C 24,4 C 15,6 C 68 % 1012,0 hPa 0,0 l/m 6,9 km/h (2 Bft) SW 227 0 min 0,000 mm 0,0 UV-I 0 W/m 11,7 C 17,5 C 9,7 km/h (2 Bft) 100,00 %
19.07.2019 00:36 17,6 C 24,4 C 15,6 C 67 % 1012,0 hPa 0,0 l/m 7,5 km/h (2 Bft) S-SW 210 0 min 0,000 mm 0,0 UV-I 0 W/m 11,4 C 17,1 C 11,3 km/h (2 Bft) 100,00 %
19.07.2019 00:38 17,6 C 24,4 C 15,6 C 67 % 1012,0 hPa 0,0 l/m 7,0 km/h (2 Bft) SW 224 0 min 0,000 mm 0,0 UV-I 0 W/m 11,4 C 17,3 C 9,7 km/h (2 Bft) 100,00 %
19.07.2019 00:40 17,6 C 24,4 C 15,0 C 68 % 1012,0 hPa 0,0 l/m 5,7 km/h (1 Bft) SW 225 0 min 0,000 mm 0,0 UV-I 0 W/m 11,6 C 17,6 C 8,0 km/h (2 Bft) 100,00 %
19.07.2019 00:42 17,6 C 24,4 C 15,0 C 68 % 1012,0 hPa 0,0 l/m 5,6 km/h (1 Bft) SW 217 0 min 0,000 mm 0,0 UV-I 0 W/m 11,6 C 17,6 C 8,0 km/h (2 Bft) 97,87 %
19.07.2019 00:44 17,5 C 24,4 C 15,0 C 68 % 1012,0 hPa 0,0 l/m 5,3 km/h (1 Bft) SW 231 0 min 0,000 mm 0,0 UV-I 0 W/m 11,5 C 17,5 C 6,4 km/h (2 Bft) 97,37 %
19.07.2019 00:46 17,4 C 24,4 C 15,0 C 68 % 1012,0 hPa 0,0 l/m 6,1 km/h (2 Bft) SW 219 0 min 0,000 mm 0,0 UV-I 0 W/m 11,4 C 17,4 C 8,0 km/h (2 Bft) 100,00 %
19.07.2019 00:48 17,4 C 24,4 C 15,0 C 68 % 1012,0 hPa 0,0 l/m 4,6 km/h (1 Bft) SW 220 0 min 0,000 mm 0,0 UV-I 0 W/m 11,4 C 17,4 C 6,4 km/h (2 Bft) 100,00 %
19.07.2019 00:50 17,4 C 24,4 C 14,4 C 68 % 1012,0 hPa 0,0 l/m 4,7 km/h (1 Bft) SW 225 0 min 0,000 mm 0,0 UV-I 0 W/m 11,4 C 17,4 C 6,4 km/h (2 Bft) 97,87 %
19.07.2019 00:52 17,4 C 24,4 C 14,4 C 68 % 1012,0 hPa 0,0 l/m 5,7 km/h (1 Bft) SW 217 0 min 0,000 mm 0,0 UV-I 0 W/m 11,4 C 17,4 C 8,0 km/h (2 Bft) 97,87 %
19.07.2019 00:54 17,3 C 24,4 C 14,4 C 68 % 1012,0 hPa 0,0 l/m 6,0 km/h (2 Bft) SW 228 0 min 0,000 mm 0,0 UV-I 0 W/m 11,3 C 17,3 C 9,7 km/h (2 Bft) 95,74 %
19.07.2019 00:56 17,3 C 24,4 C 14,4 C 69 % 1012,0 hPa 0,0 l/m 5,7 km/h (1 Bft) SW 219 0 min 0,000 mm 0,0 UV-I 0 W/m 11,6 C 17,3 C 8,0 km/h (2 Bft) 97,87 %
19.07.2019 00:58 17,2 C 24,4 C 15,0 C 69 % 1012,0 hPa 0,0 l/m 6,0 km/h (2 Bft) W-SW 238 0 min 0,000 mm 0,0 UV-I 0 W/m 11,5 C 17,2 C 8,0 km/h (2 Bft) 95,74 %
19.07.2019 01:00 17,1 C 24,4 C 15,0 C 70 % 1012,0 hPa 0,0 l/m 5,5 km/h (1 Bft) SW 227 0 min 0,025 mm 0,0 UV-I 0 W/m 11,6 C 17,1 C 6,4 km/h (2 Bft) 95,74 %
19.07.2019 01:02 16,9 C 24,4 C 15,0 C 70 % 1012,0 hPa 0,0 l/m 4,8 km/h (1 Bft) SW 221 0 min 0,000 mm 0,0 UV-I 0 W/m 11,4 C 16,9 C 6,4 km/h (2 Bft) 98,00 %
19.07.2019 01:04 16,8 C 24,4 C 15,0 C 70 % 1012,0 hPa 0,0 l/m 6,0 km/h (2 Bft) S-SW 212 0 min 0,000 mm 0,0 UV-I 0 W/m 11,3 C 16,8 C 8,0 km/h (2 Bft) 95,74 %
19.07.2019 01:06 16,8 C 24,4 C 15,0 C 71 % 1012,0 hPa 0,0 l/m 5,0 km/h (1 Bft) S-SW 209 0 min 0,000 mm 0,0 UV-I 0 W/m 11,5 C 16,8 C 6,4 km/h (2 Bft) 97,92 %
19.07.2019 01:08 16,7 C 24,4 C 14,4 C 71 % 1012,0 hPa 0,0 l/m 6,1 km/h (2 Bft) SW 223 0 min 0,000 mm 0,0 UV-I 0 W/m 11,4 C 16,7 C 8,0 km/h (2 Bft) 93,62 %
19.07.2019 01:10 16,7 C 24,4 C 14,4 C 71 % 1012,0 hPa 0,0 l/m 5,8 km/h (2 Bft) SW 215 0 min 0,000 mm 0,0 UV-I 0 W/m 11,4 C 16,7 C 8,0 km/h (2 Bft) 95,74 %
19.07.2019 01:12 16,7 C 24,4 C 14,4 C 70 % 1012,0 hPa 0,0 l/m 5,2 km/h (1 Bft) SW 223 0 min 0,000 mm 0,0 UV-I 0 W/m 11,2 C 16,7 C 9,7 km/h (2 Bft) 97,87 %
19.07.2019 01:14 16,8 C 24,4 C 14,4 C 70 % 1012,0 hPa 0,0 l/m 3,1 km/h (1 Bft) SW 223 0 min 0,000 mm 0,0 UV-I 0 W/m 11,3 C 16,8 C 4,8 km/h (1 Bft) 100,00 %
19.07.2019 01:16 16,9 C 24,4 C 14,4 C 70 % 1012,1 hPa 0,0 l/m 1,8 km/h (1 Bft) SW 223 0 min 0,000 mm 0,0 UV-I 0 W/m 11,4 C 16,9 C 3,2 km/h (1 Bft) 100,00 %
19.07.2019 01:18 16,9 C 24,4 C 14,4 C 70 % 1012,2 hPa 0,0 l/m 0,4 km/h (0 Bft) SW 223 0 min 0,000 mm 0,0 UV-I 0 W/m 11,4 C 16,9 C 3,2 km/h (1 Bft) 100,00 %
19.07.2019 01:20 16,8 C 24,4 C 13,9 C 70 % 1012,2 hPa 0,0 l/m 0,8 km/h (0 Bft) SW 223 0 min 0,000 mm 0,0 UV-I 0 W/m 11,3 C 16,8 C 3,2 km/h (1 Bft) 100,00 %
19.07.2019 01:22 16,7 C 24,4 C 13,9 C 71 % 1012,2 hPa 0,0 l/m 2,0 km/h (1 Bft) SW 223 0 min 0,000 mm 0,0 UV-I 0 W/m 11,4 C 16,7 C 3,2 km/h (1 Bft) 100,00 %
19.07.2019 01:24 16,5 C 24,4 C 13,9 C 72 % 1012,2 hPa 0,0 l/m 3,2 km/h (1 Bft) SW 223 0 min 0,000 mm 0,0 UV-I 0 W/m 11,4 C 16,5 C 4,8 km/h (1 Bft) 100,00 %
19.07.2019 01:26 16,4 C 24,4 C 13,9 C 72 % 1012,2 hPa 0,0 l/m 2,9 km/h (1 Bft) SW 217 0 min 0,000 mm 0,0 UV-I 0 W/m 11,3 C 16,4 C 4,8 km/h (1 Bft) 100,00 %
19.07.2019 01:28 16,3 C 24,4 C 13,9 C 73 % 1012,2 hPa 0,0 l/m 4,8 km/h (1 Bft) S 191 0 min 0,000 mm 0,0 UV-I 0 W/m 11,4 C 16,3 C 6,4 km/h (2 Bft) 100,00 %
19.07.2019 01:30 16,3 C 24,4 C 13,9 C 73 % 1012,2 hPa 0,0 l/m 4,9 km/h (1 Bft) S-SW 197 0 min 0,000 mm 0,0 UV-I 0 W/m 11,4 C 16,3 C 6,4 km/h (2 Bft) 97,87 %
19.07.2019 01:32 16,4 C 24,4 C 13,9 C 73 % 1012,2 hPa 0,0 l/m 3,7 km/h (1 Bft) S-SW 196 0 min 0,000 mm 0,0 UV-I 0 W/m 11,5 C 16,4 C 4,8 km/h (1 Bft) 100,00 %
19.07.2019 01:34 16,6 C 24,4 C 13,9 C 71 % 1012,2 hPa 0,0 l/m 4,7 km/h (1 Bft) S-SW 194 0 min 0,000 mm 0,0 UV-I 0 W/m 11,3 C 16,6 C 6,4 km/h (2 Bft) 97,87 %
19.07.2019 01:36 16,6 C 24,4 C 13,9 C 71 % 1012,2 hPa 0,0 l/m 4,3 km/h (1 Bft) S-SW 194 0 min 0,000 mm 0,0 UV-I 0 W/m 11,3 C 16,6 C 6,4 km/h (2 Bft) 100,00 %
19.07.2019 01:38 16,7 C 23,9 C 13,9 C 71 % 1012,3 hPa 0,0 l/m 4,1 km/h (1 Bft) S-SW 195 0 min 0,000 mm 0,0 UV-I 0 W/m 11,4 C 16,7 C 6,4 km/h (2 Bft) 100,00 %
19.07.2019 01:40 16,8 C 23,9 C 14,4 C 70 % 1012,3 hPa 0,0 l/m 4,5 km/h (1 Bft) SW 218 0 min 0,000 mm 0,0 UV-I 0 W/m 11,3 C 16,8 C 6,4 km/h (2 Bft) 98,00 %
19.07.2019 01:42 16,7 C 23,9 C 14,4 C 70 % 1012,3 hPa 0,0 l/m 4,8 km/h (1 Bft) S-SW 200 0 min 0,000 mm 0,0 UV-I 0 W/m 11,2 C 16,7 C 6,4 km/h (2 Bft) 95,83 %
19.07.2019 01:44 16,6 C 23,9 C 14,4 C 71 % 1012,3 hPa 0,0 l/m 5,0 km/h (1 Bft) S 191 0 min 0,000 mm 0,0 UV-I 0 W/m 11,3 C 16,6 C 8,0 km/h (2 Bft) 93,62 %
19.07.2019 01:46 16,4 C 23,9 C 14,4 C 72 % 1012,3 hPa 0,0 l/m 5,5 km/h (1 Bft) S-SW 205 0 min 0,000 mm 0,0 UV-I 0 W/m 11,3 C 16,4 C 8,0 km/h (2 Bft) 95,74 %
19.07.2019 01:48 16,4 C 23,9 C 14,4 C 72 % 1012,4 hPa 0,0 l/m 4,5 km/h (1 Bft) SW 224 0 min 0,000 mm 0,0 UV-I 0 W/m 11,3 C 16,4 C 6,4 km/h (2 Bft) 95,74 %
19.07.2019 01:50 16,5 C 23,9 C 14,4 C 71 % 1012,5 hPa 0,0 l/m 5,9 km/h (2 Bft) SW 231 0 min 0,000 mm 0,0 UV-I 0 W/m 11,2 C 16,5 C 8,0 km/h (2 Bft) 95,74 %
19.07.2019 01:52 16,4 C 23,9 C 14,4 C 72 % 1012,4 hPa 0,0 l/m 6,9 km/h (2 Bft) S 191 0 min 0,000 mm 0,0 UV-I 0 W/m 11,3 C 16,1 C 11,3 km/h (2 Bft) 93,62 %
19.07.2019 01:54 16,3 C 23,9 C 14,4 C 72 % 1012,4 hPa 0,0 l/m 8,7 km/h (2 Bft) S-SW 204 0 min 0,000 mm 0,0 UV-I 0 W/m 11,2 C 15,1 C 12,9 km/h (3 Bft) 93,62 %
19.07.2019 01:56 16,4 C 23,9 C 15,0 C 72 % 1012,4 hPa 0,0 l/m 7,4 km/h (2 Bft) SW 218 0 min 0,000 mm 0,0 UV-I 0 W/m 11,3 C 15,9 C 11,3 km/h (2 Bft) 91,49 %
19.07.2019 01:58 16,7 C 23,9 C 15,0 C 71 % 1012,4 hPa 0,0 l/m 7,4 km/h (2 Bft) S 171 0 min 0,000 mm 0,0 UV-I 0 W/m 11,4 C 16,2 C 11,3 km/h (2 Bft) 93,62 %
19.07.2019 02:00 16,9 C 23,9 C 15,6 C 70 % 1012,4 hPa 0,0 l/m 6,5 km/h (2 Bft) S 186 0 min 0,000 mm 0,0 UV-I 0 W/m 11,4 C 16,9 C 9,7 km/h (2 Bft) 95,74 %
19.07.2019 02:02 17,1 C 23,9 C 15,6 C 69 % 1012,4 hPa 0,0 l/m 7,7 km/h (2 Bft) S-SW 201 0 min 0,026 mm 0,0 UV-I 0 W/m 11,4 C 16,5 C 12,9 km/h (3 Bft) 94,74 %
19.07.2019 02:04 17,3 C 23,9 C 15,6 C 69 % 1012,5 hPa 0,0 l/m 6,9 km/h (2 Bft) S-SW 200 0 min 0,000 mm 0,0 UV-I 0 W/m 11,6 C 17,1 C 11,3 km/h (2 Bft) 96,00 %
19.07.2019 02:06 17,3 C 23,9 C 15,6 C 69 % 1012,5 hPa 0,0 l/m 4,9 km/h (1 Bft) SW 227 0 min 0,000 mm 0,0 UV-I 0 W/m 11,6 C 17,3 C 8,0 km/h (2 Bft) 95,74 %
19.07.2019 02:08 17,3 C 23,9 C 15,6 C 69 % 1012,5 hPa 0,0 l/m 4,4 km/h (1 Bft) S-SW 213 0 min 0,000 mm 0,0 UV-I 0 W/m 11,6 C 17,3 C 6,4 km/h (2 Bft) 95,74 %
19.07.2019 02:10 17,3 C 23,9 C 15,6 C 69 % 1012,4 hPa 0,0 l/m 4,0 km/h (1 Bft) S 188 0 min 0,000 mm 0,0 UV-I 0 W/m 11,6 C 17,3 C 8,0 km/h (2 Bft) 95,74 %
19.07.2019 02:12 17,3 C 23,9 C 15,6 C 69 % 1012,5 hPa 0,0 l/m 5,0 km/h (1 Bft) S-SW 199 0 min 0,000 mm 0,0 UV-I 0 W/m 11,6 C 17,3 C 9,7 km/h (2 Bft) 94,00 %
19.07.2019 02:14 17,3 C 23,9 C 15,6 C 69 % 1012,5 hPa 0,0 l/m 5,6 km/h (1 Bft) SW 235 0 min 0,000 mm 0,0 UV-I 0 W/m 11,6 C 17,3 C 9,7 km/h (2 Bft) 98,00 %
19.07.2019 02:16 17,4 C 23,9 C 15,6 C 69 % 1012,5 hPa 0,0 l/m 6,2 km/h (2 Bft) S-SW 202 0 min 0,000 mm 0,0 UV-I 0 W/m 11,7 C 17,4 C 9,7 km/h (2 Bft) 91,67 %
19.07.2019 02:18 17,4 C 23,9 C 15,6 C 69 % 1012,5 hPa 0,0 l/m 5,8 km/h (2 Bft) S-SW 211 0 min 0,000 mm 0,0 UV-I 0 W/m 11,7 C 17,4 C 9,7 km/h (2 Bft) 94,00 %
19.07.2019 02:20 17,5 C 23,9 C 16,1 C 69 % 1012,5 hPa 0,0 l/m 7,0 km/h (2 Bft) S-SW 195 0 min 0,000 mm 0,0 UV-I 0 W/m 11,7 C 17,2 C 9,7 km/h (2 Bft) 93,62 %
19.07.2019 02:22 17,6 C 23,9 C 16,1 C 69 % 1012,5 hPa 0,0 l/m 7,0 km/h (2 Bft) S-SW 195 0 min 0,000 mm 0,0 UV-I 0 W/m 11,8 C 17,3 C 9,7 km/h (2 Bft) 95,74 %
19.07.2019 02:24 17,6 C 23,9 C 16,1 C 68 % 1012,5 hPa 0,0 l/m 7,5 km/h (2 Bft) SW 221 0 min 0,000 mm 0,0 UV-I 0 W/m 11,6 C 17,1 C 11,3 km/h (2 Bft) 93,62 %
19.07.2019 02:26 17,6 C 23,9 C 16,1 C 69 % 1012,5 hPa 0,0 l/m 5,3 km/h (1 Bft) W-SW 244 0 min 0,000 mm 0,0 UV-I 0 W/m 11,8 C 17,6 C 8,0 km/h (2 Bft) 92,00 %
19.07.2019 02:28 17,5 C 23,9 C 15,6 C 69 % 1012,5 hPa 0,0 l/m 5,4 km/h (1 Bft) SW 234 0 min 0,000 mm 0,0 UV-I 0 W/m 11,7 C 17,5 C 8,0 km/h (2 Bft) 93,62 %
19.07.2019 02:30 17,4 C 23,9 C 15,6 C 69 % 1012,6 hPa 0,0 l/m 4,8 km/h (1 Bft) W-SW 242 0 min 0,000 mm 0,0 UV-I 0 W/m 11,7 C 17,4 C 8,0 km/h (2 Bft) 91,49 %
19.07.2019 02:32 17,2 C 23,9 C 15,6 C 71 % 1012,6 hPa 0,0 l/m 4,7 km/h (1 Bft) W-SW 248 0 min 0,000 mm 0,0 UV-I 0 W/m 11,9 C 17,2 C 6,4 km/h (2 Bft) 93,62 %
19.07.2019 02:34 16,9 C 23,9 C 15,0 C 72 % 1012,6 hPa 0,0 l/m 3,8 km/h (1 Bft) W-SW 249 0 min 0,000 mm 0,0 UV-I 0 W/m 11,8 C 16,9 C 4,8 km/h (1 Bft) 95,74 %
19.07.2019 02:36 16,8 C 23,9 C 15,0 C 72 % 1012,5 hPa 0,0 l/m 3,4 km/h (1 Bft) W-SW 248 0 min 0,000 mm 0,0 UV-I 0 W/m 11,7 C 16,8 C 4,8 km/h (1 Bft) 96,00 %
19.07.2019 02:38 16,6 C 23,9 C 15,0 C 73 % 1012,6 hPa 0,0 l/m 5,8 km/h (2 Bft) SW 216 0 min 0,000 mm 0,0 UV-I 0 W/m 11,7 C 16,6 C 8,0 km/h (2 Bft) 95,74 %
19.07.2019 02:40 16,3 C 23,9 C 15,0 C 74 % 1012,6 hPa 0,0 l/m 5,8 km/h (2 Bft) SW 219 0 min 0,000 mm 0,0 UV-I 0 W/m 11,7 C 16,3 C 9,7 km/h (2 Bft) 97,87 %
19.07.2019 02:42 16,3 C 23,9 C 15,0 C 75 % 1012,5 hPa 0,0 l/m 5,4 km/h (1 Bft) SW 227 0 min 0,000 mm 0,0 UV-I 0 W/m 11,9 C 16,3 C 8,0 km/h (2 Bft) 97,87 %
19.07.2019 02:44 16,3 C 23,9 C 15,0 C 75 % 1012,6 hPa 0,0 l/m 5,4 km/h (1 Bft) SW 236 0 min 0,000 mm 0,0 UV-I 0 W/m 11,9 C 16,3 C 6,4 km/h (2 Bft) 100,00 %
19.07.2019 02:46 16,6 C 23,9 C 15,0 C 74 % 1012,6 hPa 0,0 l/m 4,4 km/h (1 Bft) W-SW 244 0 min 0,000 mm 0,0 UV-I 0 W/m 11,9 C 16,6 C 8,0 km/h (2 Bft) 100,00 %
19.07.2019 02:48 16,7 C 23,9 C 15,0 C 73 % 1012,5 hPa 0,0 l/m 4,4 km/h (1 Bft) W-SW 237 0 min 0,000 mm 0,0 UV-I 0 W/m 11,8 C 16,7 C 6,4 km/h (2 Bft) 100,00 %
19.07.2019 02:50 16,7 C 23,9 C 15,0 C 73 % 1012,5 hPa 0,0 l/m 5,1 km/h (1 Bft) SW 230 0 min 0,000 mm 0,0 UV-I 0 W/m 11,8 C 16,7 C 8,0 km/h (2 Bft) 100,00 %
19.07.2019 02:52 16,6 C 23,9 C 15,0 C 73 % 1012,5 hPa 0,0 l/m 6,7 km/h (2 Bft) SW 221 0 min 0,000 mm 0,0 UV-I 0 W/m 11,7 C 16,5 C 8,0 km/h (2 Bft) 100,00 %
19.07.2019 02:54 16,6 C 23,9 C 15,0 C 74 % 1012,5 hPa 0,0 l/m 5,4 km/h (1 Bft) SW 227 0 min 0,000 mm 0,0 UV-I 0 W/m 11,9 C 16,6 C 8,0 km/h (2 Bft) 98,00 %
19.07.2019 02:56 16,5 C 23,9 C 14,4 C 74 % 1012,5 hPa 0,0 l/m 4,8 km/h (1 Bft) SW 228 0 min 0,000 mm 0,0 UV-I 0 W/m 11,8 C 16,5 C 8,0 km/h (2 Bft) 100,00 %
19.07.2019 02:58 16,5 C 23,9 C 14,4 C 74 % 1012,5 hPa 0,0 l/m 4,2 km/h (1 Bft) SW 228 0 min 0,000 mm 0,0 UV-I 0 W/m 11,8 C 16,5 C 6,4 km/h (2 Bft) 100,00 %
19.07.2019 03:00 16,6 C 23,9 C 14,4 C 74 % 1012,5 hPa 0,0 l/m 4,3 km/h (1 Bft) SW 229 0 min 0,025 mm 0,0 UV-I 0 W/m 11,9 C 16,6 C 6,4 km/h (2 Bft) 97,87 %
19.07.2019 03:02 16,6 C 23,9 C 14,4 C 73 % 1012,5 hPa 0,0 l/m 4,7 km/h (1 Bft) SW 235 0 min 0,000 mm 0,0 UV-I 0 W/m 11,7 C 16,6 C 6,4 km/h (2 Bft) 100,00 %
19.07.2019 03:04 16,6 C 23,9 C 14,4 C 73 % 1012,5 hPa 0,0 l/m 4,2 km/h (1 Bft) SW 234 0 min 0,000 mm 0,0 UV-I 0 W/m 11,7 C 16,6 C 6,4 km/h (2 Bft) 95,74 %
19.07.2019 03:06 16,6 C 23,9 C 14,4 C 73 % 1012,5 hPa 0,0 l/m 3,8 km/h (1 Bft) SW 234 0 min 0,000 mm 0,0 UV-I 0 W/m 11,7 C 16,6 C 4,8 km/h (1 Bft) 100,00 %
19.07.2019 03:08 16,4 C 23,9 C 14,4 C 75 % 1012,5 hPa 0,0 l/m 3,8 km/h (1 Bft) SW 234 0 min 0,000 mm 0,0 UV-I 0 W/m 12,0 C 16,4 C 4,8 km/h (1 Bft) 100,00 %
19.07.2019 03:10 16,4 C 23,9 C 14,4 C 75 % 1012,5 hPa 0,0 l/m 3,1 km/h (1 Bft) SW 234 0 min 0,000 mm 0,0 UV-I 0 W/m 12,0 C 16,4 C 4,8 km/h (1 Bft) 95,74 %
19.07.2019 03:12 16,3 C 23,9 C 14,4 C 76 % 1012,6 hPa 0,0 l/m 2,9 km/h (1 Bft) SW 234 0 min 0,000 mm 0,0 UV-I 0 W/m 12,1 C 16,3 C 4,8 km/h (1 Bft) 100,00 %
19.07.2019 03:14 16,3 C 23,9 C 13,9 C 76 % 1012,6 hPa 0,0 l/m 3,7 km/h (1 Bft) SW 234 0 min 0,000 mm 0,0 UV-I 0 W/m 12,1 C 16,3 C 4,8 km/h (1 Bft) 100,00 %
19.07.2019 03:16 16,3 C 23,9 C 13,9 C 75 % 1012,6 hPa 0,0 l/m 3,8 km/h (1 Bft) SW 234 0 min 0,000 mm 0,0 UV-I 0 W/m 11,9 C 16,3 C 4,8 km/h (1 Bft) 100,00 %
19.07.2019 03:18 16,4 C 23,9 C 13,9 C 75 % 1012,6 hPa 0,0 l/m 3,2 km/h (1 Bft) SW 234 0 min 0,000 mm 0,0 UV-I 0 W/m 12,0 C 16,4 C 6,4 km/h (2 Bft) 100,00 %
19.07.2019 03:20 16,5 C 23,9 C 13,9 C 74 % 1012,6 hPa 0,0 l/m 2,2 km/h (1 Bft) SW 234 0 min 0,000 mm 0,0 UV-I 0 W/m 11,8 C 16,5 C 3,2 km/h (1 Bft) 95,74 %
19.07.2019 03:22 16,5 C 23,9 C 13,9 C 74 % 1012,5 hPa 0,0 l/m 2,5 km/h (1 Bft) SW 234 0 min 0,000 mm 0,0 UV-I 0 W/m 11,8 C 16,5 C 3,2 km/h (1 Bft) 100,00 %
19.07.2019 03:24 16,5 C 23,9 C 13,9 C 74 % 1012,5 hPa 0,0 l/m 2,0 km/h (1 Bft) SW 234 0 min 0,000 mm 0,0 UV-I 0 W/m 11,8 C 16,5 C 3,2 km/h (1 Bft) 100,00 %
19.07.2019 03:26 16,4 C 23,9 C 13,9 C 76 % 1012,5 hPa 0,0 l/m 2,9 km/h (1 Bft) SW 234 0 min 0,000 mm 0,0 UV-I 0 W/m 12,2 C 16,4 C 4,8 km/h (1 Bft) 97,87 %
19.07.2019 03:28 16,2 C 23,9 C 13,9 C 76 % 1012,5 hPa 0,0 l/m 3,5 km/h (1 Bft) SW 234 0 min 0,000 mm 0,0 UV-I 0 W/m 12,0 C 16,2 C 4,8 km/h (1 Bft) 100,00 %
19.07.2019 03:30 16,1 C 23,9 C 13,9 C 77 % 1012,5 hPa 0,0 l/m 2,6 km/h (1 Bft) SW 234 0 min 0,000 mm 0,0 UV-I 0 W/m 12,1 C 16,1 C 4,8 km/h (1 Bft) 98,00 %
19.07.2019 03:32 15,8 C 23,9 C 13,9 C 77 % 1012,6 hPa 0,0 l/m 1,2 km/h (1 Bft) SW 234 0 min 0,000 mm 0,0 UV-I 0 W/m 11,8 C 15,8 C 1,6 km/h (1 Bft) 97,87 %
19.07.2019 03:34 15,6 C 23,9 C 13,9 C 78 % 1012,6 hPa 0,0 l/m 0,0 km/h (0 Bft) SW 234 0 min 0,000 mm 0,0 UV-I 0 W/m 11,8 C 15,6 C 0,0 km/h (0 Bft) 100,00 %
19.07.2019 03:36 15,6 C 23,9 C 13,9 C 79 % 1012,6 hPa 0,0 l/m 0,1 km/h (0 Bft) SW 234 0 min 0,000 mm 0,0 UV-I 0 W/m 12,0 C 15,6 C 1,6 km/h (1 Bft) 100,00 %
19.07.2019 03:38 15,5 C 23,9 C 13,3 C 79 % 1012,6 hPa 0,0 l/m 0,5 km/h (0 Bft) SW 234 0 min 0,000 mm 0,0 UV-I 0 W/m 11,9 C 15,5 C 1,6 km/h (1 Bft) 97,37 %
19.07.2019 03:40 15,5 C 23,9 C 13,3 C 80 % 1012,6 hPa 0,0 l/m 1,9 km/h (1 Bft) SW 234 0 min 0,000 mm 0,0 UV-I 0 W/m 12,1 C 15,5 C 3,2 km/h (1 Bft) 98,00 %
19.07.2019 03:42 15,6 C 23,9 C 13,3 C 79 % 1012,6 hPa 0,0 l/m 2,3 km/h (1 Bft) SW 234 0 min 0,000 mm 0,0 UV-I 0 W/m 12,0 C 15,6 C 3,2 km/h (1 Bft) 93,62 %
19.07.2019 03:44 15,6 C 23,9 C 13,3 C 79 % 1012,6 hPa 0,0 l/m 1,3 km/h (1 Bft) SW 234 0 min 0,000 mm 0,0 UV-I 0 W/m 12,0 C 15,6 C 3,2 km/h (1 Bft) 97,87 %
19.07.2019 03:46 15,5 C 23,9 C 13,3 C 79 % 1012,6 hPa 0,0 l/m 0,3 km/h (0 Bft) SW 234 0 min 0,000 mm 0,0 UV-I 0 W/m 11,9 C 15,5 C 1,6 km/h (1 Bft) 97,87 %
19.07.2019 03:48 15,6 C 23,9 C 12,8 C 79 % 1012,7 hPa 0,0 l/m 0,4 km/h (0 Bft) SW 234 0 min 0,000 mm 0,0 UV-I 0 W/m 12,0 C 15,6 C 1,6 km/h (1 Bft) 95,74 %
19.07.2019 03:50 15,3 C 23,9 C 13,3 C 79 % 1012,7 hPa 0,0 l/m 2,0 km/h (1 Bft) SW 234 0 min 0,000 mm 0,0 UV-I 0 W/m 11,7 C 15,3 C 3,2 km/h (1 Bft) 93,62 %
19.07.2019 03:52 15,1 C 23,9 C 12,8 C 81 % 1012,7 hPa 0,0 l/m 1,8 km/h (1 Bft) SW 234 0 min 0,000 mm 0,0 UV-I 0 W/m 11,9 C 15,1 C 3,2 km/h (1 Bft) 95,74 %
19.07.2019 03:54 14,9 C 23,9 C 12,8 C 81 % 1012,7 hPa 0,0 l/m 1,2 km/h (1 Bft) SW 234 0 min 0,000 mm 0,0 UV-I 0 W/m 11,7 C 14,9 C 1,6 km/h (1 Bft) 95,74 %
19.07.2019 03:56 14,9 C 23,9 C 12,8 C 81 % 1012,7 hPa 0,0 l/m 0,8 km/h (0 Bft) SW 234 0 min 0,000 mm 0,0 UV-I 0 W/m 11,7 C 14,9 C 1,6 km/h (1 Bft) 95,74 %
19.07.2019 03:58 15,1 C 23,9 C 12,8 C 81 % 1012,7 hPa 0,0 l/m 0,2 km/h (0 Bft) SW 234 0 min 0,000 mm 0,0 UV-I 0 W/m 11,9 C 15,1 C 1,6 km/h (1 Bft) 93,62 %
19.07.2019 04:00 15,3 C 23,9 C 12,8 C 80 % 1012,7 hPa 0,0 l/m 0,5 km/h (0 Bft) SW 234 0 min 0,000 mm 0,0 UV-I 0 W/m 11,9 C 15,3 C 1,6 km/h (1 Bft) 93,88 %
19.07.2019 04:02 15,2 C 23,9 C 12,8 C 80 % 1012,7 hPa 0,0 l/m 1,5 km/h (1 Bft) SW 234 0 min 0,000 mm 0,0 UV-I 0 W/m 11,8 C 15,2 C 1,6 km/h (1 Bft) 96,67 %
19.07.2019 04:04 15,0 C 23,9 C 12,8 C 81 % 1012,7 hPa 0,0 l/m 0,6 km/h (0 Bft) SW 234 0 min 0,000 mm 0,0 UV-I 0 W/m 11,8 C 15,0 C 1,6 km/h (1 Bft) 95,74 %
19.07.2019 04:06 14,8 C 23,9 C 12,8 C 82 % 1012,7 hPa 0,0 l/m 3,2 km/h (1 Bft) S 174 0 min 0,000 mm 0,0 UV-I 0 W/m 11,8 C 14,8 C 8,0 km/h (2 Bft) 97,87 %
19.07.2019 04:08 14,7 C 23,9 C 12,8 C 82 % 1012,7 hPa 0,0 l/m 7,8 km/h (2 Bft) S-SO 162 0 min 0,000 mm 0,0 UV-I 0 W/m 11,7 C 13,9 C 9,7 km/h (2 Bft) 97,87 %
19.07.2019 04:10 14,7 C 23,9 C 12,8 C 82 % 1012,7 hPa 0,0 l/m 7,4 km/h (2 Bft) S-SO 161 0 min 0,000 mm 0,0 UV-I 0 W/m 11,7 C 14,1 C 9,7 km/h (2 Bft) 97,87 %
19.07.2019 04:12 14,6 C 23,9 C 12,8 C 82 % 1012,7 hPa 0,0 l/m 5,1 km/h (1 Bft) S-SO 161 0 min 0,000 mm 0,0 UV-I 0 W/m 11,6 C 14,6 C 8,0 km/h (2 Bft) 97,92 %
19.07.2019 04:14 14,3 C 23,9 C 12,8 C 83 % 1012,7 hPa 0,0 l/m 0,9 km/h (0 Bft) S-SO 161 0 min 0,000 mm 0,0 UV-I 0 W/m 11,5 C 14,3 C 3,2 km/h (1 Bft) 97,87 %
19.07.2019 04:16 14,4 C 23,9 C 12,8 C 83 % 1012,7 hPa 0,0 l/m 0,4 km/h (0 Bft) S-SO 161 0 min 0,000 mm 0,0 UV-I 0 W/m 11,5 C 14,4 C 1,6 km/h (1 Bft) 98,00 %
19.07.2019 04:18 14,7 C 23,9 C 12,8 C 82 % 1012,7 hPa 0,0 l/m 0,6 km/h (0 Bft) S-SO 161 0 min 0,000 mm 0,0 UV-I 0 W/m 11,7 C 14,7 C 1,6 km/h (1 Bft) 95,74 %
19.07.2019 04:20 14,9 C 23,9 C 12,8 C 81 % 1012,7 hPa 0,0 l/m 1,5 km/h (1 Bft) S-SO 163 0 min 0,000 mm 0,0 UV-I 0 W/m 11,7 C 14,9 C 3,2 km/h (1 Bft) 95,74 %
19.07.2019 04:22 14,8 C 23,9 C 12,8 C 81 % 1012,7 hPa 0,0 l/m 1,5 km/h (1 Bft) S-SO 163 0 min 0,000 mm 0,0 UV-I 0 W/m 11,6 C 14,8 C 3,2 km/h (1 Bft) 97,37 %
19.07.2019 04:24 14,2 C 23,9 C 12,2 C 83 % 1012,8 hPa 0,0 l/m 2,8 km/h (1 Bft) S-SO 163 0 min 0,000 mm 0,0 UV-I 0 W/m 11,4 C 14,2 C 6,4 km/h (2 Bft) 100,00 %
19.07.2019 04:26 13,8 C 23,9 C 12,2 C 85 % 1012,7 hPa 0,0 l/m 3,5 km/h (1 Bft) S-SO 163 0 min 0,000 mm 0,0 UV-I 0 W/m 11,3 C 13,8 C 6,4 km/h (2 Bft) 100,00 %
19.07.2019 04:28 13,6 C 23,9 C 12,2 C 86 % 1012,7 hPa 0,0 l/m 3,3 km/h (1 Bft) S-SO 163 0 min 0,000 mm 0,0 UV-I 0 W/m 11,3 C 13,6 C 6,4 km/h (2 Bft) 100,00 %
19.07.2019 04:30 13,5 C 23,9 C 12,8 C 87 % 1012,7 hPa 0,0 l/m 2,1 km/h (1 Bft) S-SO 163 0 min 0,000 mm 0,0 UV-I 0 W/m 11,4 C 13,5 C 3,2 km/h (1 Bft) 100,00 %
19.07.2019 04:32 13,5 C 23,9 C 12,2 C 87 % 1012,7 hPa 0,0 l/m 3,0 km/h (1 Bft) S-SO 163 0 min 0,000 mm 0,0 UV-I 0 W/m 11,4 C 13,5 C 6,4 km/h (2 Bft) 100,00 %
19.07.2019 04:34 13,6 C 23,9 C 12,2 C 87 % 1012,7 hPa 0,0 l/m 2,8 km/h (1 Bft) S-SO 161 0 min 0,000 mm 0,0 UV-I 0 W/m 11,5 C 13,6 C 6,4 km/h (2 Bft) 97,87 %
19.07.2019 04:36 13,6 C 23,9 C 12,8 C 87 % 1012,8 hPa 0,0 l/m 2,0 km/h (1 Bft) S-SO 161 0 min 0,000 mm 0,0 UV-I 0 W/m 11,5 C 13,6 C 3,2 km/h (1 Bft) 96,00 %
19.07.2019 04:38 13,7 C 23,9 C 12,2 C 87 % 1012,8 hPa 0,0 l/m 1,2 km/h (1 Bft) S-SO 161 0 min 0,000 mm 0,0 UV-I 0 W/m 11,6 C 13,7 C 1,6 km/h (1 Bft) 100,00 %
19.07.2019 04:40 13,9 C 23,9 C 12,2 C 87 % 1012,8 hPa 0,0 l/m 0,1 km/h (0 Bft) S-SO 161 0 min 0,000 mm 0,0 UV-I 0 W/m 11,8 C 13,9 C 1,6 km/h (1 Bft) 98,00 %
19.07.2019 04:42 13,8 C 23,9 C 12,2 C 86 % 1012,8 hPa 0,0 l/m 1,0 km/h (0 Bft) S-SO 161 0 min 0,000 mm 0,0 UV-I 0 W/m 11,5 C 13,8 C 1,6 km/h (1 Bft) 97,37 %
19.07.2019 04:44 13,7 C 23,9 C 12,8 C 86 % 1012,8 hPa 0,0 l/m 1,9 km/h (1 Bft) S-SO 161 0 min 0,000 mm 0,0 UV-I 0 W/m 11,4 C 13,7 C 3,2 km/h (1 Bft) 100,00 %
19.07.2019 04:46 13,8 C 23,9 C 12,2 C 87 % 1012,8 hPa 0,0 l/m 1,7 km/h (1 Bft) S-SO 161 0 min 0,000 mm 0,0 UV-I 0 W/m 11,7 C 13,8 C 3,2 km/h (1 Bft) 100,00 %
19.07.2019 04:48 13,9 C 23,9 C 12,8 C 86 % 1012,8 hPa 0,0 l/m 2,4 km/h (1 Bft) S-SO 161 0 min 0,000 mm 0,0 UV-I 0 W/m 11,6 C 13,9 C 3,2 km/h (1 Bft) 100,00 %
19.07.2019 04:50 14,1 C 23,9 C 12,8 C 86 % 1012,8 hPa 0,0 l/m 3,2 km/h (1 Bft) S-SO 161 0 min 0,000 mm 0,0 UV-I 0 W/m 11,8 C 14,1 C 3,2 km/h (1 Bft) 98,00 %
19.07.2019 04:52 14,1 C 23,9 C 12,8 C 85 % 1012,8 hPa 0,0 l/m 3,8 km/h (1 Bft) S-SO 161 0 min 0,000 mm 0,0 UV-I 0 W/m 11,6 C 14,1 C 6,4 km/h (2 Bft) 100,00 %
19.07.2019 04:54 13,9 C 23,9 C 12,8 C 86 % 1012,9 hPa 0,0 l/m 4,8 km/h (1 Bft) S-SO 161 0 min 0,000 mm 0,0 UV-I 0 W/m 11,6 C 13,9 C 6,4 km/h (2 Bft) 100,00 %
19.07.2019 04:56 13,9 C 23,9 C 12,8 C 86 % 1012,9 hPa 0,0 l/m 4,9 km/h (1 Bft) S-SO 161 0 min 0,000 mm 0,0 UV-I 0 W/m 11,6 C 13,9 C 6,4 km/h (2 Bft) 97,87 %
19.07.2019 04:58 13,9 C 23,9 C 13,3 C 86 % 1012,9 hPa 0,0 l/m 4,7 km/h (1 Bft) S-SO 161 0 min 0,000 mm 0,0 UV-I 0 W/m 11,6 C 13,9 C 6,4 km/h (2 Bft) 100,00 %
19.07.2019 05:00 14,0 C 23,9 C 13,3 C 86 % 1012,9 hPa 0,0 l/m 3,3 km/h (1 Bft) S-SO 161 0 min 0,000 mm 0,0 UV-I 0 W/m 11,7 C 14,0 C 6,4 km/h (2 Bft) 97,56 %
19.07.2019 05:02 14,1 C 23,9 C 13,3 C 86 % 1012,9 hPa 0,0 l/m 2,5 km/h (1 Bft) S-SO 161 0 min 0,000 mm 0,0 UV-I 0 W/m 11,8 C 14,1 C 3,2 km/h (1 Bft) 100,00 %
19.07.2019 05:04 14,1 C 23,9 C 13,3 C 85 % 1012,9 hPa 0,0 l/m 1,3 km/h (1 Bft) S-SO 161 0 min 0,000 mm 0,0 UV-I 0 W/m 11,6 C 14,1 C 1,6 km/h (1 Bft) 100,00 %
19.07.2019 05:06 14,2 C 23,9 C 13,3 C 84 % 1013,0 hPa 0,0 l/m 2,9 km/h (1 Bft) S-SO 161 0 min 0,000 mm 0,0 UV-I 0 W/m 11,5 C 14,2 C 6,4 km/h (2 Bft) 92,00 %
19.07.2019 05:08 14,2 C 23,9 C 13,3 C 84 % 1013,0 hPa 0,0 l/m 4,9 km/h (1 Bft) S-SO 161 0 min 0,000 mm 0,0 UV-I 0 W/m 11,5 C 14,2 C 6,4 km/h (2 Bft) 93,62 %
19.07.2019 05:10 14,2 C 23,9 C 13,3 C 84 % 1013,0 hPa 0,0 l/m 3,7 km/h (1 Bft) S-SO 161 0 min 0,000 mm 0,0 UV-I 0 W/m 11,5 C 14,2 C 6,4 km/h (2 Bft) 95,74 %
19.07.2019 05:12 14,2 C 23,9 C 13,3 C 84 % 1013,0 hPa 0,0 l/m 4,7 km/h (1 Bft) S-SO 161 0 min 0,000 mm 0,0 UV-I 0 W/m 11,5 C 14,2 C 6,4 km/h (2 Bft) 95,74 %
19.07.2019 05:14 14,2 C 23,9 C 13,3 C 84 % 1013,1 hPa 0,0 l/m 4,1 km/h (1 Bft) S-SO 161 0 min 0,000 mm 0,0 UV-I 5 W/m 11,5 C 14,2 C 6,4 km/h (2 Bft) 95,74 %
19.07.2019 05:16 14,1 C 23,9 C 13,3 C 85 % 1013,1 hPa 0,0 l/m 1,7 km/h (1 Bft) S-SO 161 0 min 0,000 mm 0,0 UV-I 5 W/m 11,6 C 14,1 C 3,2 km/h (1 Bft) 95,74 %
19.07.2019 05:18 14,1 C 23,9 C 13,3 C 85 % 1013,0 hPa 0,0 l/m 0,5 km/h (0 Bft) S-SO 161 0 min 0,000 mm 0,0 UV-I 5 W/m 11,6 C 14,1 C 1,6 km/h (1 Bft) 93,62 %
19.07.2019 05:20 14,2 C 23,9 C 13,3 C 85 % 1013,1 hPa 0,0 l/m 0,2 km/h (0 Bft) S-SO 161 0 min 0,000 mm 0,0 UV-I 5 W/m 11,7 C 14,2 C 1,6 km/h (1 Bft) 96,00 %
19.07.2019 05:22 14,3 C 23,9 C 13,3 C 84 % 1013,1 hPa 0,0 l/m 0,0 km/h (0 Bft) S-SO 161 0 min 0,000 mm 0,0 UV-I 5 W/m 11,6 C 14,3 C 0,0 km/h (0 Bft) 95,74 %
19.07.2019 05:24 14,2 C 23,9 C 13,3 C 84 % 1013,1 hPa 0,0 l/m 0,0 km/h (0 Bft) S-SO 161 0 min 0,000 mm 0,0 UV-I 7 W/m 11,5 C 14,2 C 0,0 km/h (0 Bft) 93,62 %
19.07.2019 05:26 14,1 C 23,9 C 12,8 C 85 % 1013,1 hPa 0,0 l/m 0,0 km/h (0 Bft) S-SO 161 0 min 0,000 mm 0,0 UV-I 7 W/m 11,6 C 14,1 C 0,0 km/h (0 Bft) 94,87 %
19.07.2019 05:28 13,9 C 23,9 C 12,8 C 85 % 1013,1 hPa 0,0 l/m 0,0 km/h (0 Bft) S-SO 161 0 min 0,000 mm 0,0 UV-I 7 W/m 11,4 C 13,9 C 0,0 km/h (0 Bft) 93,62 %
19.07.2019 05:30 13,9 C 23,9 C 12,8 C 85 % 1013,1 hPa 0,0 l/m 0,0 km/h (0 Bft) S-SO 161 0 min 0,000 mm 0,0 UV-I 9 W/m 11,4 C 13,9 C 0,0 km/h (0 Bft) 97,87 %
19.07.2019 05:32 14,1 C 23,9 C 12,8 C 85 % 1013,1 hPa 0,0 l/m 0,0 km/h (0 Bft) S-SO 161 0 min 0,000 mm 0,0 UV-I 9 W/m 11,6 C 14,1 C 0,0 km/h (0 Bft) 96,00 %
19.07.2019 05:34 14,1 C 23,9 C 12,8 C 85 % 1013,2 hPa 0,0 l/m 0,0 km/h (0 Bft) S-SO 161 0 min 0,000 mm 0,0 UV-I 11 W/m 11,6 C 14,1 C 0,0 km/h (0 Bft) 97,87 %
19.07.2019 05:36 14,1 C 23,9 C 12,8 C 86 % 1013,2 hPa 0,0 l/m 0,0 km/h (0 Bft) S-SO 161 2 min 0,000 mm 0,0 UV-I 11 W/m 11,8 C 14,1 C 0,0 km/h (0 Bft) 97,87 %
19.07.2019 05:38 14,0 C 23,9 C 12,8 C 86 % 1013,2 hPa 0,0 l/m 0,1 km/h (0 Bft) S-SO 161 0 min 0,000 mm 0,0 UV-I 12 W/m 11,7 C 14,0 C 1,6 km/h (1 Bft) 95,74 %
19.07.2019 05:40 13,9 C 23,9 C 12,8 C 85 % 1013,2 hPa 0,0 l/m 1,1 km/h (1 Bft) S-SO 161 0 min 0,000 mm 0,0 UV-I 14 W/m 11,4 C 13,9 C 1,6 km/h (1 Bft) 96,00 %
19.07.2019 05:42 13,9 C 23,9 C 12,8 C 85 % 1013,3 hPa 0,0 l/m 0,5 km/h (0 Bft) S-SO 161 0 min 0,000 mm 0,0 UV-I 16 W/m 11,4 C 13,9 C 1,6 km/h (1 Bft) 97,87 %
19.07.2019 05:44 13,9 C 23,9 C 12,8 C 85 % 1013,3 hPa 0,0 l/m 0,2 km/h (0 Bft) S-SO 161 0 min 0,000 mm 0,0 UV-I 17 W/m 11,4 C 13,9 C 1,6 km/h (1 Bft) 95,74 %
19.07.2019 05:46 14,1 C 23,9 C 12,8 C 85 % 1013,3 hPa 0,0 l/m 0,0 km/h (0 Bft) S-SO 161 0 min 0,000 mm 0,0 UV-I 19 W/m 11,6 C 14,1 C 0,0 km/h (0 Bft) 97,87 %
19.07.2019 05:48 14,2 C 23,9 C 12,8 C 85 % 1013,3 hPa 0,0 l/m 0,0 km/h (0 Bft) S-SO 161 0 min 0,000 mm 0,0 UV-I 19 W/m 11,7 C 14,2 C 1,6 km/h (1 Bft) 91,49 %
19.07.2019 05:50 14,2 C 23,9 C 12,8 C 85 % 1013,3 hPa 0,0 l/m 0,7 km/h (0 Bft) S-SO 161 0 min 0,000 mm 0,0 UV-I 20 W/m 11,7 C 14,2 C 1,6 km/h (1 Bft) 91,49 %
19.07.2019 05:52 14,2 C 23,9 C 12,8 C 85 % 1013,3 hPa 0,0 l/m 0,9 km/h (0 Bft) S-SO 161 0 min 0,000 mm 0,0 UV-I 23 W/m 11,7 C 14,2 C 1,6 km/h (1 Bft) 97,87 %
19.07.2019 05:54 14,2 C 23,9 C 12,8 C 85 % 1013,3 hPa 0,0 l/m 1,5 km/h (1 Bft) S-SO 161 0 min 0,000 mm 0,0 UV-I 26 W/m 11,7 C 14,2 C 1,6 km/h (1 Bft) 94,74 %
19.07.2019 05:56 14,2 C 23,3 C 13,3 C 86 % 1013,3 hPa 0,0 l/m 2,3 km/h (1 Bft) S-SO 161 0 min 0,000 mm 0,0 UV-I 30 W/m 11,9 C 14,2 C 3,2 km/h (1 Bft) 100,00 %
19.07.2019 05:58 14,2 C 23,3 C 13,9 C 85 % 1013,3 hPa 0,0 l/m 2,5 km/h (1 Bft) S-SO 161 0 min 0,000 mm 0,0 UV-I 33 W/m 11,7 C 14,2 C 3,2 km/h (1 Bft) 97,87 %
19.07.2019 06:00 14,2 C 23,3 C 13,9 C 85 % 1013,3 hPa 0,0 l/m 3,1 km/h (1 Bft) S-SO 161 0 min 0,000 mm 0,0 UV-I 36 W/m 11,7 C 14,2 C 6,4 km/h (2 Bft) 95,74 %
19.07.2019 06:02 14,2 C 23,3 C 13,9 C 84 % 1013,3 hPa 0,0 l/m 4,4 km/h (1 Bft) S-SO 161 0 min 0,000 mm 0,0 UV-I 39 W/m 11,5 C 14,2 C 6,4 km/h (2 Bft) 95,83 %
19.07.2019 06:04 14,2 C 23,3 C 14,4 C 83 % 1013,3 hPa 0,0 l/m 2,5 km/h (1 Bft) S-SO 161 0 min 0,000 mm 0,0 UV-I 42 W/m 11,4 C 14,2 C 6,4 km/h (2 Bft) 95,74 %
19.07.2019 06:06 14,2 C 23,3 C 14,4 C 83 % 1013,3 hPa 0,0 l/m 1,9 km/h (1 Bft) S-SO 161 0 min 0,000 mm 0,0 UV-I 48 W/m 11,4 C 14,2 C 3,2 km/h (1 Bft) 95,74 %
19.07.2019 06:08 14,3 C 23,3 C 14,4 C 83 % 1013,3 hPa 0,0 l/m 0,1 km/h (0 Bft) S-SO 161 0 min 0,000 mm 0,0 UV-I 50 W/m 11,5 C 14,3 C 1,6 km/h (1 Bft) 98,00 %
19.07.2019 06:10 14,4 C 23,3 C 14,4 C 83 % 1013,2 hPa 0,0 l/m 0,9 km/h (0 Bft) S-SO 161 0 min 0,000 mm 0,0 UV-I 48 W/m 11,5 C 14,4 C 3,2 km/h (1 Bft) 97,87 %
19.07.2019 06:12 14,6 C 23,3 C 14,4 C 83 % 1013,3 hPa 0,0 l/m 2,3 km/h (1 Bft) S-SO 161 0 min 0,000 mm 0,0 UV-I 48 W/m 11,7 C 14,6 C 3,2 km/h (1 Bft) 97,87 %
19.07.2019 06:14 14,6 C 23,3 C 15,0 C 83 % 1013,3 hPa 0,0 l/m 1,9 km/h (1 Bft) S-SO 161 0 min 0,000 mm 0,0 UV-I 48 W/m 11,7 C 14,6 C 3,2 km/h (1 Bft) 97,87 %
19.07.2019 06:16 14,6 C 23,3 C 15,0 C 83 % 1013,3 hPa 0,0 l/m 3,4 km/h (1 Bft) S-SO 161 0 min 0,000 mm 0,0 UV-I 51 W/m 11,7 C 14,6 C 6,4 km/h (2 Bft) 97,87 %
19.07.2019 06:18 14,7 C 23,3 C 15,0 C 83 % 1013,3 hPa 0,0 l/m 1,9 km/h (1 Bft) S-SO 161 0 min 0,000 mm 0,0 UV-I 54 W/m 11,8 C 14,7 C 3,2 km/h (1 Bft) 97,87 %
19.07.2019 06:20 14,7 C 23,3 C 15,6 C 83 % 1013,3 hPa 0,0 l/m 1,6 km/h (1 Bft) S-SO 161 0 min 0,000 mm 0,0 UV-I 58 W/m 11,8 C 14,7 C 3,2 km/h (1 Bft) 95,74 %
19.07.2019 06:22 14,7 C 23,3 C 15,6 C 83 % 1013,3 hPa 0,0 l/m 2,3 km/h (1 Bft) S-SO 161 0 min 0,000 mm 0,0 UV-I 63 W/m 11,8 C 14,7 C 3,2 km/h (1 Bft) 97,87 %
19.07.2019 06:24 14,7 C 23,3 C 15,6 C 82 % 1013,3 hPa 0,0 l/m 1,9 km/h (1 Bft) S-SO 161 0 min 0,000 mm 0,0 UV-I 74 W/m 11,7 C 14,7 C 3,2 km/h (1 Bft) 95,74 %
19.07.2019 06:26 14,7 C 23,3 C 15,6 C 83 % 1013,3 hPa 0,0 l/m 1,5 km/h (1 Bft) S-SO 161 2 min 0,000 mm 0,0 UV-I 83 W/m 11,8 C 14,7 C 3,2 km/h (1 Bft) 97,37 %
19.07.2019 06:28 14,9 C 23,3 C 16,1 C 83 % 1013,3 hPa 0,0 l/m 1,2 km/h (1 Bft) S-SO 161 2 min 0,000 mm 0,0 UV-I 109 W/m 12,0 C 14,9 C 1,6 km/h (1 Bft) 95,92 %
19.07.2019 06:30 15,1 C 23,3 C 16,1 C 83 % 1013,3 hPa 0,0 l/m 0,7 km/h (0 Bft) S-SO 161 2 min 0,000 mm 0,0 UV-I 112 W/m 12,2 C 15,1 C 1,6 km/h (1 Bft) 97,87 %
19.07.2019 06:32 15,3 C 23,3 C 16,7 C 83 % 1013,3 hPa 0,0 l/m 1,1 km/h (1 Bft) S-SO 161 2 min 0,000 mm 0,0 UV-I 117 W/m 12,4 C 15,3 C 3,2 km/h (1 Bft) 95,74 %
19.07.2019 06:34 15,4 C 23,3 C 17,2 C 82 % 1013,3 hPa 0,0 l/m 1,9 km/h (1 Bft) S-SO 161 2 min 0,000 mm 0,0 UV-I 125 W/m 12,3 C 15,4 C 3,2 km/h (1 Bft) 97,87 %
19.07.2019 06:36 15,6 C 23,3 C 17,2 C 82 % 1013,3 hPa 0,0 l/m 4,5 km/h (1 Bft) S-SO 167 2 min 0,000 mm 0,0 UV-I 153 W/m 12,5 C 15,6 C 6,4 km/h (2 Bft) 97,87 %
19.07.2019 06:38 15,7 C 23,3 C 17,2 C 82 % 1013,3 hPa 0,0 l/m 4,5 km/h (1 Bft) S 173 2 min 0,000 mm 0,0 UV-I 170 W/m 12,6 C 15,7 C 6,4 km/h (2 Bft) 97,92 %
19.07.2019 06:40 15,8 C 23,3 C 17,8 C 80 % 1013,3 hPa 0,0 l/m 2,3 km/h (1 Bft) S 173 2 min 0,000 mm 0,0 UV-I 161 W/m 12,4 C 15,8 C 4,8 km/h (1 Bft) 97,87 %
19.07.2019 06:42 16,0 C 23,3 C 17,8 C 80 % 1013,4 hPa 0,0 l/m 2,1 km/h (1 Bft) S 173 2 min 0,000 mm 0,0 UV-I 165 W/m 12,5 C 16,0 C 3,2 km/h (1 Bft) 95,74 %
19.07.2019 06:44 16,2 C 23,3 C 18,3 C 79 % 1013,4 hPa 0,0 l/m 2,2 km/h (1 Bft) S 188 2 min 0,000 mm 0,0 UV-I 156 W/m 12,6 C 16,2 C 4,8 km/h (1 Bft) 97,87 %
19.07.2019 06:46 16,3 C 23,3 C 18,3 C 77 % 1013,4 hPa 0,0 l/m 3,4 km/h (1 Bft) S 189 2 min 0,000 mm 0,0 UV-I 131 W/m 12,3 C 16,3 C 4,8 km/h (1 Bft) 96,00 %
19.07.2019 06:48 16,4 C 23,3 C 18,3 C 78 % 1013,4 hPa 0,0 l/m 2,5 km/h (1 Bft) S 189 2 min 0,000 mm 0,0 UV-I 131 W/m 12,6 C 16,4 C 3,2 km/h (1 Bft) 98,00 %
19.07.2019 06:50 16,5 C 23,3 C 18,3 C 77 % 1013,4 hPa 0,0 l/m 2,9 km/h (1 Bft) S 189 2 min 0,000 mm 0,0 UV-I 124 W/m 12,5 C 16,5 C 4,8 km/h (1 Bft) 97,87 %
19.07.2019 06:52 16,6 C 23,3 C 18,3 C 77 % 1013,5 hPa 0,0 l/m 2,2 km/h (1 Bft) S 189 2 min 0,000 mm 0,0 UV-I 154 W/m 12,5 C 16,6 C 3,2 km/h (1 Bft) 97,87 %
19.07.2019 06:54 16,6 C 23,3 C 18,3 C 77 % 1013,6 hPa 0,0 l/m 1,1 km/h (1 Bft) S 189 2 min 0,000 mm 0,0 UV-I 187 W/m 12,5 C 16,6 C 3,2 km/h (1 Bft) 100,00 %
19.07.2019 06:56 16,7 C 23,3 C 18,3 C 77 % 1013,6 hPa 0,0 l/m 1,7 km/h (1 Bft) S 190 2 min 0,000 mm 0,0 UV-I 194 W/m 12,6 C 16,7 C 3,2 km/h (1 Bft) 98,00 %
19.07.2019 06:58 16,7 C 23,3 C 18,3 C 77 % 1013,5 hPa 0,0 l/m 1,2 km/h (1 Bft) S 190 2 min 0,000 mm 0,0 UV-I 184 W/m 12,6 C 16,7 C 3,2 km/h (1 Bft) 97,87 %
19.07.2019 07:00 16,8 C 23,3 C 18,3 C 77 % 1013,5 hPa 0,0 l/m 0,9 km/h (0 Bft) S 190 2 min 0,076 mm 0,0 UV-I 178 W/m 12,7 C 16,8 C 3,2 km/h (1 Bft) 100,00 %
19.07.2019 07:02 16,9 C 23,3 C 18,3 C 77 % 1013,6 hPa 0,0 l/m 0,9 km/h (0 Bft) S 190 2 min 0,000 mm 0,0 UV-I 179 W/m 12,8 C 16,9 C 1,6 km/h (1 Bft) 97,87 %
19.07.2019 07:04 17,1 C 23,3 C 18,3 C 76 % 1013,5 hPa 0,0 l/m 1,4 km/h (1 Bft) S 190 2 min 0,000 mm 0,0 UV-I 202 W/m 12,8 C 17,1 C 1,6 km/h (1 Bft) 100,00 %
19.07.2019 07:06 17,2 C 23,3 C 18,3 C 77 % 1013,5 hPa 0,0 l/m 1,8 km/h (1 Bft) S 190 2 min 0,000 mm 0,0 UV-I 204 W/m 13,1 C 17,2 C 3,2 km/h (1 Bft) 100,00 %
19.07.2019 07:08 17,3 C 23,3 C 18,9 C 76 % 1013,5 hPa 0,0 l/m 2,2 km/h (1 Bft) S 190 2 min 0,000 mm 0,0 UV-I 209 W/m 13,0 C 17,3 C 3,2 km/h (1 Bft) 97,87 %
19.07.2019 07:10 17,5 C 23,3 C 18,9 C 77 % 1013,4 hPa 0,0 l/m 1,5 km/h (1 Bft) S 190 2 min 0,000 mm 0,0 UV-I 197 W/m 13,4 C 17,5 C 3,2 km/h (1 Bft) 100,00 %
19.07.2019 07:12 17,7 C 23,3 C 18,9 C 76 % 1013,5 hPa 0,0 l/m 1,2 km/h (1 Bft) S 190 2 min 0,000 mm 0,0 UV-I 185 W/m 13,4 C 17,7 C 1,6 km/h (1 Bft) 100,00 %
19.07.2019 07:14 17,7 C 23,3 C 18,9 C 75 % 1013,5 hPa 0,0 l/m 2,0 km/h (1 Bft) S 190 2 min 0,000 mm 0,0 UV-I 179 W/m 13,2 C 17,7 C 3,2 km/h (1 Bft) 100,00 %
19.07.2019 07:16 17,8 C 23,3 C 18,9 C 75 % 1013,5 hPa 0,0 l/m 2,4 km/h (1 Bft) S 190 2 min 0,000 mm 0,0 UV-I 168 W/m 13,3 C 17,8 C 4,8 km/h (1 Bft) 100,00 %
19.07.2019 07:18 17,7 C 23,3 C 18,9 C 74 % 1013,5 hPa 0,0 l/m 4,1 km/h (1 Bft) S-SW 197 2 min 0,000 mm 0,0 UV-I 158 W/m 13,0 C 17,7 C 6,4 km/h (2 Bft) 100,00 %
19.07.2019 07:20 17,8 C 23,3 C 18,9 C 75 % 1013,5 hPa 0,0 l/m 1,5 km/h (1 Bft) S-SW 197 2 min 0,000 mm 0,0 UV-I 160 W/m 13,3 C 17,8 C 3,2 km/h (1 Bft) 100,00 %
19.07.2019 07:22 17,9 C 23,3 C 18,9 C 74 % 1013,6 hPa 0,0 l/m 3,5 km/h (1 Bft) S-SW 207 2 min 0,000 mm 0,0 UV-I 162 W/m 13,2 C 17,9 C 4,8 km/h (1 Bft) 100,00 %
19.07.2019 07:24 17,9 C 23,3 C 18,9 C 74 % 1013,6 hPa 0,0 l/m 3,1 km/h (1 Bft) S-SW 207 0 min 0,000 mm 0,0 UV-I 163 W/m 13,2 C 17,9 C 4,8 km/h (1 Bft) 100,00 %
19.07.2019 07:26 17,9 C 23,3 C 18,3 C 75 % 1013,6 hPa 0,0 l/m 3,7 km/h (1 Bft) S-SW 208 2 min 0,000 mm 0,0 UV-I 178 W/m 13,4 C 17,9 C 6,4 km/h (2 Bft) 97,87 %
19.07.2019 07:28 17,9 C 23,3 C 18,3 C 74 % 1013,6 hPa 0,0 l/m 3,4 km/h (1 Bft) S-SW 210 2 min 0,000 mm 0,0 UV-I 175 W/m 13,2 C 17,9 C 8,0 km/h (2 Bft) 100,00 %
19.07.2019 07:30 17,9 C 23,3 C 18,3 C 75 % 1013,6 hPa 0,0 l/m 1,8 km/h (1 Bft) S-SW 210 0 min 0,000 mm 0,0 UV-I 137 W/m 13,4 C 17,9 C 4,8 km/h (1 Bft) 100,00 %
19.07.2019 07:32 18,0 C 23,3 C 18,3 C 75 % 1013,6 hPa 0,0 l/m 3,1 km/h (1 Bft) S-SW 211 2 min 0,000 mm 0,4 UV-I 182 W/m 13,5 C 18,0 C 4,8 km/h (1 Bft) 100,00 %
19.07.2019 07:34 18,1 C 23,3 C 18,3 C 74 % 1013,7 hPa 0,0 l/m 3,1 km/h (1 Bft) S-SW 211 2 min 0,000 mm 0,5 UV-I 215 W/m 13,4 C 18,1 C 4,8 km/h (1 Bft) 97,87 %
19.07.2019 07:36 18,2 C 23,3 C 18,3 C 73 % 1013,7 hPa 0,0 l/m 3,1 km/h (1 Bft) SW 234 2 min 0,000 mm 0,5 UV-I 238 W/m 13,3 C 18,2 C 4,8 km/h (1 Bft) 97,87 %
19.07.2019 07:38 18,2 C 23,3 C 18,3 C 73 % 1013,7 hPa 0,0 l/m 4,0 km/h (1 Bft) SW 236 2 min 0,000 mm 0,5 UV-I 253 W/m 13,3 C 18,2 C 6,4 km/h (2 Bft) 100,00 %
19.07.2019 07:40 18,3 C 23,3 C 18,3 C 73 % 1013,7 hPa 0,0 l/m 1,4 km/h (1 Bft) SW 236 2 min 0,000 mm 0,5 UV-I 264 W/m 13,4 C 18,3 C 3,2 km/h (1 Bft) 97,87 %
19.07.2019 07:42 18,3 C 23,3 C 18,3 C 74 % 1013,8 hPa 0,0 l/m 3,5 km/h (1 Bft) W-SW 237 2 min 0,000 mm 0,6 UV-I 271 W/m 13,6 C 18,3 C 4,8 km/h (1 Bft) 97,87 %
19.07.2019 07:44 18,5 C 23,3 C 18,3 C 74 % 1013,8 hPa 0,0 l/m 2,7 km/h (1 Bft) W-SW 242 2 min 0,000 mm 0,6 UV-I 279 W/m 13,8 C 18,5 C 4,8 km/h (1 Bft) 96,23 %
19.07.2019 07:46 18,6 C 23,3 C 18,3 C 73 % 1013,9 hPa 0,0 l/m 3,0 km/h (1 Bft) W-SW 242 2 min 0,000 mm 0,6 UV-I 287 W/m 13,7 C 18,6 C 4,8 km/h (1 Bft) 100,00 %
19.07.2019 07:48 18,6 C 23,3 C 18,9 C 74 % 1013,9 hPa 0,0 l/m 2,4 km/h (1 Bft) W-SW 243 2 min 0,000 mm 0,6 UV-I 295 W/m 13,9 C 18,6 C 3,2 km/h (1 Bft) 100,00 %
19.07.2019 07:50 18,8 C 23,3 C 18,9 C 74 % 1013,9 hPa 0,0 l/m 2,2 km/h (1 Bft) W-SW 248 2 min 0,000 mm 0,7 UV-I 282 W/m 14,1 C 18,8 C 4,8 km/h (1 Bft) 100,00 %
19.07.2019 07:52 18,8 C 23,3 C 18,9 C 73 % 1014,1 hPa 0,0 l/m 3,6 km/h (1 Bft) W-NW 286 2 min 0,000 mm 0,7 UV-I 283 W/m 13,9 C 18,8 C 6,4 km/h (2 Bft) 100,00 %
19.07.2019 07:54 18,7 C 23,3 C 18,9 C 72 % 1014,2 hPa 0,0 l/m 3,4 km/h (1 Bft) W 263 2 min 0,000 mm 0,7 UV-I 314 W/m 13,5 C 18,7 C 6,4 km/h (2 Bft) 95,74 %
19.07.2019 07:56 18,7 C 23,3 C 18,9 C 72 % 1014,2 hPa 0,0 l/m 2,6 km/h (1 Bft) W 267 2 min 0,000 mm 0,7 UV-I 314 W/m 13,5 C 18,7 C 4,8 km/h (1 Bft) 97,92 %
19.07.2019 07:58 18,8 C 23,3 C 18,9 C 73 % 1014,2 hPa 0,0 l/m 1,4 km/h (1 Bft) W 267 2 min 0,000 mm 0,8 UV-I 323 W/m 13,9 C 18,8 C 4,8 km/h (1 Bft) 97,87 %
19.07.2019 08:00 18,8 C 23,3 C 18,9 C 73 % 1014,1 hPa 0,0 l/m 1,3 km/h (1 Bft) W 267 2 min 0,127 mm 0,8 UV-I 328 W/m 13,9 C 18,8 C 3,2 km/h (1 Bft) 95,74 %
19.07.2019 08:02 18,9 C 23,3 C 18,9 C 74 % 1014,1 hPa 0,0 l/m 1,2 km/h (1 Bft) W 267 2 min 0,000 mm 0,8 UV-I 335 W/m 14,2 C 18,9 C 3,2 km/h (1 Bft) 95,74 %
19.07.2019 08:04 19,0 C 23,3 C 19,4 C 74 % 1014,1 hPa 0,0 l/m 2,6 km/h (1 Bft) W 268 2 min 0,000 mm 0,8 UV-I 340 W/m 14,3 C 19,0 C 4,8 km/h (1 Bft) 95,74 %
19.07.2019 08:06 19,0 C 23,3 C 19,4 C 72 % 1014,1 hPa 0,0 l/m 3,1 km/h (1 Bft) W-NW 282 2 min 0,000 mm 0,8 UV-I 345 W/m 13,8 C 19,0 C 4,8 km/h (1 Bft) 94,74 %
19.07.2019 08:08 18,9 C 23,3 C 19,4 C 71 % 1014,2 hPa 0,0 l/m 2,8 km/h (1 Bft) W-NW 284 2 min 0,000 mm 0,8 UV-I 351 W/m 13,5 C 18,9 C 4,8 km/h (1 Bft) 93,62 %
19.07.2019 08:10 19,0 C 23,9 C 19,4 C 71 % 1014,1 hPa 0,0 l/m 1,7 km/h (1 Bft) W-NW 283 2 min 0,000 mm 0,9 UV-I 358 W/m 13,6 C 19,0 C 3,2 km/h (1 Bft) 93,62 %
19.07.2019 08:12 19,2 C 23,9 C 19,4 C 71 % 1014,1 hPa 0,0 l/m 2,2 km/h (1 Bft) W-NW 283 2 min 0,000 mm 0,9 UV-I 365 W/m 13,8 C 19,2 C 3,2 km/h (1 Bft) 93,62 %
19.07.2019 08:14 19,4 C 23,9 C 19,4 C 71 % 1014,1 hPa 0,0 l/m 2,3 km/h (1 Bft) W 279 2 min 0,000 mm 0,9 UV-I 371 W/m 14,0 C 19,4 C 4,8 km/h (1 Bft) 93,62 %
19.07.2019 08:16 19,6 C 23,9 C 20,0 C 69 % 1014,1 hPa 0,0 l/m 2,1 km/h (1 Bft) W 274 2 min 0,000 mm 1,0 UV-I 378 W/m 13,8 C 19,6 C 4,8 km/h (1 Bft) 96,00 %
19.07.2019 08:18 19,6 C 23,9 C 20,0 C 70 % 1014,1 hPa 0,0 l/m 2,2 km/h (1 Bft) W 274 2 min 0,000 mm 1,0 UV-I 386 W/m 14,0 C 19,6 C 4,8 km/h (1 Bft) 96,00 %
19.07.2019 08:20 19,7 C 23,9 C 20,0 C 68 % 1014,1 hPa 0,0 l/m 2,4 km/h (1 Bft) W 273 2 min 0,000 mm 1,0 UV-I 395 W/m 13,6 C 19,7 C 4,8 km/h (1 Bft) 93,62 %
19.07.2019 08:22 19,7 C 23,9 C 20,0 C 67 % 1014,1 hPa 0,0 l/m 0,7 km/h (0 Bft) W 273 2 min 0,000 mm 1,1 UV-I 402 W/m 13,4 C 19,7 C 1,6 km/h (1 Bft) 94,00 %
19.07.2019 08:24 19,8 C 23,9 C 20,6 C 70 % 1014,2 hPa 0,0 l/m 2,1 km/h (1 Bft) W 275 2 min 0,000 mm 1,1 UV-I 412 W/m 14,2 C 19,8 C 3,2 km/h (1 Bft) 95,74 %
19.07.2019 08:26 19,9 C 23,9 C 20,6 C 68 % 1014,2 hPa 0,0 l/m 3,1 km/h (1 Bft) W-NW 292 2 min 0,000 mm 1,1 UV-I 427 W/m 13,8 C 19,9 C 4,8 km/h (1 Bft) 97,14 %
19.07.2019 08:28 20,0 C 23,9 C 20,6 C 66 % 1014,2 hPa 0,0 l/m 2,3 km/h (1 Bft) W-NW 292 2 min 0,000 mm 1,2 UV-I 442 W/m 13,4 C 20,0 C 3,2 km/h (1 Bft) 95,74 %
19.07.2019 08:30 20,2 C 23,9 C 21,1 C 66 % 1014,2 hPa 0,0 l/m 1,6 km/h (1 Bft) W-NW 292 2 min 0,000 mm 1,2 UV-I 440 W/m 13,6 C 20,2 C 3,2 km/h (1 Bft) 97,92 %
19.07.2019 08:32 20,3 C 23,9 C 21,1 C 66 % 1014,2 hPa 0,0 l/m 4,2 km/h (1 Bft) N-NW 329 2 min 0,000 mm 1,2 UV-I 438 W/m 13,7 C 20,3 C 6,4 km/h (2 Bft) 95,74 %
19.07.2019 08:34 20,4 C 23,9 C 21,1 C 65 % 1014,2 hPa 0,0 l/m 3,7 km/h (1 Bft) N-NW 330 2 min 0,000 mm 1,2 UV-I 456 W/m 13,6 C 20,4 C 6,4 km/h (2 Bft) 94,00 %
19.07.2019 08:36 20,6 C 23,3 C 21,1 C 64 % 1014,1 hPa 0,0 l/m 2,9 km/h (1 Bft) N-NW 337 2 min 0,000 mm 1,2 UV-I 407 W/m 13,5 C 20,6 C 4,8 km/h (1 Bft) 97,87 %
19.07.2019 08:38 20,7 C 23,9 C 21,1 C 65 % 1014,2 hPa 0,0 l/m 2,3 km/h (1 Bft) N-NW 337 2 min 0,000 mm 1,2 UV-I 415 W/m 13,9 C 20,7 C 4,8 km/h (1 Bft) 95,74 %
19.07.2019 08:40 20,7 C 23,9 C 21,7 C 65 % 1014,2 hPa 0,0 l/m 3,1 km/h (1 Bft) W 279 2 min 0,000 mm 1,3 UV-I 479 W/m 13,9 C 20,7 C 6,4 km/h (2 Bft) 96,00 %
19.07.2019 08:42 20,5 C 23,9 C 22,2 C 63 % 1014,3 hPa 0,0 l/m 3,8 km/h (1 Bft) W 279 2 min 0,000 mm 1,3 UV-I 465 W/m 13,2 C 20,5 C 6,4 km/h (2 Bft) 97,87 %
19.07.2019 08:44 20,4 C 23,9 C 22,2 C 64 % 1014,3 hPa 0,0 l/m 3,3 km/h (1 Bft) W-NW 293 2 min 0,000 mm 1,3 UV-I 493 W/m 13,4 C 20,4 C 6,4 km/h (2 Bft) 97,87 %
19.07.2019 08:46 20,5 C 23,9 C 22,2 C 64 % 1014,2 hPa 0,0 l/m 3,0 km/h (1 Bft) NW 314 2 min 0,000 mm 1,3 UV-I 440 W/m 13,5 C 20,5 C 6,4 km/h (2 Bft) 97,87 %
19.07.2019 08:48 20,6 C 23,9 C 22,2 C 63 % 1014,3 hPa 0,0 l/m 4,0 km/h (1 Bft) NW 311 2 min 0,000 mm 1,2 UV-I 322 W/m 13,3 C 20,6 C 6,4 km/h (2 Bft) 97,87 %
19.07.2019 08:50 20,6 C 23,3 C 22,2 C 64 % 1014,3 hPa 0,0 l/m 3,1 km/h (1 Bft) NW 309 0 min 0,000 mm 1,2 UV-I 247 W/m 13,5 C 20,6 C 4,8 km/h (1 Bft) 97,87 %
19.07.2019 08:52 20,4 C 23,3 C 22,2 C 64 % 1014,3 hPa 0,0 l/m 2,2 km/h (1 Bft) NW 309 0 min 0,000 mm 1,2 UV-I 260 W/m 13,4 C 20,4 C 3,2 km/h (1 Bft) 97,87 %
19.07.2019 08:54 20,3 C 23,3 C 22,2 C 65 % 1014,4 hPa 0,0 l/m 2,9 km/h (1 Bft) NW 306 0 min 0,000 mm 1,3 UV-I 262 W/m 13,5 C 20,3 C 4,8 km/h (1 Bft) 95,74 %
19.07.2019 08:56 20,3 C 23,3 C 22,2 C 67 % 1014,4 hPa 0,0 l/m 3,8 km/h (1 Bft) W 271 0 min 0,000 mm 1,3 UV-I 223 W/m 14,0 C 20,3 C 4,8 km/h (1 Bft) 97,87 %
19.07.2019 08:58 20,3 C 23,9 C 22,2 C 65 % 1014,3 hPa 0,0 l/m 1,6 km/h (1 Bft) W 271 0 min 0,000 mm 1,3 UV-I 247 W/m 13,5 C 20,3 C 3,2 km/h (1 Bft) 94,29 %
19.07.2019 09:00 20,3 C 23,9 C 23,3 C 67 % 1014,3 hPa 0,0 l/m 1,7 km/h (1 Bft) W 271 2 min 0,229 mm 1,4 UV-I 324 W/m 14,0 C 20,3 C 4,8 km/h (1 Bft) 98,00 %
19.07.2019 09:02 20,5 C 23,9 C 23,9 C 65 % 1014,3 hPa 0,0 l/m 3,8 km/h (1 Bft) W 271 2 min 0,000 mm 1,5 UV-I 380 W/m 13,7 C 20,5 C 4,8 km/h (1 Bft) 97,87 %
19.07.2019 09:04 20,6 C 23,9 C 24,4 C 65 % 1014,4 hPa 0,0 l/m 3,1 km/h (1 Bft) W 271 2 min 0,000 mm 1,5 UV-I 400 W/m 13,8 C 20,6 C 4,8 km/h (1 Bft) 97,87 %
19.07.2019 09:06 20,6 C 23,9 C 25,0 C 63 % 1014,4 hPa 0,0 l/m 1,9 km/h (1 Bft) W 271 2 min 0,000 mm 1,5 UV-I 335 W/m 13,3 C 20,6 C 3,2 km/h (1 Bft) 91,67 %
19.07.2019 09:08 20,6 C 23,9 C 26,1 C 65 % 1014,4 hPa 0,0 l/m 2,9 km/h (1 Bft) W 271 2 min 0,000 mm 1,6 UV-I 393 W/m 13,8 C 20,6 C 4,8 km/h (1 Bft) 97,96 %
19.07.2019 09:10 20,7 C 23,9 C 28,3 C 64 % 1014,4 hPa 0,0 l/m 3,0 km/h (1 Bft) W 271 2 min 0,000 mm 1,8 UV-I 456 W/m 13,6 C 20,7 C 4,8 km/h (1 Bft) 95,83 %
19.07.2019 09:12 20,9 C 23,9 C 29,4 C 64 % 1014,3 hPa 0,0 l/m 2,4 km/h (1 Bft) W 271 2 min 0,000 mm 1,9 UV-I 584 W/m 13,8 C 20,9 C 4,8 km/h (1 Bft) 98,00 %
19.07.2019 09:14 21,0 C 23,9 C 31,1 C 63 % 1014,3 hPa 0,0 l/m 4,0 km/h (1 Bft) NW 323 2 min 0,000 mm 1,9 UV-I 587 W/m 13,7 C 21,0 C 6,4 km/h (2 Bft) 97,87 %
19.07.2019 09:16 21,2 C 23,9 C 32,2 C 62 % 1014,3 hPa 0,0 l/m 2,9 km/h (1 Bft) W 265 2 min 0,000 mm 2,0 UV-I 613 W/m 13,6 C 21,2 C 4,8 km/h (1 Bft) 97,87 %
19.07.2019 09:18 21,4 C 23,9 C 33,3 C 64 % 1014,3 hPa 0,0 l/m 3,4 km/h (1 Bft) W-SW 251 2 min 0,000 mm 2,1 UV-I 646 W/m 14,3 C 21,4 C 6,4 km/h (2 Bft) 97,87 %
19.07.2019 09:20 21,6 C 23,9 C 33,3 C 60 % 1014,3 hPa 0,0 l/m 3,9 km/h (1 Bft) W 265 2 min 0,000 mm 2,2 UV-I 681 W/m 13,5 C 21,6 C 6,4 km/h (2 Bft) 97,56 %
19.07.2019 09:22 21,7 C 23,9 C 34,4 C 61 % 1014,3 hPa 0,0 l/m 4,0 km/h (1 Bft) W 259 2 min 0,000 mm 2,2 UV-I 700 W/m 13,8 C 21,7 C 9,7 km/h (2 Bft) 95,74 %
19.07.2019 09:24 21,8 C 23,9 C 35,0 C 60 % 1014,3 hPa 0,0 l/m 3,9 km/h (1 Bft) NW 315 2 min 0,000 mm 2,2 UV-I 720 W/m 13,7 C 21,8 C 8,0 km/h (2 Bft) 97,87 %
19.07.2019 09:26 22,1 C 23,9 C 35,6 C 62 % 1014,3 hPa 0,0 l/m 3,7 km/h (1 Bft) NW 314 2 min 0,000 mm 2,2 UV-I 733 W/m 14,5 C 22,1 C 4,8 km/h (1 Bft) 95,74 %
19.07.2019 09:28 22,2 C 23,9 C 36,1 C 57 % 1014,3 hPa 0,0 l/m 5,4 km/h (1 Bft) W-NW 291 2 min 0,000 mm 2,2 UV-I 733 W/m 13,3 C 22,2 C 11,3 km/h (2 Bft) 92,00 %
19.07.2019 09:30 22,3 C 23,9 C 34,4 C 58 % 1014,3 hPa 0,0 l/m 6,2 km/h (2 Bft) W-NW 284 2 min 0,000 mm 1,8 UV-I 579 W/m 13,6 C 22,3 C 11,3 km/h (2 Bft) 95,74 %
19.07.2019 09:32 22,3 C 23,9 C 32,2 C 57 % 1014,3 hPa 0,0 l/m 5,8 km/h (2 Bft) W-NW 284 0 min 0,000 mm 1,6 UV-I 329 W/m 13,4 C 22,3 C 9,7 km/h (2 Bft) 95,74 %
19.07.2019 09:34 22,2 C 23,9 C 30,0 C 58 % 1014,3 hPa 0,0 l/m 7,4 km/h (2 Bft) W 267 0 min 0,000 mm 1,6 UV-I 313 W/m 13,5 C 21,9 C 12,9 km/h (3 Bft) 95,74 %
19.07.2019 09:36 22,1 C 23,9 C 28,3 C 59 % 1014,3 hPa 0,0 l/m 5,1 km/h (1 Bft) NW 320 0 min 0,000 mm 1,6 UV-I 311 W/m 13,7 C 22,1 C 9,7 km/h (2 Bft) 96,00 %
19.07.2019 09:38 21,9 C 23,9 C 27,8 C 59 % 1014,3 hPa 0,0 l/m 5,1 km/h (1 Bft) W-NW 288 0 min 0,000 mm 1,7 UV-I 323 W/m 13,5 C 21,9 C 9,7 km/h (2 Bft) 95,74 %
19.07.2019 09:40 21,8 C 23,9 C 27,2 C 59 % 1014,3 hPa 0,0 l/m 6,2 km/h (2 Bft) SW 234 0 min 0,000 mm 1,7 UV-I 335 W/m 13,4 C 21,8 C 9,7 km/h (2 Bft) 95,74 %
19.07.2019 09:42 21,9 C 23,9 C 27,2 C 60 % 1014,3 hPa 0,0 l/m 5,0 km/h (1 Bft) W-SW 240 2 min 0,000 mm 1,8 UV-I 357 W/m 13,8 C 21,9 C 8,0 km/h (2 Bft) 97,37 %
19.07.2019 09:44 21,9 C 23,9 C 27,2 C 58 % 1014,3 hPa 0,0 l/m 4,6 km/h (1 Bft) W-SW 246 2 min 0,000 mm 2,0 UV-I 410 W/m 13,3 C 21,9 C 6,4 km/h (2 Bft) 98,00 %
19.07.2019 09:46 21,9 C 23,9 C 28,3 C 60 % 1014,3 hPa 0,0 l/m 6,7 km/h (2 Bft) W-SW 252 2 min 0,000 mm 2,1 UV-I 454 W/m 13,8 C 21,8 C 11,3 km/h (2 Bft) 93,62 %
19.07.2019 09:48 22,1 C 23,9 C 29,4 C 59 % 1014,3 hPa 0,0 l/m 3,4 km/h (1 Bft) W-NW 286 2 min 0,000 mm 2,2 UV-I 533 W/m 13,7 C 22,1 C 6,4 km/h (2 Bft) 95,83 %
19.07.2019 09:50 22,3 C 23,9 C 30,6 C 59 % 1014,3 hPa 0,0 l/m 3,3 km/h (1 Bft) W-SW 244 2 min 0,000 mm 2,3 UV-I 579 W/m 13,9 C 22,3 C 4,8 km/h (1 Bft) 97,96 %
19.07.2019 09:52 22,4 C 23,9 C 31,1 C 56 % 1014,3 hPa 0,0 l/m 8,5 km/h (2 Bft) W-SW 252 2 min 0,000 mm 2,3 UV-I 561 W/m 13,2 C 21,7 C 12,9 km/h (3 Bft) 100,00 %
19.07.2019 09:54 22,4 C 23,9 C 31,1 C 56 % 1014,3 hPa 0,0 l/m 4,6 km/h (1 Bft) SW 228 2 min 0,000 mm 2,4 UV-I 587 W/m 13,2 C 22,4 C 8,0 km/h (2 Bft) 100,00 %
19.07.2019 09:56 22,5 C 23,9 C 31,1 C 57 % 1014,3 hPa 0,0 l/m 3,0 km/h (1 Bft) SW 222 2 min 0,000 mm 2,2 UV-I 520 W/m 13,5 C 22,5 C 8,0 km/h (2 Bft) 97,37 %
19.07.2019 09:58 22,5 C 23,9 C 30,6 C 56 % 1014,4 hPa 0,0 l/m 7,4 km/h (2 Bft) W-SW 250 2 min 0,000 mm 2,3 UV-I 460 W/m 13,3 C 22,2 C 14,5 km/h (3 Bft) 95,74 %
19.07.2019 10:00 22,6 C 23,9 C 32,2 C 60 % 1014,3 hPa 0,0 l/m 6,5 km/h (2 Bft) W-NW 291 2 min 0,330 mm 2,6 UV-I 536 W/m 14,4 C 22,6 C 11,3 km/h (2 Bft) 95,74 %
19.07.2019 10:02 22,7 C 23,9 C 33,9 C 58 % 1014,3 hPa 0,0 l/m 6,8 km/h (2 Bft) W 273 2 min 0,000 mm 2,9 UV-I 783 W/m 14,0 C 22,6 C 14,5 km/h (3 Bft) 97,87 %
19.07.2019 10:04 22,8 C 23,9 C 35,0 C 56 % 1014,3 hPa 0,0 l/m 5,3 km/h (1 Bft) W 268 2 min 0,000 mm 2,9 UV-I 849 W/m 13,6 C 22,8 C 12,9 km/h (3 Bft) 96,43 %
19.07.2019 10:06 22,9 C 23,9 C 36,1 C 57 % 1014,3 hPa 0,0 l/m 6,6 km/h (2 Bft) W 261 2 min 0,000 mm 2,9 UV-I 823 W/m 13,9 C 22,8 C 11,3 km/h (2 Bft) 100,00 %
19.07.2019 10:08 23,1 C 23,9 C 36,1 C 55 % 1014,3 hPa 0,0 l/m 3,2 km/h (1 Bft) N-NW 338 2 min 0,000 mm 2,7 UV-I 695 W/m 13,6 C 23,1 C 6,4 km/h (2 Bft) 94,12 %
19.07.2019 10:10 23,3 C 23,9 C 34,4 C 57 % 1014,3 hPa 0,0 l/m 4,3 km/h (1 Bft) N-NW 333 2 min 0,000 mm 2,4 UV-I 701 W/m 14,3 C 23,3 C 8,0 km/h (2 Bft) 97,87 %
19.07.2019 10:12 23,3 C 23,9 C 33,3 C 57 % 1014,3 hPa 0,0 l/m 3,2 km/h (1 Bft) NW 314 2 min 0,000 mm 2,3 UV-I 500 W/m 14,3 C 23,3 C 4,8 km/h (1 Bft) 98,00 %
19.07.2019 10:14 23,2 C 23,9 C 32,2 C 56 % 1014,3 hPa 0,0 l/m 3,3 km/h (1 Bft) W-NW 295 2 min 0,000 mm 2,2 UV-I 435 W/m 13,9 C 23,2 C 6,4 km/h (2 Bft) 98,00 %
19.07.2019 10:16 23,1 C 23,9 C 31,7 C 56 % 1014,3 hPa 0,0 l/m 2,7 km/h (1 Bft) W-NW 295 2 min 0,000 mm 2,3 UV-I 437 W/m 13,8 C 23,1 C 4,8 km/h (1 Bft) 97,37 %
19.07.2019 10:18 23,0 C 23,9 C 32,2 C 56 % 1014,3 hPa 0,0 l/m 3,9 km/h (1 Bft) W 281 2 min 0,000 mm 2,6 UV-I 484 W/m 13,7 C 23,0 C 6,4 km/h (2 Bft) 97,87 %
19.07.2019 10:20 23,0 C 23,9 C 32,8 C 57 % 1014,4 hPa 0,0 l/m 2,2 km/h (1 Bft) W-NW 291 2 min 0,000 mm 2,8 UV-I 595 W/m 14,0 C 23,0 C 4,8 km/h (1 Bft) 95,83 %
19.07.2019 10:22 23,1 C 23,9 C 33,3 C 57 % 1014,3 hPa 0,0 l/m 4,0 km/h (1 Bft) NO 42 2 min 0,000 mm 2,7 UV-I 593 W/m 14,1 C 23,1 C 6,4 km/h (2 Bft) 98,00 %
19.07.2019 10:24 23,4 C 23,9 C 33,3 C 57 % 1014,4 hPa 0,0 l/m 2,4 km/h (1 Bft) SW 222 2 min 0,000 mm 2,5 UV-I 496 W/m 14,4 C 23,4 C 4,8 km/h (1 Bft) 91,84 %
19.07.2019 10:26 23,5 C 23,9 C 32,8 C 56 % 1014,4 hPa 0,0 l/m 4,1 km/h (1 Bft) W-NW 284 2 min 0,000 mm 2,3 UV-I 456 W/m 14,2 C 23,5 C 9,7 km/h (2 Bft) 95,83 %
19.07.2019 10:28 23,4 C 23,9 C 31,1 C 55 % 1014,4 hPa 0,0 l/m 6,4 km/h (2 Bft) W-NW 286 2 min 0,000 mm 2,2 UV-I 432 W/m 13,8 C 23,4 C 11,3 km/h (2 Bft) 100,00 %
19.07.2019 10:30 23,2 C 23,9 C 30,6 C 56 % 1014,4 hPa 0,0 l/m 3,3 km/h (1 Bft) W 279 0 min 0,000 mm 2,0 UV-I 392 W/m 13,9 C 23,2 C 6,4 km/h (2 Bft) 97,87 %
19.07.2019 10:32 23,1 C 23,9 C 29,4 C 57 % 1014,4 hPa 0,0 l/m 6,5 km/h (2 Bft) N-NW 347 0 min 0,000 mm 1,8 UV-I 350 W/m 14,1 C 23,1 C 9,7 km/h (2 Bft) 100,00 %
19.07.2019 10:34 23,2 C 23,9 C 28,3 C 55 % 1014,5 hPa 0,0 l/m 4,5 km/h (1 Bft) N 11 0 min 0,000 mm 1,7 UV-I 322 W/m 13,6 C 23,2 C 6,4 km/h (2 Bft) 97,87 %
19.07.2019 10:36 23,1 C 23,9 C 27,8 C 56 % 1014,5 hPa 0,0 l/m 3,3 km/h (1 Bft) N-NO 26 0 min 0,000 mm 1,6 UV-I 303 W/m 13,8 C 23,1 C 6,4 km/h (2 Bft) 98,00 %
19.07.2019 10:38 23,2 C 23,9 C 27,8 C 58 % 1014,5 hPa 0,0 l/m 2,8 km/h (1 Bft) N-NO 16 0 min 0,000 mm 1,5 UV-I 288 W/m 14,5 C 23,2 C 6,4 km/h (2 Bft) 100,00 %
19.07.2019 10:40 23,1 C 23,9 C 27,2 C 56 % 1014,4 hPa 0,0 l/m 4,9 km/h (1 Bft) N-NO 17 0 min 0,000 mm 1,5 UV-I 279 W/m 13,8 C 23,1 C 6,4 km/h (2 Bft) 100,00 %
19.07.2019 10:42 23,0 C 23,9 C 26,7 C 58 % 1014,4 hPa 0,0 l/m 4,5 km/h (1 Bft) N-NO 26 0 min 0,000 mm 1,6 UV-I 276 W/m 14,3 C 23,0 C 8,0 km/h (2 Bft) 97,87 %
19.07.2019 10:44 23,0 C 23,9 C 26,7 C 59 % 1014,5 hPa 0,0 l/m 3,3 km/h (1 Bft) N 351 0 min 0,000 mm 1,6 UV-I 278 W/m 14,5 C 23,0 C 4,8 km/h (1 Bft) 100,00 %
19.07.2019 10:46 23,0 C 23,9 C 26,7 C 58 % 1014,5 hPa 0,0 l/m 4,5 km/h (1 Bft) N-NO 24 0 min 0,000 mm 1,7 UV-I 291 W/m 14,3 C 23,0 C 8,0 km/h (2 Bft) 100,00 %
19.07.2019 10:48 23,0 C 23,9 C 26,7 C 58 % 1014,5 hPa 0,0 l/m 5,2 km/h (1 Bft) N 5 0 min 0,000 mm 1,9 UV-I 312 W/m 14,3 C 23,0 C 8,0 km/h (2 Bft) 100,00 %
19.07.2019 10:50 22,9 C 23,9 C 26,7 C 57 % 1014,5 hPa 0,0 l/m 6,3 km/h (2 Bft) N 355 0 min 0,000 mm 2,0 UV-I 338 W/m 13,9 C 22,9 C 9,7 km/h (2 Bft) 97,87 %
19.07.2019 10:52 23,1 C 23,9 C 27,2 C 57 % 1014,5 hPa 0,0 l/m 5,1 km/h (1 Bft) N 5 0 min 0,000 mm 2,0 UV-I 336 W/m 14,1 C 23,1 C 8,0 km/h (2 Bft) 97,37 %
19.07.2019 10:54 23,1 C 23,9 C 27,2 C 57 % 1014,4 hPa 0,0 l/m 3,4 km/h (1 Bft) N 5 0 min 0,000 mm 2,1 UV-I 333 W/m 14,1 C 23,1 C 4,8 km/h (1 Bft) 100,00 %
19.07.2019 10:56 23,1 C 23,9 C 27,2 C 58 % 1014,4 hPa 0,0 l/m 3,4 km/h (1 Bft) N 360 0 min 0,000 mm 2,2 UV-I 352 W/m 14,4 C 23,1 C 6,4 km/h (2 Bft) 100,00 %
19.07.2019 10:58 22,9 C 23,9 C 27,8 C 58 % 1014,5 hPa 0,0 l/m 2,8 km/h (1 Bft) N-NW 342 0 min 0,000 mm 2,3 UV-I 364 W/m 14,2 C 22,9 C 4,8 km/h (1 Bft) 93,62 %
19.07.2019 11:00 22,9 C 23,9 C 28,3 C 57 % 1014,4 hPa 0,0 l/m 3,0 km/h (1 Bft) N-NO 27 0 min 0,305 mm 2,3 UV-I 368 W/m 13,9 C 22,9 C 4,8 km/h (1 Bft) 98,11 %
19.07.2019 11:02 23,1 C 23,9 C 28,9 C 59 % 1014,4 hPa 0,0 l/m 3,4 km/h (1 Bft) N-NO 27 0 min 0,000 mm 2,5 UV-I 410 W/m 14,6 C 23,1 C 4,8 km/h (1 Bft) 97,87 %
19.07.2019 11:04 23,2 C 23,9 C 29,4 C 58 % 1014,4 hPa 0,0 l/m 3,1 km/h (1 Bft) N-NW 341 2 min 0,000 mm 2,7 UV-I 464 W/m 14,5 C 23,2 C 4,8 km/h (1 Bft) 97,92 %
19.07.2019 11:06 23,2 C 23,9 C 29,4 C 58 % 1014,4 hPa 0,0 l/m 3,7 km/h (1 Bft) N-NW 336 2 min 0,000 mm 2,7 UV-I 449 W/m 14,5 C 23,2 C 6,4 km/h (2 Bft) 97,87 %
19.07.2019 11:08 23,2 C 23,9 C 30,0 C 58 % 1014,4 hPa 0,0 l/m 3,3 km/h (1 Bft) N-NW 341 2 min 0,000 mm 2,9 UV-I 502 W/m 14,5 C 23,2 C 4,8 km/h (1 Bft) 97,37 %
19.07.2019 11:10 23,4 C 23,9 C 31,7 C 58 % 1014,4 hPa 0,0 l/m 3,8 km/h (1 Bft) NO 38 2 min 0,000 mm 3,3 UV-I 637 W/m 14,7 C 23,4 C 6,4 km/h (2 Bft) 97,87 %
19.07.2019 11:12 23,7 C 23,9 C 32,8 C 59 % 1014,4 hPa 0,0 l/m 4,1 km/h (1 Bft) N 5 2 min 0,000 mm 3,3 UV-I 612 W/m 15,2 C 23,7 C 6,4 km/h (2 Bft) 97,87 %
19.07.2019 11:14 23,7 C 23,9 C 32,8 C 58 % 1014,4 hPa 0,0 l/m 5,2 km/h (1 Bft) O-NO 61 2 min 0,000 mm 3,4 UV-I 613 W/m 14,9 C 23,7 C 6,4 km/h (2 Bft) 98,00 %
19.07.2019 11:16 23,9 C 23,9 C 33,9 C 57 % 1014,4 hPa 0,0 l/m 5,7 km/h (1 Bft) N-NW 342 2 min 0,000 mm 3,6 UV-I 723 W/m 14,9 C 23,9 C 8,0 km/h (2 Bft) 97,87 %
19.07.2019 11:18 23,9 C 23,9 C 33,9 C 57 % 1014,4 hPa 0,0 l/m 5,4 km/h (1 Bft) N 5 2 min 0,000 mm 3,4 UV-I 736 W/m 14,9 C 23,9 C 11,3 km/h (2 Bft) 97,87 %
19.07.2019 11:20 23,9 C 23,9 C 33,9 C 57 % 1014,4 hPa 0,0 l/m 4,9 km/h (1 Bft) N 5 2 min 0,000 mm 2,9 UV-I 578 W/m 14,9 C 23,9 C 8,0 km/h (2 Bft) 93,62 %
19.07.2019 11:22 24,0 C 23,9 C 32,8 C 57 % 1014,3 hPa 0,0 l/m 5,7 km/h (1 Bft) NO 34 0 min 0,000 mm 2,3 UV-I 431 W/m 14,9 C 24,0 C 8,0 km/h (2 Bft) 97,87 %
19.07.2019 11:24 23,9 C 23,9 C 30,6 C 55 % 1014,3 hPa 0,0 l/m 5,1 km/h (1 Bft) NO 45 0 min 0,000 mm 1,7 UV-I 294 W/m 14,3 C 23,9 C 8,0 km/h (2 Bft) 95,74 %
19.07.2019 11:26 23,6 C 23,9 C 29,4 C 56 % 1014,3 hPa 0,0 l/m 2,3 km/h (1 Bft) NO 45 0 min 0,000 mm 1,5 UV-I 248 W/m 14,3 C 23,6 C 4,8 km/h (1 Bft) 100,00 %
19.07.2019 11:28 23,3 C 23,9 C 28,9 C 57 % 1014,3 hPa 0,0 l/m 3,3 km/h (1 Bft) N 355 0 min 0,000 mm 1,4 UV-I 226 W/m 14,3 C 23,3 C 4,8 km/h (1 Bft) 100,00 %
19.07.2019 11:30 23,3 C 23,9 C 27,8 C 57 % 1014,3 hPa 0,0 l/m 2,6 km/h (1 Bft) N-NW 340 0 min 0,000 mm 1,3 UV-I 216 W/m 14,3 C 23,3 C 4,8 km/h (1 Bft) 100,00 %
19.07.2019 11:32 23,2 C 23,9 C 27,2 C 59 % 1014,4 hPa 0,0 l/m 4,5 km/h (1 Bft) N-NW 342 0 min 0,000 mm 1,3 UV-I 215 W/m 14,7 C 23,2 C 6,4 km/h (2 Bft) 97,87 %
19.07.2019 11:34 23,1 C 23,9 C 26,7 C 59 % 1014,4 hPa 0,0 l/m 3,7 km/h (1 Bft) N-NW 343 0 min 0,000 mm 1,4 UV-I 223 W/m 14,6 C 23,1 C 4,8 km/h (1 Bft) 98,00 %
19.07.2019 11:36 23,1 C 23,9 C 26,1 C 59 % 1014,3 hPa 0,0 l/m 3,7 km/h (1 Bft) N 355 0 min 0,000 mm 1,5 UV-I 236 W/m 14,6 C 23,1 C 4,8 km/h (1 Bft) 97,87 %
19.07.2019 11:38 23,2 C 23,9 C 26,1 C 59 % 1014,3 hPa 0,0 l/m 4,9 km/h (1 Bft) N 11 0 min 0,000 mm 1,6 UV-I 251 W/m 14,7 C 23,2 C 6,4 km/h (2 Bft) 97,92 %
19.07.2019 11:40 23,2 C 23,9 C 26,1 C 58 % 1014,3 hPa 0,0 l/m 4,3 km/h (1 Bft) N-NO 32 0 min 0,000 mm 1,6 UV-I 264 W/m 14,5 C 23,2 C 6,4 km/h (2 Bft) 97,87 %
19.07.2019 11:42 23,2 C 23,9 C 26,1 C 58 % 1014,3 hPa 0,0 l/m 4,8 km/h (1 Bft) N-NO 32 0 min 0,000 mm 1,6 UV-I 270 W/m 14,5 C 23,2 C 6,4 km/h (2 Bft) 100,00 %
19.07.2019 11:44 23,2 C 23,9 C 26,1 C 58 % 1014,3 hPa 0,0 l/m 3,4 km/h (1 Bft) N-NO 32 0 min 0,000 mm 1,6 UV-I 251 W/m 14,5 C 23,2 C 4,8 km/h (1 Bft) 100,00 %
19.07.2019 11:46 23,2 C 23,9 C 26,1 C 57 % 1014,3 hPa 0,0 l/m 3,6 km/h (1 Bft) N-NO 31 0 min 0,000 mm 1,5 UV-I 235 W/m 14,2 C 23,2 C 4,8 km/h (1 Bft) 100,00 %
19.07.2019 11:48 23,2 C 23,9 C 26,1 C 58 % 1014,3 hPa 0,0 l/m 2,7 km/h (1 Bft) N-NO 31 0 min 0,000 mm 1,4 UV-I 225 W/m 14,5 C 23,2 C 4,8 km/h (1 Bft) 98,00 %
19.07.2019 11:50 23,1 C 23,9 C 26,1 C 57 % 1014,3 hPa 0,0 l/m 2,6 km/h (1 Bft) N-NO 31 0 min 0,000 mm 1,4 UV-I 220 W/m 14,1 C 23,1 C 4,8 km/h (1 Bft) 100,00 %
19.07.2019 11:52 23,2 C 23,9 C 26,1 C 58 % 1014,3 hPa 0,0 l/m 3,9 km/h (1 Bft) N-NO 26 0 min 0,000 mm 1,4 UV-I 223 W/m 14,5 C 23,2 C 4,8 km/h (1 Bft) 96,00 %
19.07.2019 11:54 23,2 C 23,9 C 26,1 C 58 % 1014,3 hPa 0,0 l/m 4,3 km/h (1 Bft) N-NO 24 0 min 0,000 mm 1,5 UV-I 229 W/m 14,5 C 23,2 C 6,4 km/h (2 Bft) 97,87 %
19.07.2019 11:56 23,2 C 23,9 C 25,6 C 58 % 1014,3 hPa 0,0 l/m 4,1 km/h (1 Bft) N-NO 24 0 min 0,000 mm 1,5 UV-I 235 W/m 14,5 C 23,2 C 6,4 km/h (2 Bft) 95,74 %
19.07.2019 11:58 23,2 C 23,9 C 25,6 C 58 % 1014,3 hPa 0,0 l/m 4,4 km/h (1 Bft) N-NO 25 0 min 0,000 mm 1,5 UV-I 237 W/m 14,5 C 23,2 C 6,4 km/h (2 Bft) 98,00 %
19.07.2019 12:00 23,1 C 23,9 C 25,6 C 58 % 1014,3 hPa 0,0 l/m 3,4 km/h (1 Bft) N-NO 24 0 min 0,254 mm 1,5 UV-I 237 W/m 14,4 C 23,1 C 4,8 km/h (1 Bft) 97,87 %
19.07.2019 12:02 23,1 C 23,9 C 26,1 C 58 % 1014,3 hPa 0,0 l/m 2,9 km/h (1 Bft) N-NO 25 0 min 0,000 mm 1,5 UV-I 238 W/m 14,4 C 23,1 C 4,8 km/h (1 Bft) 98,00 %
19.07.2019 12:04 23,1 C 23,9 C 26,1 C 59 % 1014,3 hPa 0,0 l/m 2,4 km/h (1 Bft) N-NO 21 0 min 0,000 mm 1,6 UV-I 243 W/m 14,6 C 23,1 C 4,8 km/h (1 Bft) 97,87 %
19.07.2019 12:06 23,0 C 23,9 C 26,1 C 57 % 1014,3 hPa 0,0 l/m 1,9 km/h (1 Bft) NO 36 0 min 0,000 mm 1,6 UV-I 252 W/m 14,0 C 23,0 C 3,2 km/h (1 Bft) 97,37 %
19.07.2019 12:08 22,9 C 23,9 C 26,1 C 59 % 1014,4 hPa 0,0 l/m 1,7 km/h (1 Bft) NO 36 0 min 0,000 mm 1,7 UV-I 268 W/m 14,5 C 22,9 C 3,2 km/h (1 Bft) 93,62 %
19.07.2019 12:10 23,0 C 23,9 C 26,7 C 56 % 1014,4 hPa 0,0 l/m 0,6 km/h (0 Bft) NO 36 0 min 0,000 mm 1,8 UV-I 280 W/m 13,7 C 23,0 C 1,6 km/h (1 Bft) 97,87 %
19.07.2019 12:12 23,0 C 23,9 C 26,7 C 58 % 1014,4 hPa 0,0 l/m 1,4 km/h (1 Bft) NO 36 0 min 0,000 mm 1,8 UV-I 275 W/m 14,3 C 23,0 C 3,2 km/h (1 Bft) 98,00 %
19.07.2019 12:14 23,2 C 23,9 C 26,7 C 58 % 1014,4 hPa 0,0 l/m 2,9 km/h (1 Bft) NO 36 0 min 0,000 mm 1,7 UV-I 259 W/m 14,5 C 23,2 C 4,8 km/h (1 Bft) 97,87 %
19.07.2019 12:16 23,3 C 23,9 C 26,1 C 58 % 1014,4 hPa 0,0 l/m 3,5 km/h (1 Bft) NO 36 0 min 0,000 mm 1,6 UV-I 248 W/m 14,6 C 23,3 C 4,8 km/h (1 Bft) 97,87 %
19.07.2019 12:18 23,3 C 23,9 C 26,1 C 59 % 1014,4 hPa 0,0 l/m 4,0 km/h (1 Bft) NO 36 0 min 0,000 mm 1,6 UV-I 242 W/m 14,8 C 23,3 C 6,4 km/h (2 Bft) 98,04 %
19.07.2019 12:20 23,3 C 23,9 C 26,1 C 59 % 1014,4 hPa 0,0 l/m 4,8 km/h (1 Bft) N 9 0 min 0,000 mm 1,5 UV-I 237 W/m 14,8 C 23,3 C 6,4 km/h (2 Bft) 100,00 %
19.07.2019 12:22 23,3 C 23,9 C 25,6 C 59 % 1014,5 hPa 0,0 l/m 4,8 km/h (1 Bft) N-NO 19 0 min 0,000 mm 1,5 UV-I 232 W/m 14,8 C 23,3 C 6,4 km/h (2 Bft) 100,00 %
19.07.2019 12:24 23,3 C 23,9 C 25,6 C 61 % 1014,5 hPa 0,0 l/m 4,9 km/h (1 Bft) N-NO 24 0 min 0,000 mm 1,4 UV-I 227 W/m 15,3 C 23,3 C 6,4 km/h (2 Bft) 97,87 %
19.07.2019 12:26 23,2 C 23,9 C 25,6 C 59 % 1014,5 hPa 0,0 l/m 4,9 km/h (1 Bft) N-NO 26 0 min 0,000 mm 1,4 UV-I 222 W/m 14,7 C 23,2 C 6,4 km/h (2 Bft) 100,00 %
19.07.2019 12:28 23,2 C 23,9 C 25,0 C 59 % 1014,5 hPa 0,0 l/m 5,1 km/h (1 Bft) N-NO 22 0 min 0,000 mm 1,4 UV-I 218 W/m 14,7 C 23,2 C 6,4 km/h (2 Bft) 100,00 %
19.07.2019 12:30 23,2 C 23,9 C 25,0 C 58 % 1014,4 hPa 0,0 l/m 3,7 km/h (1 Bft) N-NO 22 0 min 0,000 mm 1,3 UV-I 212 W/m 14,5 C 23,2 C 4,8 km/h (1 Bft) 95,74 %
19.07.2019 12:32 23,2 C 23,9 C 25,0 C 59 % 1014,4 hPa 0,0 l/m 3,3 km/h (1 Bft) N-NO 24 0 min 0,000 mm 1,3 UV-I 210 W/m 14,7 C 23,2 C 4,8 km/h (1 Bft) 97,87 %
19.07.2019 12:34 23,2 C 23,9 C 25,6 C 58 % 1014,4 hPa 0,0 l/m 3,3 km/h (1 Bft) N-NO 24 0 min 0,000 mm 1,3 UV-I 209 W/m 14,5 C 23,2 C 4,8 km/h (1 Bft) 95,74 %
19.07.2019 12:36 23,2 C 23,9 C 25,0 C 59 % 1014,4 hPa 0,0 l/m 4,3 km/h (1 Bft) N-NO 26 0 min 0,000 mm 1,3 UV-I 212 W/m 14,7 C 23,2 C 6,4 km/h (2 Bft) 97,87 %
19.07.2019 12:38 23,2 C 23,9 C 25,0 C 59 % 1014,4 hPa 0,0 l/m 3,4 km/h (1 Bft) N-NO 26 0 min 0,000 mm 1,4 UV-I 215 W/m 14,7 C 23,2 C 4,8 km/h (1 Bft) 93,62 %
19.07.2019 12:40 23,2 C 23,9 C 25,0 C 59 % 1014,4 hPa 0,0 l/m 4,2 km/h (1 Bft) N-NO 18 0 min 0,000 mm 1,4 UV-I 224 W/m 14,7 C 23,2 C 4,8 km/h (1 Bft) 95,74 %
19.07.2019 12:42 23,2 C 23,9 C 25,6 C 60 % 1014,4 hPa 0,0 l/m 3,6 km/h (1 Bft) N-NO 18 0 min 0,000 mm 1,5 UV-I 238 W/m 15,0 C 23,2 C 4,8 km/h (1 Bft) 95,74 %
19.07.2019 12:44 23,2 C 23,9 C 26,1 C 59 % 1014,4 hPa 0,0 l/m 3,6 km/h (1 Bft) N-NO 18 0 min 0,000 mm 1,6 UV-I 259 W/m 14,7 C 23,2 C 6,4 km/h (2 Bft) 97,14 %
19.07.2019 12:46 23,3 C 23,9 C 26,1 C 59 % 1014,4 hPa 0,0 l/m 3,2 km/h (1 Bft) N-NO 18 0 min 0,000 mm 1,8 UV-I 282 W/m 14,8 C 23,3 C 4,8 km/h (1 Bft) 93,62 %
19.07.2019 12:48 23,4 C 23,9 C 26,7 C 58 % 1014,4 hPa 0,0 l/m 4,3 km/h (1 Bft) N-NO 25 0 min 0,000 mm 2,0 UV-I 306 W/m 14,7 C 23,4 C 6,4 km/h (2 Bft) 95,74 %
19.07.2019 12:50 23,4 C 23,9 C 26,7 C 58 % 1014,4 hPa 0,0 l/m 4,5 km/h (1 Bft) N-NO 25 0 min 0,000 mm 2,1 UV-I 332 W/m 14,7 C 23,4 C 6,4 km/h (2 Bft) 95,83 %
19.07.2019 12:52 23,6 C 23,9 C 27,2 C 58 % 1014,4 hPa 0,0 l/m 4,7 km/h (1 Bft) NO 34 0 min 0,000 mm 2,3 UV-I 356 W/m 14,8 C 23,6 C 8,0 km/h (2 Bft) 95,74 %
19.07.2019 12:54 23,7 C 23,9 C 27,2 C 59 % 1014,4 hPa 0,0 l/m 5,4 km/h (1 Bft) N-NO 24 0 min 0,000 mm 2,4 UV-I 374 W/m 15,2 C 23,7 C 8,0 km/h (2 Bft) 95,74 %
19.07.2019 12:56 23,7 C 23,9 C 27,8 C 57 % 1014,4 hPa 0,0 l/m 5,5 km/h (1 Bft) N-NO 28 0 min 0,000 mm 2,4 UV-I 366 W/m 14,7 C 23,7 C 6,4 km/h (2 Bft) 96,00 %
19.07.2019 12:58 23,8 C 23,9 C 27,8 C 59 % 1014,4 hPa 0,0 l/m 5,2 km/h (1 Bft) N-NO 27 0 min 0,000 mm 2,3 UV-I 358 W/m 15,3 C 23,8 C 6,4 km/h (2 Bft) 95,74 %
19.07.2019 13:00 23,8 C 23,9 C 27,8 C 60 % 1014,4 hPa 0,0 l/m 5,4 km/h (1 Bft) N 5 0 min 0,203 mm 2,3 UV-I 358 W/m 15,6 C 23,8 C 8,0 km/h (2 Bft) 95,74 %
19.07.2019 13:02 23,8 C 23,9 C 27,8 C 58 % 1014,4 hPa 0,0 l/m 5,7 km/h (1 Bft) N 5 0 min 0,000 mm 2,4 UV-I 371 W/m 15,0 C 23,8 C 8,0 km/h (2 Bft) 98,00 %
19.07.2019 13:04 23,9 C 23,9 C 28,3 C 57 % 1014,4 hPa 0,0 l/m 4,4 km/h (1 Bft) NO 44 0 min 0,000 mm 2,6 UV-I 385 W/m 14,9 C 23,9 C 8,0 km/h (2 Bft) 97,87 %
19.07.2019 13:06 23,9 C 23,9 C 28,3 C 58 % 1014,4 hPa 0,0 l/m 5,4 km/h (1 Bft) NO 40 0 min 0,000 mm 2,7 UV-I 409 W/m 15,1 C 23,9 C 6,4 km/h (2 Bft) 97,87 %
19.07.2019 13:08 24,1 C 23,9 C 28,9 C 57 % 1014,4 hPa 0,0 l/m 5,3 km/h (1 Bft) O-NO 57 0 min 0,000 mm 3,0 UV-I 472 W/m 15,0 C 24,1 C 6,4 km/h (2 Bft) 97,87 %
19.07.2019 13:10 24,2 C 23,9 C 29,4 C 58 % 1014,4 hPa 0,0 l/m 5,1 km/h (1 Bft) N 360 2 min 0,000 mm 3,2 UV-I 490 W/m 15,4 C 24,2 C 8,0 km/h (2 Bft) 95,74 %
19.07.2019 13:12 24,2 C 23,9 C 30,0 C 58 % 1014,4 hPa 0,0 l/m 5,9 km/h (2 Bft) N-NO 18 2 min 0,000 mm 3,3 UV-I 508 W/m 15,4 C 24,2 C 8,0 km/h (2 Bft) 95,74 %
19.07.2019 13:14 24,2 C 23,9 C 30,6 C 56 % 1014,4 hPa 0,0 l/m 6,2 km/h (2 Bft) N 9 2 min 0,000 mm 3,1 UV-I 498 W/m 14,9 C 24,2 C 11,3 km/h (2 Bft) 97,87 %
19.07.2019 13:16 24,4 C 23,9 C 30,6 C 57 % 1014,4 hPa 0,0 l/m 6,2 km/h (2 Bft) NO 49 2 min 0,000 mm 1,8 UV-I 488 W/m 15,3 C 24,4 C 9,7 km/h (2 Bft) 97,87 %
19.07.2019 13:18 24,4 C 23,9 C 30,6 C 56 % 1014,4 hPa 0,0 l/m 5,7 km/h (1 Bft) N-NO 25 0 min 0,000 mm 3,1 UV-I 464 W/m 15,0 C 24,4 C 8,0 km/h (2 Bft) 95,74 %
19.07.2019 13:20 24,4 C 23,9 C 30,6 C 57 % 1014,4 hPa 0,0 l/m 5,8 km/h (2 Bft) N-NO 28 0 min 0,000 mm 2,9 UV-I 429 W/m 15,3 C 24,4 C 8,0 km/h (2 Bft) 95,12 %
19.07.2019 13:22 24,3 C 23,9 C 30,0 C 56 % 1014,4 hPa 0,0 l/m 5,1 km/h (1 Bft) N 355 0 min 0,000 mm 2,7 UV-I 411 W/m 14,9 C 24,3 C 8,0 km/h (2 Bft) 97,87 %
19.07.2019 13:24 24,3 C 23,9 C 30,0 C 56 % 1014,3 hPa 0,0 l/m 4,2 km/h (1 Bft) N 350 0 min 0,000 mm 2,7 UV-I 402 W/m 14,9 C 24,3 C 6,4 km/h (2 Bft) 93,62 %
19.07.2019 13:26 24,2 C 23,9 C 30,0 C 55 % 1014,3 hPa 0,0 l/m 4,9 km/h (1 Bft) N-NO 15 0 min 0,000 mm 2,7 UV-I 389 W/m 14,6 C 24,2 C 6,4 km/h (2 Bft) 95,74 %
19.07.2019 13:28 24,1 C 23,9 C 29,4 C 55 % 1014,2 hPa 0,0 l/m 3,6 km/h (1 Bft) N-NO 17 0 min 0,000 mm 2,7 UV-I 390 W/m 14,5 C 24,1 C 6,4 km/h (2 Bft) 95,74 %
19.07.2019 13:30 24,1 C 23,9 C 29,4 C 54 % 1014,2 hPa 0,0 l/m 4,3 km/h (1 Bft) N-NO 26 0 min 0,000 mm 2,4 UV-I 386 W/m 14,2 C 24,1 C 6,4 km/h (2 Bft) 97,87 %
19.07.2019 13:32 24,1 C 23,9 C 29,4 C 56 % 1014,2 hPa 0,0 l/m 3,0 km/h (1 Bft) NO 35 0 min 0,000 mm 2,2 UV-I 390 W/m 14,8 C 24,1 C 6,4 km/h (2 Bft) 97,92 %
19.07.2019 13:34 24,1 C 23,9 C 29,4 C 55 % 1014,2 hPa 0,0 l/m 4,8 km/h (1 Bft) NO 46 0 min 0,000 mm 2,7 UV-I 404 W/m 14,5 C 24,1 C 6,4 km/h (2 Bft) 93,62 %
19.07.2019 13:36 24,1 C 23,9 C 30,0 C 55 % 1014,2 hPa 0,0 l/m 2,8 km/h (1 Bft) N-NO 32 0 min 0,000 mm 3,0 UV-I 449 W/m 14,5 C 24,1 C 6,4 km/h (2 Bft) 97,87 %
19.07.2019 13:38 24,1 C 23,9 C 30,6 C 56 % 1014,2 hPa 0,0 l/m 3,2 km/h (1 Bft) N-NW 338 0 min 0,000 mm 3,0 UV-I 470 W/m 14,8 C 24,1 C 6,4 km/h (2 Bft) 97,87 %
19.07.2019 13:40 24,2 C 23,9 C 30,6 C 56 % 1014,1 hPa 0,0 l/m 4,3 km/h (1 Bft) N-NO 27 0 min 0,000 mm 3,1 UV-I 472 W/m 14,9 C 24,2 C 4,8 km/h (1 Bft) 98,00 %
19.07.2019 13:42 24,5 C 23,9 C 31,7 C 59 % 1014,1 hPa 0,0 l/m 5,4 km/h (1 Bft) N 355 2 min 0,000 mm 3,3 UV-I 501 W/m 15,9 C 24,5 C 6,4 km/h (2 Bft) 93,62 %
19.07.2019 13:44 24,6 C 23,9 C 32,8 C 55 % 1014,1 hPa 0,0 l/m 4,4 km/h (1 Bft) NO 34 2 min 0,000 mm 4,1 UV-I 548 W/m 14,9 C 24,6 C 6,4 km/h (2 Bft) 95,74 %
19.07.2019 13:46 24,7 C 23,9 C 33,9 C 54 % 1014,1 hPa 0,0 l/m 3,5 km/h (1 Bft) N-NW 331 2 min 0,000 mm 4,1 UV-I 705 W/m 14,8 C 24,7 C 6,4 km/h (2 Bft) 97,37 %
19.07.2019 13:48 24,7 C 23,9 C 35,0 C 56 % 1014,1 hPa 0,0 l/m 5,1 km/h (1 Bft) N-NO 19 2 min 0,000 mm 4,0 UV-I 670 W/m 15,3 C 24,7 C 11,3 km/h (2 Bft) 93,62 %
19.07.2019 13:50 24,8 C 23,9 C 35,0 C 54 % 1014,1 hPa 0,0 l/m 6,7 km/h (2 Bft) NO 42 2 min 0,000 mm 4,4 UV-I 596 W/m 14,8 C 24,7 C 9,7 km/h (2 Bft) 96,23 %
19.07.2019 13:52 25,0 C 23,9 C 33,9 C 54 % 1014,1 hPa 0,0 l/m 6,3 km/h (2 Bft) NO 38 2 min 0,000 mm 4,1 UV-I 562 W/m 15,0 C 25,0 C 8,0 km/h (2 Bft) 98,00 %
19.07.2019 13:54 24,9 C 23,9 C 33,3 C 51 % 1014,1 hPa 0,0 l/m 3,6 km/h (1 Bft) O-NO 70 2 min 0,000 mm 3,6 UV-I 517 W/m 14,1 C 24,9 C 6,4 km/h (2 Bft) 93,62 %
19.07.2019 13:56 24,9 C 23,9 C 32,8 C 55 % 1014,1 hPa 0,0 l/m 5,9 km/h (2 Bft) N-NO 32 2 min 0,000 mm 3,5 UV-I 503 W/m 15,2 C 24,9 C 8,0 km/h (2 Bft) 97,87 %
19.07.2019 13:58 24,9 C 23,9 C 31,7 C 51 % 1014,1 hPa 0,0 l/m 4,6 km/h (1 Bft) NO 53 0 min 0,000 mm 3,3 UV-I 455 W/m 14,1 C 24,9 C 6,4 km/h (2 Bft) 95,74 %
19.07.2019 14:00 24,9 C 23,9 C 31,1 C 50 % 1014,1 hPa 0,0 l/m 5,2 km/h (1 Bft) NO 54 0 min 0,330 mm 3,3 UV-I 453 W/m 13,7 C 24,9 C 6,4 km/h (2 Bft) 97,87 %
19.07.2019 14:02 24,9 C 23,9 C 31,1 C 51 % 1014,1 hPa 0,0 l/m 3,9 km/h (1 Bft) NO 54 0 min 0,000 mm 3,3 UV-I 449 W/m 14,1 C 24,9 C 6,4 km/h (2 Bft) 97,14 %
19.07.2019 14:04 24,7 C 23,9 C 31,1 C 52 % 1014,1 hPa 0,0 l/m 2,6 km/h (1 Bft) N 10 0 min 0,000 mm 3,3 UV-I 445 W/m 14,2 C 24,7 C 6,4 km/h (2 Bft) 96,00 %
19.07.2019 14:06 24,7 C 23,9 C 31,7 C 52 % 1014,1 hPa 0,0 l/m 4,9 km/h (1 Bft) N 10 0 min 0,000 mm 3,7 UV-I 448 W/m 14,2 C 24,7 C 6,4 km/h (2 Bft) 95,83 %
19.07.2019 14:08 24,8 C 23,9 C 32,2 C 52 % 1014,1 hPa 0,0 l/m 3,7 km/h (1 Bft) N-NO 20 2 min 0,000 mm 4,1 UV-I 553 W/m 14,3 C 24,8 C 6,4 km/h (2 Bft) 95,74 %
19.07.2019 14:10 24,8 C 23,9 C 33,9 C 52 % 1014,0 hPa 0,0 l/m 5,3 km/h (1 Bft) N 5 2 min 0,000 mm 5,0 UV-I 606 W/m 14,3 C 24,8 C 8,0 km/h (2 Bft) 94,00 %
19.07.2019 14:12 25,1 C 23,9 C 34,4 C 51 % 1014,1 hPa 0,0 l/m 5,8 km/h (2 Bft) N-NW 338 2 min 0,000 mm 4,5 UV-I 571 W/m 14,2 C 25,1 C 8,0 km/h (2 Bft) 97,87 %
19.07.2019 14:14 25,3 C 23,9 C 36,1 C 52 % 1014,1 hPa 0,0 l/m 5,7 km/h (1 Bft) NW 325 2 min 0,000 mm 5,0 UV-I 717 W/m 14,7 C 25,3 C 8,0 km/h (2 Bft) 97,87 %
19.07.2019 14:16 25,4 C 23,9 C 37,8 C 49 % 1014,0 hPa 0,0 l/m 4,6 km/h (1 Bft) NO 35 2 min 0,000 mm 5,4 UV-I 1020 W/m 13,9 C 25,4 C 6,4 km/h (2 Bft) 94,00 %
19.07.2019 14:18 25,7 C 23,9 C 38,9 C 54 % 1014,0 hPa 0,0 l/m 4,7 km/h (1 Bft) O-NO 74 2 min 0,000 mm 4,9 UV-I 1005 W/m 15,7 C 25,7 C 6,4 km/h (2 Bft) 95,74 %
19.07.2019 14:20 25,7 C 23,9 C 39,4 C 51 % 1013,9 hPa 0,0 l/m 3,5 km/h (1 Bft) O-SO 107 2 min 0,000 mm 4,5 UV-I 846 W/m 14,8 C 25,7 C 6,4 km/h (2 Bft) 95,74 %
19.07.2019 14:22 25,8 C 23,9 C 40,0 C 51 % 1013,9 hPa 0,0 l/m 4,2 km/h (1 Bft) O 89 2 min 0,000 mm 5,1 UV-I 901 W/m 14,9 C 25,8 C 6,4 km/h (2 Bft) 93,62 %
19.07.2019 14:24 25,9 C 23,9 C 39,4 C 50 % 1013,9 hPa 0,0 l/m 6,2 km/h (2 Bft) NO 53 2 min 0,000 mm 4,7 UV-I 926 W/m 14,7 C 25,9 C 9,7 km/h (2 Bft) 97,87 %
19.07.2019 14:26 25,9 C 23,9 C 40,0 C 50 % 1013,9 hPa 0,0 l/m 5,1 km/h (1 Bft) W 275 2 min 0,000 mm 4,6 UV-I 918 W/m 14,7 C 25,9 C 8,0 km/h (2 Bft) 97,87 %
19.07.2019 14:29 25,9 C 24,4 C 38,9 C 48 % 1013,7 hPa 0,0 l/m 4,3 km/h (1 Bft) NO 51 3 min 0,000 mm 4,5 UV-I 855 W/m 14,0 C 25,9 C 8,0 km/h (2 Bft) 96,77 %
19.07.2019 14:30 25,9 C 24,4 C 38,3 C 48 % 1013,7 hPa 0,0 l/m 6,8 km/h (2 Bft) N-NO 15 1 min 0,000 mm 4,2 UV-I 773 W/m 14,0 C 25,8 C 8,0 km/h (2 Bft) 100,00 %
19.07.2019 14:32 25,9 C 24,4 C 38,9 C 47 % 1013,9 hPa 0,0 l/m 5,2 km/h (1 Bft) N 351 2 min 0,000 mm 4,7 UV-I 741 W/m 13,7 C 25,9 C 8,0 km/h (2 Bft) 95,74 %
19.07.2019 14:34 25,9 C 24,4 C 39,4 C 45 % 1013,8 hPa 0,0 l/m 5,3 km/h (1 Bft) N 5 2 min 0,000 mm 4,9 UV-I 869 W/m 13,0 C 25,9 C 8,0 km/h (2 Bft) 98,00 %
19.07.2019 14:36 26,0 C 24,4 C 39,4 C 48 % 1013,7 hPa 0,0 l/m 5,1 km/h (1 Bft) N-NW 331 2 min 0,000 mm 4,8 UV-I 893 W/m 14,1 C 26,0 C 8,0 km/h (2 Bft) 100,00 %
19.07.2019 14:38 26,1 C 24,4 C 40,0 C 46 % 1013,8 hPa 0,0 l/m 3,6 km/h (1 Bft) W-NW 299 2 min 0,000 mm 4,7 UV-I 778 W/m 13,6 C 26,1 C 6,4 km/h (2 Bft) 100,00 %
19.07.2019 14:40 26,1 C 24,4 C 40,0 C 47 % 1013,7 hPa 0,0 l/m 3,3 km/h (1 Bft) NW 315 2 min 0,000 mm 4,7 UV-I 796 W/m 13,9 C 26,1 C 8,0 km/h (2 Bft) 100,00 %
19.07.2019 14:42 26,1 C 24,4 C 41,1 C 47 % 1013,7 hPa 0,0 l/m 3,4 km/h (1 Bft) N-NO 22 2 min 0,000 mm 4,7 UV-I 911 W/m 13,9 C 26,1 C 6,4 km/h (2 Bft) 100,00 %
19.07.2019 14:44 26,3 C 24,4 C 39,4 C 47 % 1013,7 hPa 0,0 l/m 6,7 km/h (2 Bft) N 9 2 min 0,000 mm 3,6 UV-I 819 W/m 14,1 C 26,2 C 11,3 km/h (2 Bft) 100,00 %
19.07.2019 14:46 26,4 C 24,4 C 36,7 C 46 % 1013,7 hPa 0,0 l/m 9,8 km/h (2 Bft) N 9 0 min 0,000 mm 3,2 UV-I 446 W/m 13,8 C 25,7 C 12,9 km/h (3 Bft) 100,00 %
19.07.2019 14:48 26,4 C 24,4 C 35,0 C 46 % 1013,7 hPa 0,0 l/m 7,2 km/h (2 Bft) N-NO 15 2 min 0,000 mm 3,3 UV-I 471 W/m 13,8 C 26,2 C 11,3 km/h (2 Bft) 100,00 %
19.07.2019 14:50 26,3 C 24,4 C 33,9 C 45 % 1013,7 hPa 0,0 l/m 6,3 km/h (2 Bft) N-NO 26 2 min 0,000 mm 3,4 UV-I 517 W/m 13,4 C 26,3 C 8,0 km/h (2 Bft) 96,00 %
19.07.2019 14:52 26,3 C 24,4 C 33,9 C 47 % 1013,6 hPa 0,0 l/m 5,5 km/h (1 Bft) NW 317 2 min 0,000 mm 3,5 UV-I 559 W/m 14,1 C 26,3 C 8,0 km/h (2 Bft) 100,00 %
19.07.2019 14:54 26,3 C 24,4 C 34,4 C 46 % 1013,6 hPa 0,0 l/m 4,2 km/h (1 Bft) N-NO 17 2 min 0,000 mm 3,5 UV-I 591 W/m 13,7 C 26,3 C 6,4 km/h (2 Bft) 100,00 %
19.07.2019 14:56 26,3 C 24,4 C 34,4 C 47 % 1013,6 hPa 0,0 l/m 4,9 km/h (1 Bft) N-NW 346 2 min 0,000 mm 3,7 UV-I 628 W/m 14,1 C 26,3 C 6,4 km/h (2 Bft) 100,00 %
19.07.2019 14:58 26,3 C 24,4 C 35,6 C 46 % 1013,7 hPa 0,0 l/m 5,2 km/h (1 Bft) N-NW 339 2 min 0,000 mm 3,7 UV-I 629 W/m 13,7 C 26,3 C 8,0 km/h (2 Bft) 100,00 %
19.07.2019 15:00 26,3 C 24,4 C 36,7 C 47 % 1013,6 hPa 0,0 l/m 2,8 km/h (1 Bft) NW 313 2 min 0,483 mm 3,8 UV-I 695 W/m 14,1 C 26,3 C 6,4 km/h (2 Bft) 100,00 %
19.07.2019 15:02 26,3 C 24,4 C 37,2 C 47 % 1013,6 hPa 0,0 l/m 4,2 km/h (1 Bft) N 5 2 min 0,000 mm 3,8 UV-I 659 W/m 14,1 C 26,3 C 9,7 km/h (2 Bft) 97,37 %
19.07.2019 15:04 26,6 C 24,4 C 37,8 C 46 % 1013,6 hPa 0,0 l/m 5,7 km/h (1 Bft) NW 325 2 min 0,000 mm 4,1 UV-I 649 W/m 14,0 C 26,6 C 8,0 km/h (2 Bft) 100,00 %
19.07.2019 15:06 26,7 C 24,4 C 37,8 C 42 % 1013,6 hPa 0,0 l/m 2,5 km/h (1 Bft) NW 315 2 min 0,000 mm 4,3 UV-I 735 W/m 12,7 C 26,7 C 6,4 km/h (2 Bft) 100,00 %
19.07.2019 15:08 26,5 C 24,4 C 37,8 C 46 % 1013,6 hPa 0,0 l/m 2,2 km/h (1 Bft) SW 215 2 min 0,000 mm 3,6 UV-I 666 W/m 13,9 C 26,5 C 4,8 km/h (1 Bft) 100,00 %
19.07.2019 15:10 26,6 C 24,4 C 38,9 C 50 % 1013,6 hPa 0,0 l/m 4,6 km/h (1 Bft) O-NO 63 2 min 0,000 mm 3,7 UV-I 586 W/m 15,3 C 26,6 C 8,0 km/h (2 Bft) 97,87 %
19.07.2019 15:12 26,8 C 24,4 C 37,2 C 48 % 1013,6 hPa 0,0 l/m 8,4 km/h (2 Bft) N-NO 31 2 min 0,000 mm 3,2 UV-I 569 W/m 14,9 C 26,4 C 14,5 km/h (3 Bft) 100,00 %
19.07.2019 15:14 26,9 C 24,4 C 35,6 C 42 % 1013,6 hPa 0,0 l/m 6,3 km/h (2 Bft) N-NW 333 2 min 0,000 mm 3,0 UV-I 520 W/m 12,9 C 26,9 C 12,9 km/h (3 Bft) 97,87 %
19.07.2019 15:16 26,9 C 24,4 C 33,9 C 44 % 1013,6 hPa 0,0 l/m 8,7 km/h (2 Bft) N 5 2 min 0,000 mm 2,7 UV-I 468 W/m 13,6 C 26,5 C 14,5 km/h (3 Bft) 97,87 %
19.07.2019 15:18 26,8 C 24,4 C 32,8 C 45 % 1013,6 hPa 0,0 l/m 5,1 km/h (1 Bft) W-NW 300 0 min 0,000 mm 2,5 UV-I 411 W/m 13,9 C 26,8 C 9,7 km/h (2 Bft) 100,00 %
19.07.2019 15:20 26,5 C 24,4 C 32,2 C 47 % 1013,6 hPa 0,0 l/m 5,3 km/h (1 Bft) NO 39 0 min 0,000 mm 2,4 UV-I 400 W/m 14,3 C 26,5 C 8,0 km/h (2 Bft) 100,00 %
19.07.2019 15:22 26,4 C 24,4 C 31,7 C 46 % 1013,6 hPa 0,0 l/m 6,7 km/h (2 Bft) N-NO 30 0 min 0,000 mm 2,4 UV-I 397 W/m 13,8 C 26,3 C 9,7 km/h (2 Bft) 100,00 %
19.07.2019 15:24 26,5 C 24,4 C 31,7 C 47 % 1013,6 hPa 0,0 l/m 4,8 km/h (1 Bft) N-NO 20 0 min 0,000 mm 2,0 UV-I 404 W/m 14,3 C 26,5 C 8,0 km/h (2 Bft) 100,00 %
19.07.2019 15:26 26,5 C 24,4 C 31,7 C 45 % 1013,6 hPa 0,0 l/m 3,7 km/h (1 Bft) NO 34 0 min 0,000 mm 2,4 UV-I 415 W/m 13,6 C 26,5 C 6,4 km/h (2 Bft) 97,87 %
19.07.2019 15:28 26,5 C 24,4 C 31,7 C 46 % 1013,5 hPa 0,0 l/m 4,5 km/h (1 Bft) NO 40 2 min 0,000 mm 2,2 UV-I 434 W/m 13,9 C 26,5 C 6,4 km/h (2 Bft) 97,87 %
19.07.2019 15:30 26,4 C 24,4 C 32,2 C 44 % 1013,5 hPa 0,0 l/m 3,2 km/h (1 Bft) NO 43 2 min 0,000 mm 2,6 UV-I 455 W/m 13,1 C 26,4 C 6,4 km/h (2 Bft) 100,00 %
19.07.2019 15:32 26,4 C 24,4 C 32,8 C 49 % 1013,4 hPa 0,0 l/m 6,3 km/h (2 Bft) N-NO 32 2 min 0,000 mm 2,6 UV-I 464 W/m 14,8 C 26,4 C 9,7 km/h (2 Bft) 100,00 %
19.07.2019 15:34 26,6 C 24,4 C 32,2 C 47 % 1013,4 hPa 0,0 l/m 7,1 km/h (2 Bft) N 11 2 min 0,000 mm 2,6 UV-I 466 W/m 14,3 C 26,5 C 9,7 km/h (2 Bft) 100,00 %
19.07.2019 15:36 26,7 C 24,4 C 32,2 C 45 % 1013,4 hPa 0,0 l/m 6,5 km/h (2 Bft) N-NW 344 2 min 0,000 mm 2,5 UV-I 481 W/m 13,8 C 26,7 C 11,3 km/h (2 Bft) 95,12 %
19.07.2019 15:38 26,8 C 24,4 C 32,8 C 46 % 1013,4 hPa 0,0 l/m 5,9 km/h (2 Bft) N 9 2 min 0,000 mm 2,8 UV-I 557 W/m 14,2 C 26,8 C 8,0 km/h (2 Bft) 96,00 %
19.07.2019 15:40 26,7 C 24,4 C 33,9 C 45 % 1013,4 hPa 0,0 l/m 4,5 km/h (1 Bft) N 9 2 min 0,000 mm 3,2 UV-I 558 W/m 13,8 C 26,7 C 11,3 km/h (2 Bft) 95,74 %
19.07.2019 15:42 26,8 C 24,4 C 36,7 C 44 % 1013,4 hPa 0,0 l/m 6,4 km/h (2 Bft) N-NO 26 2 min 0,000 mm 3,8 UV-I 811 W/m 13,5 C 26,8 C 12,9 km/h (3 Bft) 95,74 %
19.07.2019 15:44 27,1 C 24,4 C 37,8 C 42 % 1013,4 hPa 0,0 l/m 6,8 km/h (2 Bft) N-NO 20 2 min 0,000 mm 3,7 UV-I 866 W/m 13,1 C 27,0 C 12,9 km/h (3 Bft) 100,00 %
19.07.2019 15:46 27,3 C 24,4 C 37,8 C 45 % 1013,4 hPa 0,0 l/m 7,2 km/h (2 Bft) NO 55 2 min 0,000 mm 3,4 UV-I 830 W/m 14,3 C 27,2 C 9,7 km/h (2 Bft) 93,62 %
19.07.2019 15:48 27,3 C 24,4 C 37,2 C 44 % 1013,3 hPa 0,0 l/m 7,5 km/h (2 Bft) NO 44 2 min 0,000 mm 3,1 UV-I 630 W/m 14,0 C 27,1 C 9,7 km/h (2 Bft) 95,74 %
19.07.2019 15:50 27,3 C 24,4 C 35,0 C 42 % 1013,3 hPa 0,0 l/m 7,8 km/h (2 Bft) N-NO 31 2 min 0,000 mm 2,7 UV-I 555 W/m 13,2 C 27,0 C 14,5 km/h (3 Bft) 95,74 %
19.07.2019 15:52 27,1 C 24,4 C 33,9 C 43 % 1013,3 hPa 0,0 l/m 6,2 km/h (2 Bft) N-NO 29 0 min 0,000 mm 2,6 UV-I 382 W/m 13,4 C 27,1 C 9,7 km/h (2 Bft) 91,49 %
19.07.2019 15:54 26,9 C 24,4 C 32,2 C 42 % 1013,3 hPa 0,0 l/m 6,2 km/h (2 Bft) N-NO 26 0 min 0,000 mm 2,5 UV-I 372 W/m 12,9 C 26,9 C 11,3 km/h (2 Bft) 95,74 %
19.07.2019 15:56 26,8 C 24,4 C 31,7 C 41 % 1013,3 hPa 0,0 l/m 3,0 km/h (1 Bft) N-NO 26 0 min 0,000 mm 2,4 UV-I 362 W/m 12,4 C 26,8 C 4,8 km/h (1 Bft) 95,74 %
19.07.2019 15:58 26,7 C 24,4 C 31,1 C 43 % 1013,3 hPa 0,0 l/m 3,8 km/h (1 Bft) N-NW 341 0 min 0,000 mm 2,3 UV-I 347 W/m 13,1 C 26,7 C 4,8 km/h (1 Bft) 91,49 %
19.07.2019 16:00 26,6 C 24,4 C 31,1 C 43 % 1013,3 hPa 0,0 l/m 4,6 km/h (1 Bft) N-NW 342 0 min 0,406 mm 2,4 UV-I 379 W/m 13,0 C 26,6 C 6,4 km/h (2 Bft) 95,74 %
19.07.2019 16:02 26,6 C 24,4 C 31,7 C 43 % 1013,3 hPa 0,0 l/m 7,0 km/h (2 Bft) N-NO 30 2 min 0,000 mm 2,6 UV-I 444 W/m 13,0 C 26,5 C 12,9 km/h (3 Bft) 95,74 %
19.07.2019 16:04 26,7 C 24,4 C 32,8 C 46 % 1013,3 hPa 0,0 l/m 6,5 km/h (2 Bft) NO 52 2 min 0,000 mm 2,8 UV-I 482 W/m 14,1 C 26,7 C 9,7 km/h (2 Bft) 95,83 %
19.07.2019 16:06 26,8 C 24,4 C 33,9 C 45 % 1013,3 hPa 0,0 l/m 5,8 km/h (2 Bft) N-NO 28 2 min 0,000 mm 2,8 UV-I 482 W/m 13,9 C 26,8 C 8,0 km/h (2 Bft) 95,74 %
19.07.2019 16:08 26,9 C 24,4 C 33,9 C 44 % 1013,2 hPa 0,0 l/m 7,9 km/h (2 Bft) NO 34 2 min 0,000 mm 2,7 UV-I 482 W/m 13,6 C 26,6 C 12,9 km/h (3 Bft) 94,00 %
19.07.2019 16:10 27,1 C 24,4 C 32,8 C 44 % 1013,2 hPa 0,0 l/m 8,9 km/h (2 Bft) N-NO 28 2 min 0,000 mm 2,3 UV-I 422 W/m 13,8 C 26,7 C 12,9 km/h (3 Bft) 95,74 %
19.07.2019 16:12 27,0 C 24,4 C 31,7 C 43 % 1013,2 hPa 0,0 l/m 8,5 km/h (2 Bft) N-NO 27 2 min 0,000 mm 2,2 UV-I 393 W/m 13,3 C 26,6 C 11,3 km/h (2 Bft) 97,14 %
19.07.2019 16:14 26,7 C 24,4 C 31,1 C 42 % 1013,2 hPa 0,0 l/m 5,6 km/h (1 Bft) N-NO 16 0 min 0,000 mm 2,1 UV-I 351 W/m 12,7 C 26,7 C 12,9 km/h (3 Bft) 100,00 %
19.07.2019 16:16 26,7 C 24,4 C 30,6 C 44 % 1013,2 hPa 0,0 l/m 11,9 km/h (2 Bft) N-NO 16 0 min 0,000 mm 2,1 UV-I 356 W/m 13,4 C 25,8 C 14,5 km/h (3 Bft) 98,00 %
19.07.2019 16:18 26,6 C 24,4 C 30,0 C 44 % 1013,2 hPa 0,0 l/m 10,4 km/h (2 Bft) N-NO 17 0 min 0,000 mm 2,0 UV-I 372 W/m 13,3 C 25,9 C 14,5 km/h (3 Bft) 100,00 %
19.07.2019 16:20 26,6 C 24,4 C 29,4 C 45 % 1013,2 hPa 0,0 l/m 9,2 km/h (2 Bft) N-NO 26 0 min 0,000 mm 1,9 UV-I 340 W/m 13,7 C 26,1 C 12,9 km/h (3 Bft) 100,00 %
19.07.2019 16:22 26,5 C 24,4 C 29,4 C 45 % 1013,2 hPa 0,0 l/m 6,9 km/h (2 Bft) NO 48 0 min 0,000 mm 1,8 UV-I 324 W/m 13,6 C 26,4 C 9,7 km/h (2 Bft) 100,00 %
19.07.2019 16:24 26,4 C 24,4 C 29,4 C 45 % 1013,2 hPa 0,0 l/m 5,9 km/h (2 Bft) NO 49 0 min 0,000 mm 1,8 UV-I 324 W/m 13,5 C 26,4 C 8,0 km/h (2 Bft) 97,87 %
19.07.2019 16:26 26,3 C 24,4 C 29,4 C 44 % 1013,1 hPa 0,0 l/m 5,7 km/h (1 Bft) O-NO 61 0 min 0,000 mm 1,8 UV-I 331 W/m 13,1 C 26,3 C 8,0 km/h (2 Bft) 97,87 %
19.07.2019 16:28 26,3 C 24,4 C 30,0 C 44 % 1013,1 hPa 0,0 l/m 5,4 km/h (1 Bft) O-NO 76 0 min 0,000 mm 1,8 UV-I 341 W/m 13,1 C 26,3 C 6,4 km/h (2 Bft) 97,87 %
19.07.2019 16:30 26,4 C 24,4 C 30,0 C 44 % 1013,1 hPa 0,0 l/m 5,5 km/h (1 Bft) NO 49 2 min 0,000 mm 1,8 UV-I 362 W/m 13,1 C 26,4 C 8,0 km/h (2 Bft) 97,87 %
19.07.2019 16:32 26,4 C 24,4 C 30,6 C 46 % 1013,2 hPa 0,0 l/m 4,9 km/h (1 Bft) N 9 2 min 0,000 mm 1,9 UV-I 382 W/m 13,8 C 26,4 C 8,0 km/h (2 Bft) 97,37 %
19.07.2019 16:34 26,6 C 24,4 C 31,1 C 45 % 1013,1 hPa 0,0 l/m 4,8 km/h (1 Bft) N-NW 346 2 min 0,000 mm 2,0 UV-I 399 W/m 13,7 C 26,6 C 8,0 km/h (2 Bft) 93,62 %
19.07.2019 16:36 26,7 C 24,4 C 31,1 C 46 % 1013,1 hPa 0,0 l/m 6,5 km/h (2 Bft) NO 47 2 min 0,000 mm 2,0 UV-I 399 W/m 14,1 C 26,7 C 11,3 km/h (2 Bft) 96,00 %
19.07.2019 16:38 26,8 C 24,4 C 32,8 C 46 % 1013,1 hPa 0,0 l/m 7,9 km/h (2 Bft) NO 51 2 min 0,000 mm 2,3 UV-I 555 W/m 14,2 C 26,5 C 9,7 km/h (2 Bft) 97,87 %
19.07.2019 16:40 27,0 C 24,4 C 33,3 C 45 % 1013,1 hPa 0,0 l/m 7,4 km/h (2 Bft) O-NO 64 2 min 0,000 mm 2,3 UV-I 568 W/m 14,0 C 26,8 C 11,3 km/h (2 Bft) 95,83 %
19.07.2019 16:42 27,1 C 24,4 C 32,8 C 45 % 1013,1 hPa 0,0 l/m 10,1 km/h (2 Bft) NO 45 2 min 0,000 mm 2,1 UV-I 435 W/m 14,1 C 26,5 C 14,5 km/h (3 Bft) 95,74 %
19.07.2019 16:44 27,0 C 24,4 C 32,2 C 44 % 1013,2 hPa 0,0 l/m 8,8 km/h (2 Bft) NO 40 2 min 0,000 mm 2,1 UV-I 417 W/m 13,7 C 26,6 C 11,3 km/h (2 Bft) 95,74 %
19.07.2019 16:46 26,9 C 24,4 C 31,1 C 44 % 1013,2 hPa 0,0 l/m 7,4 km/h (2 Bft) NO 44 2 min 0,000 mm 2,1 UV-I 403 W/m 13,6 C 26,7 C 11,3 km/h (2 Bft) 97,14 %
19.07.2019 16:48 26,9 C 24,4 C 31,7 C 43 % 1013,2 hPa 0,0 l/m 4,6 km/h (1 Bft) O 89 2 min 0,000 mm 1,9 UV-I 388 W/m 13,2 C 26,9 C 8,0 km/h (2 Bft) 98,39 %
19.07.2019 16:50 26,8 C 24,4 C 33,9 C 43 % 1013,1 hPa 0,0 l/m 1,9 km/h (1 Bft) O-NO 59 2 min 0,000 mm 2,3 UV-I 427 W/m 13,2 C 26,8 C 6,4 km/h (2 Bft) 97,87 %
19.07.2019 16:52 27,1 C 24,4 C 34,4 C 44 % 1013,1 hPa 0,0 l/m 7,8 km/h (2 Bft) N-NO 23 2 min 0,000 mm 2,3 UV-I 670 W/m 13,8 C 26,8 C 11,3 km/h (2 Bft) 97,87 %
19.07.2019 16:54 27,1 C 24,4 C 35,0 C 44 % 1013,1 hPa 0,0 l/m 4,8 km/h (1 Bft) N 5 2 min 0,000 mm 2,3 UV-I 648 W/m 13,8 C 27,1 C 8,0 km/h (2 Bft) 97,14 %
19.07.2019 16:56 27,3 C 24,4 C 35,6 C 43 % 1013,1 hPa 0,0 l/m 5,9 km/h (2 Bft) NO 37 2 min 0,000 mm 2,2 UV-I 620 W/m 13,6 C 27,3 C 12,9 km/h (3 Bft) 96,23 %
19.07.2019 16:58 27,3 C 24,4 C 36,7 C 44 % 1013,0 hPa 0,0 l/m 2,6 km/h (1 Bft) NO 38 2 min 0,000 mm 2,2 UV-I 612 W/m 14,0 C 27,3 C 4,8 km/h (1 Bft) 95,74 %
19.07.2019 17:00 27,4 C 24,4 C 37,2 C 45 % 1013,0 hPa 0,0 l/m 2,2 km/h (1 Bft) NO 38 2 min 0,356 mm 2,1 UV-I 572 W/m 14,4 C 27,4 C 3,2 km/h (1 Bft) 97,87 %
19.07.2019 17:02 27,6 C 24,4 C 37,2 C 44 % 1013,0 hPa 0,0 l/m 5,4 km/h (1 Bft) N 9 2 min 0,000 mm 2,0 UV-I 537 W/m 14,2 C 27,6 C 8,0 km/h (2 Bft) 95,74 %
19.07.2019 17:04 27,7 C 24,4 C 36,7 C 42 % 1013,0 hPa 0,0 l/m 6,0 km/h (2 Bft) N 360 2 min 0,000 mm 2,0 UV-I 535 W/m 13,6 C 27,7 C 12,9 km/h (3 Bft) 95,74 %
19.07.2019 17:06 27,6 C 24,4 C 36,7 C 41 % 1013,0 hPa 0,0 l/m 4,7 km/h (1 Bft) NW 318 2 min 0,000 mm 2,0 UV-I 537 W/m 13,1 C 27,6 C 8,0 km/h (2 Bft) 97,87 %
19.07.2019 17:09 27,6 C 24,4 C 36,7 C 43 % 1013,0 hPa 0,0 l/m 6,5 km/h (2 Bft) N-NW 348 3 min 0,000 mm 1,9 UV-I 529 W/m 13,9 C 27,6 C 14,5 km/h (3 Bft) 97,40 %
19.07.2019 17:10 27,7 C 24,4 C 36,1 C 44 % 1013,0 hPa 0,0 l/m 10,4 km/h (2 Bft) N 5 1 min 0,000 mm 1,8 UV-I 530 W/m 14,3 C 27,1 C 12,9 km/h (3 Bft) 100,00 %
19.07.2019 17:12 27,8 C 24,4 C 35,6 C 43 % 1013,0 hPa 0,0 l/m 7,2 km/h (2 Bft) NO 46 2 min 0,000 mm 1,8 UV-I 543 W/m 14,1 C 27,7 C 11,3 km/h (2 Bft) 96,61 %
19.07.2019 17:14 27,8 C 24,4 C 35,6 C 45 % 1012,9 hPa 0,0 l/m 7,9 km/h (2 Bft) O-NO 65 2 min 0,000 mm 1,8 UV-I 505 W/m 14,8 C 27,6 C 12,9 km/h (3 Bft) 97,22 %
19.07.2019 17:16 27,7 C 24,4 C 35,6 C 44 % 1012,9 hPa 0,0 l/m 5,2 km/h (1 Bft) NO 41 2 min 0,000 mm 1,8 UV-I 547 W/m 14,3 C 27,7 C 9,7 km/h (2 Bft) 97,87 %
19.07.2019 17:18 27,6 C 24,4 C 35,6 C 43 % 1012,9 hPa 0,0 l/m 6,0 km/h (2 Bft) O-NO 57 2 min 0,000 mm 1,8 UV-I 561 W/m 13,9 C 27,6 C 9,7 km/h (2 Bft) 98,00 %
19.07.2019 17:20 27,7 C 24,4 C 36,7 C 43 % 1012,9 hPa 0,0 l/m 5,6 km/h (1 Bft) NO 48 2 min 0,000 mm 1,7 UV-I 572 W/m 14,0 C 27,7 C 8,0 km/h (2 Bft) 95,74 %
19.07.2019 17:22 27,8 C 25,0 C 37,2 C 41 % 1012,9 hPa 0,0 l/m 1,9 km/h (1 Bft) NO 48 2 min 0,000 mm 1,7 UV-I 584 W/m 13,3 C 27,8 C 4,8 km/h (1 Bft) 100,00 %
19.07.2019 17:24 27,7 C 25,0 C 36,7 C 42 % 1012,8 hPa 0,0 l/m 4,6 km/h (1 Bft) O-NO 66 2 min 0,000 mm 1,6 UV-I 565 W/m 13,6 C 27,7 C 8,0 km/h (2 Bft) 100,00 %
19.07.2019 17:26 27,5 C 25,0 C 36,1 C 43 % 1012,9 hPa 0,0 l/m 4,1 km/h (1 Bft) O 97 2 min 0,000 mm 1,5 UV-I 471 W/m 13,8 C 27,5 C 6,4 km/h (2 Bft) 95,74 %
19.07.2019 17:28 27,4 C 25,0 C 35,6 C 44 % 1012,9 hPa 0,0 l/m 5,0 km/h (1 Bft) N 355 2 min 0,000 mm 1,4 UV-I 422 W/m 14,0 C 27,4 C 9,7 km/h (2 Bft) 97,87 %
19.07.2019 17:30 27,7 C 25,0 C 35,0 C 44 % 1012,9 hPa 0,0 l/m 4,6 km/h (1 Bft) N-NO 26 2 min 0,000 mm 1,5 UV-I 431 W/m 14,3 C 27,7 C 6,4 km/h (2 Bft) 97,87 %
19.07.2019 17:32 27,8 C 25,0 C 34,4 C 43 % 1012,9 hPa 0,0 l/m 7,6 km/h (2 Bft) NO 40 2 min 0,000 mm 1,4 UV-I 461 W/m 14,1 C 27,6 C 14,5 km/h (3 Bft) 97,87 %
19.07.2019 17:34 27,9 C 25,0 C 32,8 C 43 % 1012,9 hPa 0,0 l/m 6,3 km/h (2 Bft) N-NO 25 2 min 0,000 mm 1,3 UV-I 385 W/m 14,1 C 27,9 C 11,3 km/h (2 Bft) 95,74 %
19.07.2019 17:36 27,7 C 25,0 C 32,2 C 41 % 1012,9 hPa 0,0 l/m 6,2 km/h (2 Bft) O-NO 63 2 min 0,000 mm 1,2 UV-I 289 W/m 13,2 C 27,7 C 12,9 km/h (3 Bft) 95,74 %
19.07.2019 17:38 27,4 C 25,0 C 31,1 C 43 % 1012,9 hPa 0,0 l/m 7,1 km/h (2 Bft) O-NO 72 0 min 0,000 mm 1,1 UV-I 256 W/m 13,7 C 27,3 C 12,9 km/h (3 Bft) 95,74 %
19.07.2019 17:40 27,2 C 25,0 C 30,6 C 42 % 1012,9 hPa 0,0 l/m 3,5 km/h (1 Bft) O-NO 72 0 min 0,000 mm 1,0 UV-I 255 W/m 13,2 C 27,2 C 6,4 km/h (2 Bft) 95,74 %
19.07.2019 17:42 26,9 C 25,0 C 30,6 C 41 % 1012,8 hPa 0,0 l/m 3,5 km/h (1 Bft) O-NO 73 0 min 0,000 mm 1,0 UV-I 250 W/m 12,5 C 26,9 C 6,4 km/h (2 Bft) 93,62 %
19.07.2019 17:44 26,9 C 25,0 C 30,0 C 44 % 1012,8 hPa 0,0 l/m 4,3 km/h (1 Bft) O-NO 72 0 min 0,000 mm 1,0 UV-I 236 W/m 13,6 C 26,9 C 6,4 km/h (2 Bft) 95,12 %
19.07.2019 17:46 26,9 C 25,0 C 29,4 C 44 % 1012,8 hPa 0,0 l/m 4,4 km/h (1 Bft) NO 55 0 min 0,000 mm 0,9 UV-I 224 W/m 13,6 C 26,9 C 6,4 km/h (2 Bft) 95,74 %
19.07.2019 17:48 26,9 C 25,0 C 28,9 C 45 % 1012,8 hPa 0,0 l/m 4,7 km/h (1 Bft) N 5 0 min 0,000 mm 0,9 UV-I 207 W/m 13,9 C 26,9 C 6,4 km/h (2 Bft) 95,74 %
19.07.2019 17:50 26,9 C 25,0 C 28,3 C 44 % 1012,8 hPa 0,0 l/m 6,9 km/h (2 Bft) NO 38 0 min 0,000 mm 0,9 UV-I 203 W/m 13,6 C 26,8 C 8,0 km/h (2 Bft) 96,00 %
19.07.2019 17:52 26,8 C 25,0 C 27,8 C 44 % 1012,8 hPa 0,0 l/m 6,0 km/h (2 Bft) NO 46 0 min 0,000 mm 0,8 UV-I 200 W/m 13,5 C 26,8 C 8,0 km/h (2 Bft) 91,49 %
19.07.2019 17:54 26,7 C 25,0 C 27,2 C 45 % 1012,7 hPa 0,0 l/m 5,2 km/h (1 Bft) NO 46 0 min 0,000 mm 0,8 UV-I 194 W/m 13,8 C 26,7 C 6,4 km/h (2 Bft) 95,74 %
19.07.2019 17:56 26,6 C 25,0 C 27,2 C 46 % 1012,8 hPa 0,0 l/m 6,2 km/h (2 Bft) NO 34 0 min 0,000 mm 0,8 UV-I 185 W/m 14,0 C 26,6 C 9,7 km/h (2 Bft) 95,83 %
19.07.2019 17:58 26,4 C 25,0 C 27,2 C 46 % 1012,7 hPa 0,0 l/m 6,9 km/h (2 Bft) O-NO 65 0 min 0,000 mm 0,7 UV-I 179 W/m 13,8 C 26,3 C 8,0 km/h (2 Bft) 95,74 %
19.07.2019 18:00 26,4 C 25,0 C 27,2 C 44 % 1012,7 hPa 0,0 l/m 6,5 km/h (2 Bft) O-NO 71 0 min 0,305 mm 0,7 UV-I 178 W/m 13,1 C 26,4 C 8,0 km/h (2 Bft) 97,87 %
19.07.2019 18:02 26,3 C 25,0 C 27,2 C 46 % 1012,7 hPa 0,0 l/m 4,6 km/h (1 Bft) O-NO 59 0 min 0,000 mm 0,7 UV-I 179 W/m 13,7 C 26,3 C 6,4 km/h (2 Bft) 95,74 %
19.07.2019 18:04 26,3 C 25,0 C 27,2 C 46 % 1012,7 hPa 0,0 l/m 5,3 km/h (1 Bft) NO 53 0 min 0,000 mm 0,6 UV-I 181 W/m 13,7 C 26,3 C 6,4 km/h (2 Bft) 97,87 %
19.07.2019 18:06 26,3 C 25,0 C 27,2 C 47 % 1012,8 hPa 0,0 l/m 4,8 km/h (1 Bft) NO 52 0 min 0,000 mm 0,6 UV-I 179 W/m 14,1 C 26,3 C 8,0 km/h (2 Bft) 95,74 %
19.07.2019 18:08 26,3 C 25,0 C 27,2 C 47 % 1012,8 hPa 0,0 l/m 4,3 km/h (1 Bft) NO 41 0 min 0,000 mm 0,6 UV-I 177 W/m 14,1 C 26,3 C 6,4 km/h (2 Bft) 95,74 %
19.07.2019 18:10 26,3 C 25,0 C 27,2 C 48 % 1012,8 hPa 0,0 l/m 5,6 km/h (1 Bft) NO 52 0 min 0,000 mm 0,6 UV-I 174 W/m 14,4 C 26,3 C 8,0 km/h (2 Bft) 100,00 %
19.07.2019 18:12 26,2 C 25,0 C 26,7 C 48 % 1012,8 hPa 0,0 l/m 6,0 km/h (2 Bft) NO 45 0 min 0,000 mm 0,6 UV-I 173 W/m 14,3 C 26,2 C 8,0 km/h (2 Bft) 100,00 %
19.07.2019 18:14 26,2 C 25,0 C 26,7 C 48 % 1012,8 hPa 0,0 l/m 7,0 km/h (2 Bft) NO 36 0 min 0,000 mm 0,5 UV-I 171 W/m 14,3 C 26,1 C 9,7 km/h (2 Bft) 97,87 %
19.07.2019 18:16 26,1 C 25,0 C 26,7 C 48 % 1012,8 hPa 0,0 l/m 4,9 km/h (1 Bft) NO 45 0 min 0,000 mm 0,5 UV-I 175 W/m 14,2 C 26,1 C 8,0 km/h (2 Bft) 100,00 %
19.07.2019 18:18 26,1 C 25,0 C 26,7 C 47 % 1012,8 hPa 0,0 l/m 6,6 km/h (2 Bft) NO 38 0 min 0,000 mm 0,5 UV-I 189 W/m 13,9 C 26,1 C 9,7 km/h (2 Bft) 98,00 %
19.07.2019 18:20 26,1 C 25,0 C 26,7 C 47 % 1012,9 hPa 0,0 l/m 5,5 km/h (1 Bft) NO 50 0 min 0,000 mm 0,5 UV-I 200 W/m 13,9 C 26,1 C 8,0 km/h (2 Bft) 100,00 %
19.07.2019 18:22 26,1 C 25,0 C 27,2 C 47 % 1012,9 hPa 0,0 l/m 5,8 km/h (2 Bft) NO 45 0 min 0,000 mm 0,5 UV-I 208 W/m 13,9 C 26,1 C 8,0 km/h (2 Bft) 95,74 %
19.07.2019 18:24 26,2 C 25,0 C 28,3 C 47 % 1012,8 hPa 0,0 l/m 6,1 km/h (2 Bft) NO 51 2 min 0,000 mm 0,6 UV-I 288 W/m 14,0 C 26,2 C 8,0 km/h (2 Bft) 100,00 %
19.07.2019 18:26 26,3 C 25,0 C 29,4 C 46 % 1012,8 hPa 0,0 l/m 5,2 km/h (1 Bft) NO 44 2 min 0,000 mm 0,6 UV-I 305 W/m 13,7 C 26,3 C 8,0 km/h (2 Bft) 97,87 %
19.07.2019 18:28 26,6 C 25,0 C 30,0 C 49 % 1012,8 hPa 0,0 l/m 5,8 km/h (2 Bft) NO 38 2 min 0,000 mm 0,6 UV-I 270 W/m 15,0 C 26,6 C 8,0 km/h (2 Bft) 100,00 %
19.07.2019 18:30 26,6 C 25,0 C 29,4 C 46 % 1012,8 hPa 0,0 l/m 6,6 km/h (2 Bft) N-NO 31 2 min 0,000 mm 0,6 UV-I 263 W/m 14,0 C 26,6 C 12,9 km/h (3 Bft) 100,00 %
19.07.2019 18:32 26,7 C 25,0 C 29,4 C 45 % 1012,8 hPa 0,0 l/m 7,7 km/h (2 Bft) NO 39 2 min 0,000 mm 0,6 UV-I 278 W/m 13,8 C 26,4 C 11,3 km/h (2 Bft) 100,00 %
19.07.2019 18:34 26,7 C 25,0 C 29,4 C 46 % 1012,8 hPa 0,0 l/m 6,3 km/h (2 Bft) NO 38 2 min 0,000 mm 0,6 UV-I 308 W/m 14,1 C 26,7 C 8,0 km/h (2 Bft) 97,92 %
19.07.2019 18:36 26,7 C 25,0 C 30,0 C 47 % 1012,8 hPa 0,0 l/m 5,0 km/h (1 Bft) NO 36 2 min 0,000 mm 0,6 UV-I 309 W/m 14,4 C 26,7 C 6,4 km/h (2 Bft) 100,00 %
19.07.2019 18:38 26,9 C 25,0 C 31,7 C 46 % 1012,8 hPa 0,0 l/m 6,0 km/h (2 Bft) NO 41 2 min 0,000 mm 0,6 UV-I 373 W/m 14,3 C 26,9 C 9,7 km/h (2 Bft) 97,92 %
19.07.2019 18:40 26,9 C 25,0 C 30,6 C 44 % 1012,8 hPa 0,0 l/m 7,6 km/h (2 Bft) NO 34 2 min 0,000 mm 0,6 UV-I 298 W/m 13,6 C 26,7 C 9,7 km/h (2 Bft) 97,37 %
19.07.2019 18:42 27,0 C 25,0 C 31,7 C 44 % 1012,8 hPa 0,0 l/m 7,3 km/h (2 Bft) NO 52 2 min 0,000 mm 0,6 UV-I 378 W/m 13,7 C 26,8 C 9,7 km/h (2 Bft) 100,00 %
19.07.2019 18:44 27,1 C 25,0 C 31,7 C 46 % 1012,8 hPa 0,0 l/m 8,3 km/h (2 Bft) NO 49 2 min 0,000 mm 0,6 UV-I 366 W/m 14,5 C 26,8 C 11,3 km/h (2 Bft) 100,00 %
19.07.2019 18:46 27,0 C 25,0 C 31,1 C 45 % 1012,8 hPa 0,0 l/m 8,2 km/h (2 Bft) NO 51 2 min 0,000 mm 0,5 UV-I 337 W/m 14,0 C 26,7 C 11,3 km/h (2 Bft) 97,87 %
19.07.2019 18:48 26,9 C 25,0 C 31,1 C 46 % 1012,8 hPa 0,0 l/m 10,9 km/h (2 Bft) NO 40 2 min 0,000 mm 0,5 UV-I 337 W/m 14,3 C 26,1 C 16,1 km/h (3 Bft) 98,00 %
19.07.2019 18:50 26,9 C 25,0 C 30,6 C 45 % 1012,8 hPa 0,0 l/m 10,4 km/h (2 Bft) NO 40 2 min 0,000 mm 0,5 UV-I 298 W/m 13,9 C 26,2 C 16,1 km/h (3 Bft) 100,00 %
19.07.2019 18:52 26,9 C 24,4 C 31,1 C 46 % 1012,8 hPa 0,0 l/m 7,6 km/h (2 Bft) N 9 2 min 0,000 mm 0,5 UV-I 321 W/m 14,3 C 26,7 C 12,9 km/h (3 Bft) 97,87 %
19.07.2019 18:54 26,9 C 24,4 C 31,1 C 46 % 1012,8 hPa 0,0 l/m 6,4 km/h (2 Bft) NO 34 2 min 0,000 mm 0,5 UV-I 314 W/m 14,3 C 26,9 C 9,7 km/h (2 Bft) 100,00 %
19.07.2019 18:56 26,9 C 25,0 C 31,1 C 46 % 1012,8 hPa 0,0 l/m 5,7 km/h (1 Bft) N-NO 24 2 min 0,000 mm 0,5 UV-I 289 W/m 14,3 C 26,9 C 9,7 km/h (2 Bft) 100,00 %
19.07.2019 18:58 26,9 C 25,0 C 31,1 C 45 % 1012,8 hPa 0,0 l/m 5,3 km/h (1 Bft) O-NO 57 2 min 0,000 mm 0,1 UV-I 270 W/m 13,9 C 26,9 C 8,0 km/h (2 Bft) 97,87 %
19.07.2019 19:00 26,8 C 25,0 C 30,0 C 45 % 1012,8 hPa 0,0 l/m 4,3 km/h (1 Bft) N-NO 31 2 min 0,000 mm 0,0 UV-I 188 W/m 13,9 C 26,8 C 6,4 km/h (2 Bft) 97,87 %
19.07.2019 19:02 26,7 C 25,0 C 28,9 C 46 % 1012,9 hPa 0,0 l/m 3,3 km/h (1 Bft) NO 51 0 min 0,228 mm 0,0 UV-I 145 W/m 14,1 C 26,7 C 6,4 km/h (2 Bft) 96,00 %
19.07.2019 19:04 26,5 C 25,0 C 28,3 C 47 % 1012,9 hPa 0,0 l/m 6,4 km/h (2 Bft) NO 52 2 min 0,000 mm 0,0 UV-I 167 W/m 14,3 C 26,5 C 9,7 km/h (2 Bft) 100,00 %
19.07.2019 19:06 26,3 C 25,0 C 29,4 C 47 % 1012,9 hPa 0,0 l/m 6,3 km/h (2 Bft) N-NO 33 2 min 0,000 mm 0,0 UV-I 226 W/m 14,1 C 26,3 C 8,0 km/h (2 Bft) 97,87 %
19.07.2019 19:08 26,4 C 25,0 C 30,0 C 45 % 1012,9 hPa 0,0 l/m 5,6 km/h (1 Bft) NO 40 2 min 0,000 mm 0,0 UV-I 240 W/m 13,5 C 26,4 C 8,0 km/h (2 Bft) 97,44 %
19.07.2019 19:10 26,5 C 25,0 C 30,0 C 45 % 1012,9 hPa 0,0 l/m 4,3 km/h (1 Bft) NO 40 2 min 0,000 mm 0,0 UV-I 230 W/m 13,6 C 26,5 C 6,4 km/h (2 Bft) 97,87 %
19.07.2019 19:12 26,5 C 25,0 C 30,0 C 46 % 1012,9 hPa 0,0 l/m 5,6 km/h (1 Bft) NO 40 2 min 0,000 mm 0,0 UV-I 214 W/m 13,9 C 26,5 C 8,0 km/h (2 Bft) 97,87 %
19.07.2019 19:14 26,4 C 25,0 C 30,0 C 46 % 1012,9 hPa 0,0 l/m 5,3 km/h (1 Bft) NO 40 2 min 0,000 mm 0,0 UV-I 185 W/m 13,8 C 26,4 C 6,4 km/h (2 Bft) 98,00 %
19.07.2019 19:16 26,4 C 24,4 C 30,0 C 46 % 1012,9 hPa 0,0 l/m 3,9 km/h (1 Bft) NO 40 2 min 0,000 mm 0,0 UV-I 169 W/m 13,8 C 26,4 C 6,4 km/h (2 Bft) 95,74 %
19.07.2019 19:18 26,4 C 24,4 C 30,0 C 46 % 1012,9 hPa 0,0 l/m 4,1 km/h (1 Bft) O 88 2 min 0,000 mm 0,0 UV-I 156 W/m 13,8 C 26,4 C 4,8 km/h (1 Bft) 97,87 %
19.07.2019 19:20 26,4 C 24,4 C 29,4 C 45 % 1012,9 hPa 0,0 l/m 6,5 km/h (2 Bft) O 90 2 min 0,000 mm 0,0 UV-I 154 W/m 13,5 C 26,4 C 11,3 km/h (2 Bft) 97,87 %
19.07.2019 19:22 26,3 C 25,0 C 29,4 C 46 % 1012,9 hPa 0,0 l/m 5,2 km/h (1 Bft) O 94 2 min 0,000 mm 0,0 UV-I 146 W/m 13,7 C 26,3 C 9,7 km/h (2 Bft) 95,74 %
19.07.2019 19:24 26,3 C 25,0 C 29,4 C 45 % 1012,9 hPa 0,0 l/m 3,5 km/h (1 Bft) O 91 2 min 0,000 mm 0,0 UV-I 146 W/m 13,4 C 26,3 C 4,8 km/h (1 Bft) 98,00 %
19.07.2019 19:26 26,3 C 24,4 C 28,9 C 45 % 1012,9 hPa 0,0 l/m 3,9 km/h (1 Bft) O 96 2 min 0,000 mm 0,0 UV-I 125 W/m 13,4 C 26,3 C 6,4 km/h (2 Bft) 97,87 %
19.07.2019 19:28 26,2 C 24,4 C 28,9 C 46 % 1012,9 hPa 0,0 l/m 4,1 km/h (1 Bft) O 95 2 min 0,000 mm 0,0 UV-I 142 W/m 13,6 C 26,2 C 6,4 km/h (2 Bft) 97,87 %
19.07.2019 19:30 26,1 C 24,4 C 28,9 C 48 % 1012,9 hPa 0,0 l/m 5,1 km/h (1 Bft) NO 48 2 min 0,000 mm 0,0 UV-I 148 W/m 14,2 C 26,1 C 8,0 km/h (2 Bft) 97,87 %
19.07.2019 19:32 26,0 C 24,4 C 28,9 C 47 % 1012,9 hPa 0,0 l/m 6,0 km/h (2 Bft) O 82 2 min 0,000 mm 0,0 UV-I 147 W/m 13,8 C 26,0 C 8,0 km/h (2 Bft) 97,87 %
19.07.2019 19:34 26,0 C 24,4 C 28,9 C 47 % 1012,9 hPa 0,0 l/m 4,9 km/h (1 Bft) O-NO 76 2 min 0,000 mm 0,0 UV-I 147 W/m 13,8 C 26,0 C 6,4 km/h (2 Bft) 95,74 %
19.07.2019 19:36 26,0 C 24,4 C 28,9 C 47 % 1013,0 hPa 0,0 l/m 4,6 km/h (1 Bft) NO 53 2 min 0,000 mm 0,0 UV-I 153 W/m 13,8 C 26,0 C 6,4 km/h (2 Bft) 95,74 %
19.07.2019 19:38 25,9 C 24,4 C 28,9 C 48 % 1013,0 hPa 0,0 l/m 3,7 km/h (1 Bft) O-NO 57 2 min 0,000 mm 0,0 UV-I 148 W/m 14,0 C 25,9 C 4,8 km/h (1 Bft) 97,87 %
19.07.2019 19:40 25,9 C 24,4 C 28,3 C 47 % 1013,0 hPa 0,0 l/m 4,0 km/h (1 Bft) O-NO 68 2 min 0,000 mm 0,0 UV-I 139 W/m 13,7 C 25,9 C 6,4 km/h (2 Bft) 97,37 %
19.07.2019 19:42 25,9 C 24,4 C 28,3 C 48 % 1013,0 hPa 0,0 l/m 3,7 km/h (1 Bft) O-NO 68 2 min 0,000 mm 0,0 UV-I 130 W/m 14,0 C 25,9 C 4,8 km/h (1 Bft) 97,87 %
19.07.2019 19:44 25,8 C 24,4 C 28,3 C 48 % 1013,0 hPa 0,0 l/m 3,8 km/h (1 Bft) O-NO 75 2 min 0,000 mm 0,0 UV-I 109 W/m 13,9 C 25,8 C 4,8 km/h (1 Bft) 97,87 %
19.07.2019 19:46 25,8 C 24,4 C 27,2 C 47 % 1013,0 hPa 0,0 l/m 4,1 km/h (1 Bft) O-NO 75 2 min 0,000 mm 0,0 UV-I 96 W/m 13,6 C 25,8 C 4,8 km/h (1 Bft) 93,62 %
19.07.2019 19:48 25,8 C 24,4 C 26,7 C 48 % 1012,9 hPa 0,0 l/m 3,7 km/h (1 Bft) O-NO 75 2 min 0,000 mm 0,0 UV-I 91 W/m 13,9 C 25,8 C 4,8 km/h (1 Bft) 95,83 %
19.07.2019 19:50 25,7 C 24,4 C 26,7 C 50 % 1012,9 hPa 0,0 l/m 3,6 km/h (1 Bft) O 90 2 min 0,000 mm 0,0 UV-I 97 W/m 14,5 C 25,7 C 6,4 km/h (2 Bft) 95,74 %
19.07.2019 19:52 25,6 C 24,4 C 26,7 C 50 % 1012,9 hPa 0,0 l/m 3,0 km/h (1 Bft) O 90 2 min 0,000 mm 0,0 UV-I 92 W/m 14,4 C 25,6 C 4,8 km/h (1 Bft) 97,87 %
19.07.2019 19:54 25,5 C 24,4 C 26,1 C 50 % 1013,0 hPa 0,0 l/m 3,4 km/h (1 Bft) O 90 2 min 0,000 mm 0,0 UV-I 91 W/m 14,3 C 25,5 C 4,8 km/h (1 Bft) 95,74 %
19.07.2019 19:56 25,4 C 24,4 C 26,1 C 50 % 1013,0 hPa 0,0 l/m 2,9 km/h (1 Bft) O 90 2 min 0,000 mm 0,0 UV-I 87 W/m 14,2 C 25,4 C 4,8 km/h (1 Bft) 93,62 %
19.07.2019 19:58 25,4 C 24,4 C 26,1 C 50 % 1013,0 hPa 0,0 l/m 3,0 km/h (1 Bft) O 94 2 min 0,000 mm 0,0 UV-I 92 W/m 14,2 C 25,4 C 4,8 km/h (1 Bft) 97,87 %
19.07.2019 20:00 25,4 C 24,4 C 26,1 C 50 % 1013,0 hPa 0,0 l/m 3,3 km/h (1 Bft) O-SO 102 2 min 0,127 mm 0,0 UV-I 87 W/m 14,2 C 25,4 C 6,4 km/h (2 Bft) 98,00 %
19.07.2019 20:02 25,4 C 24,4 C 26,1 C 49 % 1013,0 hPa 0,0 l/m 4,2 km/h (1 Bft) O-NO 57 2 min 0,000 mm 0,0 UV-I 78 W/m 13,9 C 25,4 C 6,4 km/h (2 Bft) 96,00 %
19.07.2019 20:04 25,4 C 24,4 C 25,6 C 50 % 1013,0 hPa 0,0 l/m 3,7 km/h (1 Bft) O 80 2 min 0,000 mm 0,0 UV-I 72 W/m 14,2 C 25,4 C 4,8 km/h (1 Bft) 100,00 %
19.07.2019 20:06 25,3 C 24,4 C 25,0 C 51 % 1013,0 hPa 0,0 l/m 3,7 km/h (1 Bft) O 82 2 min 0,000 mm 0,0 UV-I 64 W/m 14,4 C 25,3 C 4,8 km/h (1 Bft) 98,00 %
19.07.2019 20:09 25,1 C 24,4 C 24,4 C 51 % 1013,0 hPa 0,0 l/m 3,2 km/h (1 Bft) O 82 0 min 0,000 mm 0,0 UV-I 56 W/m 14,2 C 25,1 C 6,4 km/h (2 Bft) 94,37 %
19.07.2019 20:10 25,0 C 24,4 C 24,4 C 52 % 1013,0 hPa 0,0 l/m 1,9 km/h (1 Bft) O 82 0 min 0,000 mm 0,0 UV-I 50 W/m 14,4 C 25,0 C 3,2 km/h (1 Bft) 95,65 %
19.07.2019 20:12 24,8 C 24,4 C 23,9 C 52 % 1013,0 hPa 0,0 l/m 2,5 km/h (1 Bft) O 82 0 min 0,000 mm 0,0 UV-I 47 W/m 14,3 C 24,8 C 4,8 km/h (1 Bft) 95,74 %
19.07.2019 20:14 24,7 C 24,4 C 23,9 C 52 % 1013,0 hPa 0,0 l/m 2,8 km/h (1 Bft) O 82 0 min 0,000 mm 0,0 UV-I 44 W/m 14,2 C 24,7 C 4,8 km/h (1 Bft) 93,62 %
19.07.2019 20:16 24,7 C 24,4 C 23,3 C 53 % 1012,9 hPa 0,0 l/m 2,7 km/h (1 Bft) O 82 0 min 0,000 mm 0,0 UV-I 41 W/m 14,5 C 24,7 C 4,8 km/h (1 Bft) 97,87 %
19.07.2019 20:18 24,6 C 24,4 C 23,3 C 52 % 1013,0 hPa 0,0 l/m 2,4 km/h (1 Bft) O 82 0 min 0,000 mm 0,0 UV-I 39 W/m 14,1 C 24,6 C 4,8 km/h (1 Bft) 97,87 %
19.07.2019 20:20 24,6 C 24,4 C 22,8 C 52 % 1013,0 hPa 0,0 l/m 1,2 km/h (1 Bft) O 82 0 min 0,000 mm 0,0 UV-I 37 W/m 14,1 C 24,6 C 3,2 km/h (1 Bft) 95,74 %
19.07.2019 20:22 24,6 C 24,4 C 22,8 C 52 % 1013,0 hPa 0,0 l/m 1,4 km/h (1 Bft) O 82 0 min 0,000 mm 0,0 UV-I 34 W/m 14,1 C 24,6 C 3,2 km/h (1 Bft) 98,00 %
19.07.2019 20:24 24,5 C 24,4 C 22,2 C 53 % 1013,0 hPa 0,0 l/m 1,3 km/h (1 Bft) O 82 0 min 0,000 mm 0,0 UV-I 32 W/m 14,3 C 24,5 C 1,6 km/h (1 Bft) 97,87 %
19.07.2019 20:26 24,4 C 24,4 C 22,2 C 53 % 1013,0 hPa 0,0 l/m 2,1 km/h (1 Bft) O 82 0 min 0,000 mm 0,0 UV-I 27 W/m 14,2 C 24,4 C 3,2 km/h (1 Bft) 97,44 %
19.07.2019 20:28 24,3 C 24,4 C 21,7 C 54 % 1013,0 hPa 0,0 l/m 2,6 km/h (1 Bft) O 82 0 min 0,000 mm 0,0 UV-I 25 W/m 14,4 C 24,3 C 3,2 km/h (1 Bft) 97,87 %
19.07.2019 20:30 24,2 C 24,4 C 21,7 C 54 % 1013,0 hPa 0,0 l/m 2,0 km/h (1 Bft) O 82 0 min 0,000 mm 0,0 UV-I 24 W/m 14,3 C 24,2 C 3,2 km/h (1 Bft) 97,87 %
19.07.2019 20:32 24,2 C 24,4 C 21,1 C 54 % 1013,0 hPa 0,0 l/m 2,2 km/h (1 Bft) O 82 0 min 0,000 mm 0,0 UV-I 22 W/m 14,3 C 24,2 C 3,2 km/h (1 Bft) 95,74 %
19.07.2019 20:34 24,1 C 24,4 C 21,1 C 54 % 1013,0 hPa 0,0 l/m 1,4 km/h (1 Bft) O 82 0 min 0,000 mm 0,0 UV-I 20 W/m 14,2 C 24,1 C 3,2 km/h (1 Bft) 97,87 %
19.07.2019 20:36 24,1 C 24,4 C 21,1 C 54 % 1013,0 hPa 0,0 l/m 1,9 km/h (1 Bft) O 82 0 min 0,000 mm 0,0 UV-I 18 W/m 14,2 C 24,1 C 4,8 km/h (1 Bft) 95,74 %
19.07.2019 20:38 24,0 C 24,4 C 20,6 C 54 % 1013,0 hPa 0,0 l/m 3,1 km/h (1 Bft) O 82 0 min 0,000 mm 0,0 UV-I 16 W/m 14,1 C 24,0 C 4,8 km/h (1 Bft) 95,74 %
19.07.2019 20:40 24,0 C 24,4 C 20,6 C 53 % 1013,0 hPa 0,0 l/m 2,8 km/h (1 Bft) O 82 2 min 0,000 mm 0,0 UV-I 14 W/m 13,8 C 24,0 C 4,8 km/h (1 Bft) 93,62 %
19.07.2019 20:42 24,0 C 24,4 C 20,6 C 54 % 1013,0 hPa 0,0 l/m 2,0 km/h (1 Bft) O 82 2 min 0,000 mm 0,0 UV-I 12 W/m 14,1 C 24,0 C 3,2 km/h (1 Bft) 96,00 %
19.07.2019 20:44 23,8 C 24,4 C 20,6 C 54 % 1013,0 hPa 0,0 l/m 2,0 km/h (1 Bft) O 82 2 min 0,000 mm 0,0 UV-I 12 W/m 13,9 C 23,8 C 3,2 km/h (1 Bft) 95,74 %
19.07.2019 20:46 23,8 C 24,4 C 20,0 C 54 % 1013,1 hPa 0,0 l/m 2,4 km/h (1 Bft) O 82 0 min 0,000 mm 0,0 UV-I 11 W/m 13,9 C 23,8 C 3,2 km/h (1 Bft) 95,74 %
19.07.2019 20:48 23,7 C 24,4 C 20,0 C 55 % 1013,1 hPa 0,0 l/m 2,3 km/h (1 Bft) O 82 0 min 0,000 mm 0,0 UV-I 9 W/m 14,1 C 23,7 C 3,2 km/h (1 Bft) 95,74 %
19.07.2019 20:50 23,7 C 24,4 C 20,0 C 55 % 1013,0 hPa 0,0 l/m 1,6 km/h (1 Bft) O 82 0 min 0,000 mm 0,0 UV-I 9 W/m 14,1 C 23,7 C 3,2 km/h (1 Bft) 95,74 %
19.07.2019 20:52 23,6 C 24,4 C 19,4 C 55 % 1013,2 hPa 0,0 l/m 1,9 km/h (1 Bft) O 82 0 min 0,000 mm 0,0 UV-I 8 W/m 14,0 C 23,6 C 3,2 km/h (1 Bft) 93,62 %
19.07.2019 20:54 23,6 C 24,4 C 19,4 C 55 % 1013,1 hPa 0,0 l/m 1,2 km/h (1 Bft) O 82 0 min 0,000 mm 0,0 UV-I 7 W/m 14,0 C 23,6 C 3,2 km/h (1 Bft) 95,74 %
19.07.2019 20:56 23,6 C 24,4 C 19,4 C 55 % 1013,1 hPa 0,0 l/m 1,9 km/h (1 Bft) O 82 0 min 0,000 mm 0,0 UV-I 6 W/m 14,0 C 23,6 C 3,2 km/h (1 Bft) 93,62 %
19.07.2019 20:58 23,6 C 24,4 C 19,4 C 55 % 1013,0 hPa 0,0 l/m 2,0 km/h (1 Bft) O 82 0 min 0,000 mm 0,0 UV-I 5 W/m 14,0 C 23,6 C 3,2 km/h (1 Bft) 91,49 %
19.07.2019 21:00 23,5 C 24,4 C 19,4 C 56 % 1013,1 hPa 0,0 l/m 2,3 km/h (1 Bft) O 82 0 min 0,000 mm 0,0 UV-I 5 W/m 14,2 C 23,5 C 3,2 km/h (1 Bft) 94,00 %
19.07.2019 21:02 23,3 C 24,4 C 19,4 C 56 % 1013,1 hPa 0,0 l/m 2,9 km/h (1 Bft) O 82 0 min 0,051 mm 0,0 UV-I 5 W/m 14,0 C 23,3 C 3,2 km/h (1 Bft) 95,12 %
19.07.2019 21:04 23,1 C 24,4 C 19,4 C 56 % 1013,1 hPa 0,0 l/m 2,3 km/h (1 Bft) O 82 0 min 0,000 mm 0,0 UV-I 5 W/m 13,8 C 23,1 C 3,2 km/h (1 Bft) 95,83 %
19.07.2019 21:06 23,0 C 24,4 C 19,4 C 57 % 1013,1 hPa 0,0 l/m 2,6 km/h (1 Bft) O 82 0 min 0,000 mm 0,0 UV-I 3 W/m 14,0 C 23,0 C 4,8 km/h (1 Bft) 95,74 %
19.07.2019 21:08 23,0 C 24,4 C 19,4 C 57 % 1013,1 hPa 0,0 l/m 1,9 km/h (1 Bft) O 82 0 min 0,000 mm 0,0 UV-I 0 W/m 14,0 C 23,0 C 3,2 km/h (1 Bft) 97,87 %
19.07.2019 21:10 23,0 C 24,4 C 19,4 C 57 % 1013,1 hPa 0,0 l/m 1,3 km/h (1 Bft) O 82 0 min 0,000 mm 0,0 UV-I 0 W/m 14,0 C 23,0 C 3,2 km/h (1 Bft) 97,87 %
19.07.2019 21:12 23,1 C 24,4 C 19,4 C 56 % 1013,2 hPa 0,0 l/m 1,2 km/h (1 Bft) O 82 0 min 0,000 mm 0,0 UV-I 0 W/m 13,8 C 23,1 C 1,6 km/h (1 Bft) 98,00 %
19.07.2019 21:14 23,1 C 24,4 C 19,4 C 57 % 1013,2 hPa 0,0 l/m 0,7 km/h (0 Bft) O 82 0 min 0,000 mm 0,0 UV-I 0 W/m 14,1 C 23,1 C 1,6 km/h (1 Bft) 97,87 %
19.07.2019 21:16 23,1 C 24,4 C 19,4 C 56 % 1013,3 hPa 0,0 l/m 0,9 km/h (0 Bft) O 82 0 min 0,000 mm 0,0 UV-I 0 W/m 13,8 C 23,1 C 1,6 km/h (1 Bft) 94,74 %
19.07.2019 21:18 23,2 C 24,4 C 19,4 C 56 % 1013,3 hPa 0,0 l/m 2,0 km/h (1 Bft) O 82 0 min 0,000 mm 0,0 UV-I 0 W/m 13,9 C 23,2 C 3,2 km/h (1 Bft) 100,00 %
19.07.2019 21:20 23,2 C 24,4 C 19,4 C 55 % 1013,2 hPa 0,0 l/m 2,2 km/h (1 Bft) O 82 0 min 0,000 mm 0,0 UV-I 0 W/m 13,6 C 23,2 C 3,2 km/h (1 Bft) 100,00 %
19.07.2019 21:22 23,2 C 24,4 C 19,4 C 56 % 1013,3 hPa 0,0 l/m 1,7 km/h (1 Bft) O 82 0 min 0,000 mm 0,0 UV-I 0 W/m 13,9 C 23,2 C 3,2 km/h (1 Bft) 100,00 %
19.07.2019 21:24 22,8 C 24,4 C 19,4 C 59 % 1013,3 hPa 0,0 l/m 0,4 km/h (0 Bft) O 82 0 min 0,000 mm 0,0 UV-I 0 W/m 14,4 C 22,8 C 1,6 km/h (1 Bft) 100,00 %
19.07.2019 21:26 22,4 C 24,4 C 19,4 C 60 % 1013,3 hPa 0,0 l/m 0,2 km/h (0 Bft) O 82 0 min 0,000 mm 0,0 UV-I 0 W/m 14,2 C 22,4 C 1,6 km/h (1 Bft) 97,87 %
19.07.2019 21:28 22,1 C 24,4 C 19,4 C 62 % 1013,3 hPa 0,0 l/m 2,5 km/h (1 Bft) O 82 0 min 0,000 mm 0,0 UV-I 0 W/m 14,5 C 22,1 C 3,2 km/h (1 Bft) 93,62 %
19.07.2019 21:30 21,8 C 24,4 C 19,4 C 62 % 1013,3 hPa 0,0 l/m 3,2 km/h (1 Bft) O 82 0 min 0,000 mm 0,0 UV-I 0 W/m 14,2 C 21,8 C 4,8 km/h (1 Bft) 98,11 %
19.07.2019 21:32 21,7 C 24,4 C 19,4 C 62 % 1013,3 hPa 0,0 l/m 3,0 km/h (1 Bft) O 82 0 min 0,000 mm 0,0 UV-I 0 W/m 14,1 C 21,7 C 4,8 km/h (1 Bft) 97,87 %
19.07.2019 21:34 21,9 C 24,4 C 19,4 C 58 % 1013,4 hPa 0,0 l/m 2,6 km/h (1 Bft) O 82 0 min 0,000 mm 0,0 UV-I 0 W/m 13,3 C 21,9 C 3,2 km/h (1 Bft) 93,62 %
19.07.2019 21:36 22,3 C 24,4 C 19,4 C 58 % 1013,4 hPa 0,0 l/m 2,4 km/h (1 Bft) O 82 0 min 0,000 mm 0,0 UV-I 0 W/m 13,6 C 22,3 C 3,2 km/h (1 Bft) 97,37 %
19.07.2019 21:38 22,3 C 24,4 C 19,4 C 58 % 1013,4 hPa 0,0 l/m 2,3 km/h (1 Bft) O 82 0 min 0,000 mm 0,0 UV-I 0 W/m 13,6 C 22,3 C 3,2 km/h (1 Bft) 97,92 %
19.07.2019 21:40 22,3 C 24,4 C 18,9 C 58 % 1013,4 hPa 0,0 l/m 2,5 km/h (1 Bft) O 82 0 min 0,000 mm 0,0 UV-I 0 W/m 13,6 C 22,3 C 3,2 km/h (1 Bft) 95,74 %
19.07.2019 21:42 22,3 C 24,4 C 18,9 C 57 % 1013,4 hPa 0,0 l/m 2,1 km/h (1 Bft) O 82 0 min 0,000 mm 0,0 UV-I 0 W/m 13,4 C 22,3 C 4,8 km/h (1 Bft) 97,87 %
19.07.2019 21:44 22,4 C 24,4 C 18,9 C 57 % 1013,4 hPa 0,0 l/m 2,7 km/h (1 Bft) O 82 0 min 0,000 mm 0,0 UV-I 0 W/m 13,5 C 22,4 C 4,8 km/h (1 Bft) 96,00 %
19.07.2019 21:46 22,6 C 24,4 C 18,9 C 56 % 1013,4 hPa 0,0 l/m 2,6 km/h (1 Bft) O 82 0 min 0,000 mm 0,0 UV-I 0 W/m 13,4 C 22,6 C 3,2 km/h (1 Bft) 97,87 %
19.07.2019 21:48 22,7 C 24,4 C 18,9 C 55 % 1013,4 hPa 0,0 l/m 2,5 km/h (1 Bft) O 82 0 min 0,000 mm 0,0 UV-I 0 W/m 13,2 C 22,7 C 3,2 km/h (1 Bft) 97,87 %
19.07.2019 21:50 22,8 C 24,4 C 19,4 C 55 % 1013,4 hPa 0,0 l/m 2,9 km/h (1 Bft) O 82 0 min 0,000 mm 0,0 UV-I 0 W/m 13,3 C 22,8 C 4,8 km/h (1 Bft) 95,74 %
19.07.2019 21:52 22,8 C 24,4 C 19,4 C 55 % 1013,4 hPa 0,0 l/m 3,2 km/h (1 Bft) O 82 0 min 0,000 mm 0,0 UV-I 0 W/m 13,3 C 22,8 C 4,8 km/h (1 Bft) 97,87 %
19.07.2019 21:54 22,7 C 24,4 C 19,4 C 55 % 1013,4 hPa 0,0 l/m 2,6 km/h (1 Bft) O 82 0 min 0,000 mm 0,0 UV-I 0 W/m 13,2 C 22,7 C 4,8 km/h (1 Bft) 93,62 %
19.07.2019 21:56 22,6 C 24,4 C 18,9 C 56 % 1013,5 hPa 0,0 l/m 2,8 km/h (1 Bft) O 82 0 min 0,000 mm 0,0 UV-I 0 W/m 13,4 C 22,6 C 4,8 km/h (1 Bft) 93,62 %
19.07.2019 21:58 22,6 C 24,4 C 18,9 C 57 % 1013,4 hPa 0,0 l/m 2,2 km/h (1 Bft) O 82 0 min 0,000 mm 0,0 UV-I 0 W/m 13,6 C 22,6 C 3,2 km/h (1 Bft) 97,87 %
19.07.2019 22:00 22,4 C 24,4 C 18,9 C 57 % 1013,5 hPa 0,0 l/m 2,5 km/h (1 Bft) O 82 0 min 0,000 mm 0,0 UV-I 0 W/m 13,5 C 22,4 C 3,2 km/h (1 Bft) 97,87 %
19.07.2019 22:02 22,4 C 24,4 C 18,9 C 57 % 1013,5 hPa 0,0 l/m 3,5 km/h (1 Bft) O 82 0 min 0,026 mm 0,0 UV-I 0 W/m 13,5 C 22,4 C 4,8 km/h (1 Bft) 100,00 %
19.07.2019 22:04 22,4 C 24,4 C 18,9 C 57 % 1013,5 hPa 0,0 l/m 4,4 km/h (1 Bft) O 83 0 min 0,000 mm 0,0 UV-I 0 W/m 13,5 C 22,4 C 6,4 km/h (2 Bft) 97,87 %
19.07.2019 22:06 22,4 C 24,4 C 18,9 C 57 % 1013,5 hPa 0,0 l/m 3,7 km/h (1 Bft) O 83 0 min 0,000 mm 0,0 UV-I 0 W/m 13,5 C 22,4 C 4,8 km/h (1 Bft) 100,00 %
19.07.2019 22:08 22,4 C 24,4 C 19,4 C 57 % 1013,5 hPa 0,0 l/m 3,9 km/h (1 Bft) O 85 0 min 0,000 mm 0,0 UV-I 0 W/m 13,5 C 22,4 C 6,4 km/h (2 Bft) 100,00 %
19.07.2019 22:10 22,3 C 24,4 C 19,4 C 58 % 1013,4 hPa 0,0 l/m 4,4 km/h (1 Bft) O-SO 102 0 min 0,000 mm 0,0 UV-I 0 W/m 13,6 C 22,3 C 4,8 km/h (1 Bft) 95,74 %
19.07.2019 22:12 22,3 C 24,4 C 19,4 C 58 % 1013,4 hPa 0,0 l/m 4,6 km/h (1 Bft) O-SO 102 0 min 0,000 mm 0,0 UV-I 0 W/m 13,6 C 22,3 C 6,4 km/h (2 Bft) 97,87 %
19.07.2019 22:14 22,3 C 24,4 C 19,4 C 57 % 1013,5 hPa 0,0 l/m 4,5 km/h (1 Bft) O-SO 102 0 min 0,000 mm 0,0 UV-I 0 W/m 13,4 C 22,3 C 6,4 km/h (2 Bft) 95,12 %
19.07.2019 22:16 22,3 C 24,4 C 20,0 C 57 % 1013,5 hPa 0,0 l/m 5,0 km/h (1 Bft) O 101 0 min 0,000 mm 0,0 UV-I 0 W/m 13,4 C 22,3 C 6,4 km/h (2 Bft) 98,11 %
19.07.2019 22:18 22,3 C 24,4 C 20,0 C 57 % 1013,5 hPa 0,0 l/m 5,1 km/h (1 Bft) O-SO 105 0 min 0,000 mm 0,0 UV-I 0 W/m 13,4 C 22,3 C 9,7 km/h (2 Bft) 95,74 %
19.07.2019 22:20 22,4 C 24,4 C 20,0 C 57 % 1013,4 hPa 0,0 l/m 4,3 km/h (1 Bft) O-SO 107 0 min 0,000 mm 0,0 UV-I 0 W/m 13,5 C 22,4 C 6,4 km/h (2 Bft) 97,87 %
19.07.2019 22:22 22,5 C 24,4 C 20,0 C 56 % 1013,4 hPa 0,0 l/m 5,6 km/h (1 Bft) O-SO 103 0 min 0,000 mm 0,0 UV-I 0 W/m 13,3 C 22,5 C 9,7 km/h (2 Bft) 97,87 %
19.07.2019 22:24 22,6 C 24,4 C 20,0 C 56 % 1013,5 hPa 0,0 l/m 4,6 km/h (1 Bft) O-SO 102 0 min 0,000 mm 0,0 UV-I 0 W/m 13,4 C 22,6 C 6,4 km/h (2 Bft) 95,83 %
19.07.2019 22:26 22,7 C 24,4 C 20,0 C 56 % 1013,5 hPa 0,0 l/m 3,9 km/h (1 Bft) O-SO 107 0 min 0,000 mm 0,0 UV-I 0 W/m 13,5 C 22,7 C 4,8 km/h (1 Bft) 93,62 %
19.07.2019 22:28 22,7 C 24,4 C 20,0 C 56 % 1013,4 hPa 0,0 l/m 4,0 km/h (1 Bft) O-SO 107 0 min 0,000 mm 0,0 UV-I 0 W/m 13,5 C 22,7 C 4,8 km/h (1 Bft) 95,74 %
19.07.2019 22:30 22,7 C 24,4 C 20,0 C 56 % 1013,5 hPa 0,0 l/m 4,4 km/h (1 Bft) O-SO 105 0 min 0,000 mm 0,0 UV-I 0 W/m 13,5 C 22,7 C 6,4 km/h (2 Bft) 100,00 %
19.07.2019 22:32 22,6 C 24,4 C 20,0 C 56 % 1013,4 hPa 0,0 l/m 4,1 km/h (1 Bft) O-SO 105 0 min 0,000 mm 0,0 UV-I 0 W/m 13,4 C 22,6 C 6,4 km/h (2 Bft) 96,00 %
19.07.2019 22:34 22,6 C 24,4 C 20,0 C 56 % 1013,5 hPa 0,0 l/m 3,3 km/h (1 Bft) O-SO 105 0 min 0,000 mm 0,0 UV-I 0 W/m 13,4 C 22,6 C 4,8 km/h (1 Bft) 100,00 %
19.07.2019 22:36 22,6 C 24,4 C 20,0 C 56 % 1013,5 hPa 0,0 l/m 2,5 km/h (1 Bft) O-SO 105 0 min 0,000 mm 0,0 UV-I 0 W/m 13,4 C 22,6 C 4,8 km/h (1 Bft) 100,00 %
19.07.2019 22:38 22,3 C 24,4 C 20,0 C 58 % 1013,5 hPa 0,0 l/m 3,1 km/h (1 Bft) O-SO 105 0 min 0,000 mm 0,0 UV-I 0 W/m 13,6 C 22,3 C 4,8 km/h (1 Bft) 97,87 %
19.07.2019 22:40 21,9 C 24,4 C 19,4 C 61 % 1013,5 hPa 0,0 l/m 2,8 km/h (1 Bft) O-SO 105 0 min 0,000 mm 0,0 UV-I 0 W/m 14,0 C 21,9 C 4,8 km/h (1 Bft) 100,00 %
19.07.2019 22:42 21,3 C 24,4 C 19,4 C 63 % 1013,5 hPa 0,0 l/m 3,5 km/h (1 Bft) O-SO 105 0 min 0,000 mm 0,0 UV-I 0 W/m 14,0 C 21,3 C 4,8 km/h (1 Bft) 97,87 %
19.07.2019 22:44 21,1 C 24,4 C 19,4 C 65 % 1013,5 hPa 0,0 l/m 3,6 km/h (1 Bft) O-SO 105 0 min 0,000 mm 0,0 UV-I 0 W/m 14,3 C 21,1 C 4,8 km/h (1 Bft) 100,00 %
19.07.2019 22:46 20,9 C 24,4 C 18,9 C 64 % 1013,5 hPa 0,0 l/m 3,5 km/h (1 Bft) O-SO 105 0 min 0,000 mm 0,0 UV-I 0 W/m 13,8 C 20,9 C 4,8 km/h (1 Bft) 100,00 %
19.07.2019 22:48 21,2 C 24,4 C 18,9 C 63 % 1013,5 hPa 0,0 l/m 3,3 km/h (1 Bft) O-SO 105 0 min 0,000 mm 0,0 UV-I 0 W/m 13,9 C 21,2 C 4,8 km/h (1 Bft) 100,00 %
19.07.2019 22:50 21,4 C 24,4 C 18,9 C 63 % 1013,6 hPa 0,0 l/m 3,6 km/h (1 Bft) O-SO 105 0 min 0,000 mm 0,0 UV-I 0 W/m 14,1 C 21,4 C 4,8 km/h (1 Bft) 100,00 %
19.07.2019 22:52 21,6 C 24,4 C 18,9 C 62 % 1013,6 hPa 0,0 l/m 4,0 km/h (1 Bft) O-SO 105 0 min 0,000 mm 0,0 UV-I 0 W/m 14,0 C 21,6 C 4,8 km/h (1 Bft) 98,00 %
19.07.2019 22:54 21,6 C 24,4 C 18,9 C 61 % 1013,6 hPa 0,0 l/m 3,4 km/h (1 Bft) O-SO 105 0 min 0,000 mm 0,0 UV-I 0 W/m 13,7 C 21,6 C 4,8 km/h (1 Bft) 97,87 %
19.07.2019 22:56 21,7 C 24,4 C 18,9 C 61 % 1013,6 hPa 0,0 l/m 2,4 km/h (1 Bft) O-SO 105 0 min 0,000 mm 0,0 UV-I 0 W/m 13,8 C 21,7 C 4,8 km/h (1 Bft) 97,87 %
19.07.2019 22:59 21,8 C 24,4 C 18,9 C 60 % 1013,6 hPa 0,0 l/m 2,8 km/h (1 Bft) O-SO 105 0 min 0,000 mm 0,0 UV-I 0 W/m 13,7 C 21,8 C 4,8 km/h (1 Bft) 100,00 %
19.07.2019 23:00 21,7 C 24,4 C 18,9 C 61 % 1013,6 hPa 0,0 l/m 2,8 km/h (1 Bft) O-SO 105 0 min 0,000 mm 0,0 UV-I 0 W/m 13,8 C 21,7 C 4,8 km/h (1 Bft) 100,00 %
19.07.2019 23:02 21,7 C 24,4 C 18,9 C 60 % 1013,6 hPa 0,0 l/m 3,2 km/h (1 Bft) O-SO 105 0 min 0,025 mm 0,0 UV-I 0 W/m 13,6 C 21,7 C 4,8 km/h (1 Bft) 100,00 %
19.07.2019 23:04 21,7 C 24,4 C 18,9 C 61 % 1013,6 hPa 0,0 l/m 2,5 km/h (1 Bft) O-SO 105 0 min 0,000 mm 0,0 UV-I 0 W/m 13,8 C 21,7 C 4,8 km/h (1 Bft) 100,00 %
19.07.2019 23:06 21,6 C 24,4 C 18,9 C 61 % 1013,6 hPa 0,0 l/m 1,8 km/h (1 Bft) O-SO 105 0 min 0,000 mm 0,0 UV-I 0 W/m 13,7 C 21,6 C 3,2 km/h (1 Bft) 100,00 %
19.07.2019 23:09 21,6 C 24,4 C 18,9 C 61 % 1013,7 hPa 0,0 l/m 2,5 km/h (1 Bft) O-SO 105 0 min 0,000 mm 0,0 UV-I 0 W/m 13,7 C 21,6 C 4,8 km/h (1 Bft) 98,78 %
19.07.2019 23:10 21,6 C 24,4 C 18,9 C 61 % 1013,7 hPa 0,0 l/m 3,1 km/h (1 Bft) O-SO 105 0 min 0,000 mm 0,0 UV-I 0 W/m 13,7 C 21,6 C 4,8 km/h (1 Bft) 100,00 %
19.07.2019 23:12 21,4 C 24,4 C 18,9 C 62 % 1013,7 hPa 0,0 l/m 3,4 km/h (1 Bft) O-SO 105 0 min 0,000 mm 0,0 UV-I 0 W/m 13,8 C 21,4 C 4,8 km/h (1 Bft) 100,00 %
19.07.2019 23:14 21,2 C 24,4 C 18,3 C 63 % 1013,7 hPa 0,0 l/m 3,5 km/h (1 Bft) O-SO 105 0 min 0,000 mm 0,0 UV-I 0 W/m 13,9 C 21,2 C 4,8 km/h (1 Bft) 100,00 %
19.07.2019 23:16 21,1 C 24,4 C 18,3 C 63 % 1013,7 hPa 0,0 l/m 2,8 km/h (1 Bft) O-SO 105 0 min 0,000 mm 0,0 UV-I 0 W/m 13,8 C 21,1 C 4,8 km/h (1 Bft) 100,00 %
19.07.2019 23:19 21,1 C 24,4 C 18,3 C 64 % 1013,7 hPa 0,0 l/m 2,8 km/h (1 Bft) O-SO 105 0 min 0,000 mm 0,0 UV-I 0 W/m 14,0 C 21,1 C 3,2 km/h (1 Bft) 100,00 %
19.07.2019 23:20 20,9 C 24,4 C 18,3 C 64 % 1013,7 hPa 0,0 l/m 4,0 km/h (1 Bft) O-SO 105 0 min 0,000 mm 0,0 UV-I 0 W/m 13,8 C 20,9 C 4,8 km/h (1 Bft) 100,00 %
19.07.2019 23:22 20,7 C 24,4 C 18,3 C 65 % 1013,8 hPa 0,0 l/m 4,1 km/h (1 Bft) O-SO 105 0 min 0,000 mm 0,0 UV-I 0 W/m 13,9 C 20,7 C 4,8 km/h (1 Bft) 100,00 %
19.07.2019 23:24 20,6 C 24,4 C 18,3 C 65 % 1013,9 hPa 0,0 l/m 3,9 km/h (1 Bft) O-SO 105 0 min 0,000 mm 0,0 UV-I 0 W/m 13,8 C 20,6 C 4,8 km/h (1 Bft) 95,74 %
19.07.2019 23:26 20,4 C 24,4 C 18,3 C 67 % 1013,9 hPa 0,0 l/m 4,0 km/h (1 Bft) O-SO 105 0 min 0,000 mm 0,0 UV-I 0 W/m 14,1 C 20,4 C 4,8 km/h (1 Bft) 98,00 %
19.07.2019 23:29 20,3 C 24,4 C 18,3 C 67 % 1013,9 hPa 0,0 l/m 3,6 km/h (1 Bft) O-SO 105 0 min 0,000 mm 0,0 UV-I 0 W/m 14,0 C 20,3 C 4,8 km/h (1 Bft) 95,77 %
19.07.2019 23:30 20,3 C 24,4 C 18,3 C 67 % 1013,9 hPa 0,0 l/m 3,5 km/h (1 Bft) O-SO 105 0 min 0,000 mm 0,0 UV-I 0 W/m 14,0 C 20,3 C 4,8 km/h (1 Bft) 95,65 %
19.07.2019 23:32 20,4 C 24,4 C 18,3 C 67 % 1013,9 hPa 0,0 l/m 3,9 km/h (1 Bft) O-SO 105 0 min 0,000 mm 0,0 UV-I 0 W/m 14,1 C 20,4 C 4,8 km/h (1 Bft) 97,87 %
19.07.2019 23:34 20,3 C 24,4 C 18,3 C 67 % 1013,9 hPa 0,0 l/m 3,4 km/h (1 Bft) O-SO 105 0 min 0,000 mm 0,0 UV-I 0 W/m 14,0 C 20,3 C 4,8 km/h (1 Bft) 97,44 %
19.07.2019 23:36 20,3 C 24,4 C 18,3 C 67 % 1014,0 hPa 0,0 l/m 3,1 km/h (1 Bft) O-SO 105 0 min 0,000 mm 0,0 UV-I 0 W/m 14,0 C 20,3 C 4,8 km/h (1 Bft) 97,87 %
19.07.2019 23:38 20,5 C 24,4 C 18,3 C 67 % 1014,0 hPa 0,0 l/m 4,0 km/h (1 Bft) O-SO 103 0 min 0,000 mm 0,0 UV-I 0 W/m 14,2 C 20,5 C 6,4 km/h (2 Bft) 97,87 %
19.07.2019 23:40 20,6 C 24,4 C 18,3 C 67 % 1014,0 hPa 0,0 l/m 4,8 km/h (1 Bft) O-NO 78 0 min 0,000 mm 0,0 UV-I 0 W/m 14,3 C 20,6 C 6,4 km/h (2 Bft) 95,74 %
19.07.2019 23:42 20,6 C 24,4 C 18,3 C 67 % 1014,0 hPa 0,0 l/m 5,1 km/h (1 Bft) O 82 0 min 0,000 mm 0,0 UV-I 0 W/m 14,3 C 20,6 C 8,0 km/h (2 Bft) 93,62 %
19.07.2019 23:44 20,7 C 24,4 C 18,3 C 66 % 1013,9 hPa 0,0 l/m 3,7 km/h (1 Bft) O 82 0 min 0,000 mm 0,0 UV-I 0 W/m 14,1 C 20,7 C 6,4 km/h (2 Bft) 93,62 %
19.07.2019 23:46 20,7 C 24,4 C 18,3 C 66 % 1014,0 hPa 0,0 l/m 4,0 km/h (1 Bft) O 88 0 min 0,000 mm 0,0 UV-I 0 W/m 14,1 C 20,7 C 4,8 km/h (1 Bft) 95,74 %
19.07.2019 23:49 20,8 C 24,4 C 18,3 C 65 % 1014,0 hPa 0,0 l/m 4,5 km/h (1 Bft) O 94 0 min 0,000 mm 0,0 UV-I 0 W/m 14,0 C 20,8 C 9,7 km/h (2 Bft) 95,71 %
19.07.2019 23:50 20,7 C 24,4 C 18,3 C 66 % 1014,0 hPa 0,0 l/m 5,7 km/h (1 Bft) O 90 0 min 0,000 mm 0,0 UV-I 0 W/m 14,1 C 20,7 C 6,4 km/h (2 Bft) 95,83 %
19.07.2019 23:52 20,7 C 24,4 C 18,3 C 65 % 1014,0 hPa 0,0 l/m 5,9 km/h (2 Bft) O-SO 105 0 min 0,000 mm 0,0 UV-I 0 W/m 13,9 C 20,7 C 9,7 km/h (2 Bft) 96,00 %
19.07.2019 23:54 20,8 C 24,4 C 18,3 C 64 % 1014,0 hPa 0,0 l/m 5,3 km/h (1 Bft) O-SO 102 0 min 0,000 mm 0,0 UV-I 0 W/m 13,7 C 20,8 C 6,4 km/h (2 Bft) 93,62 %
19.07.2019 23:56 20,8 C 24,4 C 18,3 C 64 % 1013,9 hPa 0,0 l/m 6,0 km/h (2 Bft) O 98 0 min 0,000 mm 0,0 UV-I 0 W/m 13,7 C 20,8 C 9,7 km/h (2 Bft) 95,74 %
19.07.2019 23:58 20,9 C 24,4 C 18,9 C 64 % 1014,0 hPa 0,0 l/m 4,4 km/h (1 Bft) O 99 0 min 0,000 mm 0,0 UV-I 0 W/m 13,8 C 20,9 C 9,7 km/h (2 Bft) 97,87 %
_ Min-Zeit 04:30 05:56 04:24 15:56 00:00 - 03:34 - - - - - - 01:12 04:30 03:34 01:56
Minimum _ 13,5 C 23,3 C 12,2 C 41 % 1011,8 hPa - 0,0 km/h (0 Bft) - - - - - - 11,2 C 13,5 C 0,0 km/h (0 Bft) 91,49 %
_ Max-Zeit 17:34 17:22 14:42 04:30 10:34 00:00 16:16 - - 14:29 15:00 14:16 14:16 13:42 17:34 18:48 00:00
Maximum _ 27,9 C 25,0 C 41,1 C 87 % 1014,5 hPa 0,0 l/m 11,9 km/h
N-NO (2 Bft)
- - 3 min 0,483 mm 5,4 UV-I 1020 W/m 15,9 C 27,9 C 16,1 km/h
NO (3 Bft)
100,00 %
Durchschnitt _ 21,4 C 24,1 C 23,3 C 62 % 1013,4 hPa #0,0 l/m 4,0 km/h (1 Bft) NO - #9:04 h #3,937 mm 2,1 UV-I 332 W/m 13,3 C 21,4 C 6,3 km/h (2 Bft) 97,32 %